<?xml version="1.0" encoding="UTF-8" standalone="no" ?>
<gpx xmlns="http://www.topografix.com/GPX/1/1" xmlns:xsi="http://www.w3.org/2001/XMLSchema-instance" xsi:schemaLocation="http://www.topografix.com/GPX/1/1 http://www.topografix.com/GPX/1/1/gpx.xsd" version="1.1" creator="VisuGPX - https://www.visugpx.com">
  <metadata>
    <name>2019-09-06 17:26:18</name>
    <desc><![CDATA[

]]></desc>
  </metadata>
  <trk>
    <name><![CDATA[2019-09-06 17:26:18]]></name>
    <trkseg>
      <trkpt lat="43.001" lon="1.13668">
        <ele>401.1</ele>
        <time>2019-09-06T06:06:50Z</time>
      </trkpt>
      <trkpt lat="43.00076" lon="1.13609">
        <ele>401.1</ele>
        <time>2019-09-06T06:06:51Z</time>
      </trkpt>
      <trkpt lat="43.00086" lon="1.13589">
        <ele>396.35</ele>
        <time>2019-09-06T06:06:56Z</time>
      </trkpt>
      <trkpt lat="43.00089" lon="1.13574">
        <ele>393.39</ele>
        <time>2019-09-06T06:07:03Z</time>
      </trkpt>
      <trkpt lat="43.00088" lon="1.13573">
        <ele>393.35</ele>
        <time>2019-09-06T06:07:04Z</time>
      </trkpt>
      <trkpt lat="43.00087" lon="1.13572">
        <ele>393.41</ele>
        <time>2019-09-06T06:07:05Z</time>
      </trkpt>
      <trkpt lat="43.00077" lon="1.13569">
        <ele>394.99</ele>
        <time>2019-09-06T06:07:13Z</time>
      </trkpt>
      <trkpt lat="43.00064" lon="1.13569">
        <ele>398</ele>
        <time>2019-09-06T06:07:27Z</time>
      </trkpt>
      <trkpt lat="43.0005" lon="1.13569">
        <ele>398.09</ele>
        <time>2019-09-06T06:07:43Z</time>
      </trkpt>
      <trkpt lat="43.00033" lon="1.13568">
        <ele>395.63</ele>
        <time>2019-09-06T06:07:57Z</time>
      </trkpt>
      <trkpt lat="43.00028" lon="1.13566">
        <ele>394.99</ele>
        <time>2019-09-06T06:08:00Z</time>
      </trkpt>
      <trkpt lat="43.00027" lon="1.13566">
        <ele>394.82</ele>
        <time>2019-09-06T06:08:01Z</time>
      </trkpt>
      <trkpt lat="43.00024" lon="1.13561">
        <ele>395.53</ele>
        <time>2019-09-06T06:08:18Z</time>
      </trkpt>
      <trkpt lat="43.00032" lon="1.13549">
        <ele>397.05</ele>
        <time>2019-09-06T06:08:43Z</time>
      </trkpt>
      <trkpt lat="43.00037" lon="1.13539">
        <ele>396.2</ele>
        <time>2019-09-06T06:08:52Z</time>
      </trkpt>
      <trkpt lat="43.00038" lon="1.13537">
        <ele>395.61</ele>
        <time>2019-09-06T06:08:53Z</time>
      </trkpt>
      <trkpt lat="43.00038" lon="1.13535">
        <ele>395.25</ele>
        <time>2019-09-06T06:08:54Z</time>
      </trkpt>
      <trkpt lat="43.00039" lon="1.13533">
        <ele>395.02</ele>
        <time>2019-09-06T06:08:55Z</time>
      </trkpt>
      <trkpt lat="43.00039" lon="1.13531">
        <ele>394.85</ele>
        <time>2019-09-06T06:08:56Z</time>
      </trkpt>
      <trkpt lat="43.00039" lon="1.1353">
        <ele>394.71</ele>
        <time>2019-09-06T06:08:57Z</time>
      </trkpt>
      <trkpt lat="43.0004" lon="1.13528">
        <ele>394.58</ele>
        <time>2019-09-06T06:08:58Z</time>
      </trkpt>
      <trkpt lat="43.0004" lon="1.13526">
        <ele>394.45</ele>
        <time>2019-09-06T06:08:59Z</time>
      </trkpt>
      <trkpt lat="43.00047" lon="1.13505">
        <ele>393.13</ele>
        <time>2019-09-06T06:09:15Z</time>
      </trkpt>
      <trkpt lat="43.00048" lon="1.13492">
        <ele>393.2</ele>
        <time>2019-09-06T06:09:22Z</time>
      </trkpt>
      <trkpt lat="43.00047" lon="1.1349">
        <ele>393.22</ele>
        <time>2019-09-06T06:09:23Z</time>
      </trkpt>
      <trkpt lat="43.00047" lon="1.13488">
        <ele>393.24</ele>
        <time>2019-09-06T06:09:24Z</time>
      </trkpt>
      <trkpt lat="43.00037" lon="1.13455">
        <ele>393.38</ele>
        <time>2019-09-06T06:09:43Z</time>
      </trkpt>
      <trkpt lat="43.00037" lon="1.13446">
        <ele>393.06</ele>
        <time>2019-09-06T06:09:48Z</time>
      </trkpt>
      <trkpt lat="43.00038" lon="1.13444">
        <ele>392.98</ele>
        <time>2019-09-06T06:09:49Z</time>
      </trkpt>
      <trkpt lat="43.00039" lon="1.13443">
        <ele>392.94</ele>
        <time>2019-09-06T06:09:50Z</time>
      </trkpt>
      <trkpt lat="43.00039" lon="1.13441">
        <ele>392.44</ele>
        <time>2019-09-06T06:10:08Z</time>
      </trkpt>
      <trkpt lat="43.00053" lon="1.13434">
        <ele>392.34</ele>
        <time>2019-09-06T06:10:36Z</time>
      </trkpt>
      <trkpt lat="43.00086" lon="1.13417">
        <ele>391.91</ele>
        <time>2019-09-06T06:11:01Z</time>
      </trkpt>
      <trkpt lat="43.00114" lon="1.13402">
        <ele>392.51</ele>
        <time>2019-09-06T06:11:25Z</time>
      </trkpt>
      <trkpt lat="43.00133" lon="1.13386">
        <ele>393.19</ele>
        <time>2019-09-06T06:11:44Z</time>
      </trkpt>
      <trkpt lat="43.00133" lon="1.13385">
        <ele>393.19</ele>
        <time>2019-09-06T06:11:45Z</time>
      </trkpt>
      <trkpt lat="43.00149" lon="1.13357">
        <ele>393.24</ele>
        <time>2019-09-06T06:12:05Z</time>
      </trkpt>
      <trkpt lat="43.00151" lon="1.13345">
        <ele>393.17</ele>
        <time>2019-09-06T06:12:12Z</time>
      </trkpt>
      <trkpt lat="43.00143" lon="1.13344">
        <ele>393.07</ele>
        <time>2019-09-06T06:12:24Z</time>
      </trkpt>
      <trkpt lat="43.00142" lon="1.13347">
        <ele>392.97</ele>
        <time>2019-09-06T06:12:26Z</time>
      </trkpt>
      <trkpt lat="43.00137" lon="1.13357">
        <ele>392.68</ele>
        <time>2019-09-06T06:12:34Z</time>
      </trkpt>
      <trkpt lat="43.00121" lon="1.13378">
        <ele>392.37</ele>
        <time>2019-09-06T06:12:51Z</time>
      </trkpt>
      <trkpt lat="43.00095" lon="1.13397">
        <ele>391.88</ele>
        <time>2019-09-06T06:13:12Z</time>
      </trkpt>
      <trkpt lat="43.00065" lon="1.13414">
        <ele>391.74</ele>
        <time>2019-09-06T06:13:37Z</time>
      </trkpt>
      <trkpt lat="43.00039" lon="1.13427">
        <ele>391.79</ele>
        <time>2019-09-06T06:13:59Z</time>
      </trkpt>
      <trkpt lat="43.00017" lon="1.13433">
        <ele>391.75</ele>
        <time>2019-09-06T06:14:18Z</time>
      </trkpt>
      <trkpt lat="42.9999" lon="1.13444">
        <ele>391.53</ele>
        <time>2019-09-06T06:14:40Z</time>
      </trkpt>
      <trkpt lat="42.99962" lon="1.13456">
        <ele>391.35</ele>
        <time>2019-09-06T06:15:01Z</time>
      </trkpt>
      <trkpt lat="42.99946" lon="1.13465">
        <ele>389.23</ele>
        <time>2019-09-06T06:15:18Z</time>
      </trkpt>
      <trkpt lat="42.99947" lon="1.13465">
        <ele>391.21</ele>
        <time>2019-09-06T06:15:21Z</time>
      </trkpt>
      <trkpt lat="42.99937" lon="1.13466">
        <ele>391.24</ele>
        <time>2019-09-06T06:15:40Z</time>
      </trkpt>
      <trkpt lat="42.99914" lon="1.1347">
        <ele>391.2</ele>
        <time>2019-09-06T06:15:59Z</time>
      </trkpt>
      <trkpt lat="42.9991" lon="1.13472">
        <ele>391.19</ele>
        <time>2019-09-06T06:16:03Z</time>
      </trkpt>
      <trkpt lat="42.99909" lon="1.13472">
        <ele>391.18</ele>
        <time>2019-09-06T06:16:04Z</time>
      </trkpt>
      <trkpt lat="42.99904" lon="1.13475">
        <ele>391.23</ele>
        <time>2019-09-06T06:16:17Z</time>
      </trkpt>
      <trkpt lat="42.99899" lon="1.13477">
        <ele>391.2</ele>
        <time>2019-09-06T06:16:28Z</time>
      </trkpt>
      <trkpt lat="42.99897" lon="1.13479">
        <ele>391.21</ele>
        <time>2019-09-06T06:16:30Z</time>
      </trkpt>
      <trkpt lat="42.99886" lon="1.13483">
        <ele>391.33</ele>
        <time>2019-09-06T06:16:47Z</time>
      </trkpt>
      <trkpt lat="42.99887" lon="1.13483">
        <ele>391.35</ele>
        <time>2019-09-06T06:16:48Z</time>
      </trkpt>
      <trkpt lat="42.99906" lon="1.13474">
        <ele>391.25</ele>
        <time>2019-09-06T06:17:04Z</time>
      </trkpt>
      <trkpt lat="42.99916" lon="1.13464">
        <ele>390.86</ele>
        <time>2019-09-06T06:17:17Z</time>
      </trkpt>
      <trkpt lat="42.99915" lon="1.13463">
        <ele>390.82</ele>
        <time>2019-09-06T06:17:18Z</time>
      </trkpt>
      <trkpt lat="42.99913" lon="1.13462">
        <ele>390.51</ele>
        <time>2019-09-06T06:17:20Z</time>
      </trkpt>
      <trkpt lat="42.99895" lon="1.13459">
        <ele>388.2</ele>
        <time>2019-09-06T06:17:37Z</time>
      </trkpt>
      <trkpt lat="42.99891" lon="1.13458">
        <ele>388.11</ele>
        <time>2019-09-06T06:17:40Z</time>
      </trkpt>
      <trkpt lat="42.99867" lon="1.13466">
        <ele>387.24</ele>
        <time>2019-09-06T06:17:57Z</time>
      </trkpt>
      <trkpt lat="42.99859" lon="1.13464">
        <ele>387.81</ele>
        <time>2019-09-06T06:18:04Z</time>
      </trkpt>
      <trkpt lat="42.99838" lon="1.1346">
        <ele>389.43</ele>
        <time>2019-09-06T06:18:21Z</time>
      </trkpt>
      <trkpt lat="42.99819" lon="1.13455">
        <ele>390.84</ele>
        <time>2019-09-06T06:18:37Z</time>
      </trkpt>
      <trkpt lat="42.99816" lon="1.13454">
        <ele>391.64</ele>
        <time>2019-09-06T06:18:56Z</time>
      </trkpt>
      <trkpt lat="42.99803" lon="1.13447">
        <ele>392.1</ele>
        <time>2019-09-06T06:19:18Z</time>
      </trkpt>
      <trkpt lat="42.99786" lon="1.13444">
        <ele>394.1</ele>
        <time>2019-09-06T06:19:35Z</time>
      </trkpt>
      <trkpt lat="42.99775" lon="1.13443">
        <ele>397.18</ele>
        <time>2019-09-06T06:19:50Z</time>
      </trkpt>
      <trkpt lat="42.99758" lon="1.13453">
        <ele>399.59</ele>
        <time>2019-09-06T06:20:10Z</time>
      </trkpt>
      <trkpt lat="42.99747" lon="1.13454">
        <ele>400.67</ele>
        <time>2019-09-06T06:20:20Z</time>
      </trkpt>
      <trkpt lat="42.99728" lon="1.13443">
        <ele>403.79</ele>
        <time>2019-09-06T06:20:41Z</time>
      </trkpt>
      <trkpt lat="42.99711" lon="1.13432">
        <ele>406.01</ele>
        <time>2019-09-06T06:21:01Z</time>
      </trkpt>
      <trkpt lat="42.99691" lon="1.13425">
        <ele>408.46</ele>
        <time>2019-09-06T06:21:22Z</time>
      </trkpt>
      <trkpt lat="42.99674" lon="1.13412">
        <ele>409.98</ele>
        <time>2019-09-06T06:21:40Z</time>
      </trkpt>
      <trkpt lat="42.99654" lon="1.1341">
        <ele>411.61</ele>
        <time>2019-09-06T06:22:00Z</time>
      </trkpt>
      <trkpt lat="42.99635" lon="1.13424">
        <ele>412.37</ele>
        <time>2019-09-06T06:22:18Z</time>
      </trkpt>
      <trkpt lat="42.99624" lon="1.1343">
        <ele>413.38</ele>
        <time>2019-09-06T06:22:36Z</time>
      </trkpt>
      <trkpt lat="42.99612" lon="1.13436">
        <ele>413.59</ele>
        <time>2019-09-06T06:23:00Z</time>
      </trkpt>
      <trkpt lat="42.99598" lon="1.13441">
        <ele>414.87</ele>
        <time>2019-09-06T06:23:14Z</time>
      </trkpt>
      <trkpt lat="42.9958" lon="1.13444">
        <ele>415.78</ele>
        <time>2019-09-06T06:23:29Z</time>
      </trkpt>
      <trkpt lat="42.99561" lon="1.13444">
        <ele>416.61</ele>
        <time>2019-09-06T06:23:45Z</time>
      </trkpt>
      <trkpt lat="42.99559" lon="1.13445">
        <ele>416.63</ele>
        <time>2019-09-06T06:23:47Z</time>
      </trkpt>
      <trkpt lat="42.99543" lon="1.13446">
        <ele>417.36</ele>
        <time>2019-09-06T06:24:08Z</time>
      </trkpt>
      <trkpt lat="42.99511" lon="1.13453">
        <ele>417.38</ele>
        <time>2019-09-06T06:24:24Z</time>
      </trkpt>
      <trkpt lat="42.99493" lon="1.13464">
        <ele>417.2</ele>
        <time>2019-09-06T06:24:40Z</time>
      </trkpt>
      <trkpt lat="42.99473" lon="1.13472">
        <ele>416.99</ele>
        <time>2019-09-06T06:24:58Z</time>
      </trkpt>
      <trkpt lat="42.99454" lon="1.13477">
        <ele>417.31</ele>
        <time>2019-09-06T06:25:16Z</time>
      </trkpt>
      <trkpt lat="42.99436" lon="1.13477">
        <ele>417.43</ele>
        <time>2019-09-06T06:25:31Z</time>
      </trkpt>
      <trkpt lat="42.99416" lon="1.13476">
        <ele>417.73</ele>
        <time>2019-09-06T06:25:48Z</time>
      </trkpt>
      <trkpt lat="42.99398" lon="1.13473">
        <ele>416.75</ele>
        <time>2019-09-06T06:26:03Z</time>
      </trkpt>
      <trkpt lat="42.99395" lon="1.13472">
        <ele>416.64</ele>
        <time>2019-09-06T06:26:05Z</time>
      </trkpt>
      <trkpt lat="42.9939" lon="1.1347">
        <ele>416.29</ele>
        <time>2019-09-06T06:26:15Z</time>
      </trkpt>
      <trkpt lat="42.99389" lon="1.13471">
        <ele>416.28</ele>
        <time>2019-09-06T06:26:16Z</time>
      </trkpt>
      <trkpt lat="42.99374" lon="1.13465">
        <ele>415.51</ele>
        <time>2019-09-06T06:26:31Z</time>
      </trkpt>
      <trkpt lat="42.9936" lon="1.13447">
        <ele>415.03</ele>
        <time>2019-09-06T06:26:50Z</time>
      </trkpt>
      <trkpt lat="42.99354" lon="1.13439">
        <ele>414.91</ele>
        <time>2019-09-06T06:26:57Z</time>
      </trkpt>
      <trkpt lat="42.99353" lon="1.13438">
        <ele>414.9</ele>
        <time>2019-09-06T06:26:58Z</time>
      </trkpt>
      <trkpt lat="42.99334" lon="1.1342">
        <ele>414.68</ele>
        <time>2019-09-06T06:27:15Z</time>
      </trkpt>
      <trkpt lat="42.99332" lon="1.13417">
        <ele>414.6</ele>
        <time>2019-09-06T06:27:17Z</time>
      </trkpt>
      <trkpt lat="42.99324" lon="1.13411">
        <ele>414.63</ele>
        <time>2019-09-06T06:27:25Z</time>
      </trkpt>
      <trkpt lat="42.99322" lon="1.1341">
        <ele>414.63</ele>
        <time>2019-09-06T06:27:26Z</time>
      </trkpt>
      <trkpt lat="42.99308" lon="1.13402">
        <ele>414.51</ele>
        <time>2019-09-06T06:27:39Z</time>
      </trkpt>
      <trkpt lat="42.99295" lon="1.13401">
        <ele>414.67</ele>
        <time>2019-09-06T06:27:49Z</time>
      </trkpt>
      <trkpt lat="42.9928" lon="1.13398">
        <ele>414.89</ele>
        <time>2019-09-06T06:28:00Z</time>
      </trkpt>
      <trkpt lat="42.99258" lon="1.13399">
        <ele>414.74</ele>
        <time>2019-09-06T06:28:18Z</time>
      </trkpt>
      <trkpt lat="42.99251" lon="1.13396">
        <ele>414.72</ele>
        <time>2019-09-06T06:28:23Z</time>
      </trkpt>
      <trkpt lat="42.99236" lon="1.13393">
        <ele>414.74</ele>
        <time>2019-09-06T06:28:34Z</time>
      </trkpt>
      <trkpt lat="42.99223" lon="1.13386">
        <ele>414.63</ele>
        <time>2019-09-06T06:28:47Z</time>
      </trkpt>
      <trkpt lat="42.99218" lon="1.13383">
        <ele>414.44</ele>
        <time>2019-09-06T06:28:51Z</time>
      </trkpt>
      <trkpt lat="42.99208" lon="1.13378">
        <ele>414.12</ele>
        <time>2019-09-06T06:28:59Z</time>
      </trkpt>
      <trkpt lat="42.99206" lon="1.13377">
        <ele>414.08</ele>
        <time>2019-09-06T06:29:00Z</time>
      </trkpt>
      <trkpt lat="42.99205" lon="1.13376">
        <ele>414.04</ele>
        <time>2019-09-06T06:29:01Z</time>
      </trkpt>
      <trkpt lat="42.99182" lon="1.13365">
        <ele>413.72</ele>
        <time>2019-09-06T06:29:19Z</time>
      </trkpt>
      <trkpt lat="42.99169" lon="1.1336">
        <ele>413.8</ele>
        <time>2019-09-06T06:29:34Z</time>
      </trkpt>
      <trkpt lat="42.99167" lon="1.13359">
        <ele>413.8</ele>
        <time>2019-09-06T06:29:36Z</time>
      </trkpt>
      <trkpt lat="42.99166" lon="1.1336">
        <ele>413.8</ele>
        <time>2019-09-06T06:29:37Z</time>
      </trkpt>
      <trkpt lat="42.99165" lon="1.1336">
        <ele>413.8</ele>
        <time>2019-09-06T06:29:38Z</time>
      </trkpt>
      <trkpt lat="42.99163" lon="1.1336">
        <ele>413.8</ele>
        <time>2019-09-06T06:29:39Z</time>
      </trkpt>
      <trkpt lat="42.99162" lon="1.1336">
        <ele>413.8</ele>
        <time>2019-09-06T06:29:40Z</time>
      </trkpt>
      <trkpt lat="42.99137" lon="1.13354">
        <ele>414.16</ele>
        <time>2019-09-06T06:30:00Z</time>
      </trkpt>
      <trkpt lat="42.99106" lon="1.13355">
        <ele>414.42</ele>
        <time>2019-09-06T06:30:24Z</time>
      </trkpt>
      <trkpt lat="42.99082" lon="1.13362">
        <ele>415.23</ele>
        <time>2019-09-06T06:30:44Z</time>
      </trkpt>
      <trkpt lat="42.9906" lon="1.13366">
        <ele>416.17</ele>
        <time>2019-09-06T06:31:02Z</time>
      </trkpt>
      <trkpt lat="42.99034" lon="1.1337">
        <ele>417.7</ele>
        <time>2019-09-06T06:31:23Z</time>
      </trkpt>
      <trkpt lat="42.99004" lon="1.13373">
        <ele>419.38</ele>
        <time>2019-09-06T06:31:48Z</time>
      </trkpt>
      <trkpt lat="42.98983" lon="1.13372">
        <ele>420.07</ele>
        <time>2019-09-06T06:32:05Z</time>
      </trkpt>
      <trkpt lat="42.98961" lon="1.13369">
        <ele>419.69</ele>
        <time>2019-09-06T06:32:22Z</time>
      </trkpt>
      <trkpt lat="42.98939" lon="1.13364">
        <ele>419.65</ele>
        <time>2019-09-06T06:32:39Z</time>
      </trkpt>
      <trkpt lat="42.9891" lon="1.13352">
        <ele>420.11</ele>
        <time>2019-09-06T06:33:02Z</time>
      </trkpt>
      <trkpt lat="42.98884" lon="1.13335">
        <ele>421.1</ele>
        <time>2019-09-06T06:33:26Z</time>
      </trkpt>
      <trkpt lat="42.98853" lon="1.13311">
        <ele>422.39</ele>
        <time>2019-09-06T06:33:55Z</time>
      </trkpt>
      <trkpt lat="42.98824" lon="1.13288">
        <ele>423.39</ele>
        <time>2019-09-06T06:34:21Z</time>
      </trkpt>
      <trkpt lat="42.98796" lon="1.13265">
        <ele>424.07</ele>
        <time>2019-09-06T06:34:47Z</time>
      </trkpt>
      <trkpt lat="42.98768" lon="1.1324">
        <ele>424.64</ele>
        <time>2019-09-06T06:35:13Z</time>
      </trkpt>
      <trkpt lat="42.98737" lon="1.13223">
        <ele>425.04</ele>
        <time>2019-09-06T06:35:39Z</time>
      </trkpt>
      <trkpt lat="42.98713" lon="1.13211">
        <ele>425.52</ele>
        <time>2019-09-06T06:36:02Z</time>
      </trkpt>
      <trkpt lat="42.98712" lon="1.1321">
        <ele>425.54</ele>
        <time>2019-09-06T06:36:03Z</time>
      </trkpt>
      <trkpt lat="42.98711" lon="1.1321">
        <ele>425.57</ele>
        <time>2019-09-06T06:36:04Z</time>
      </trkpt>
      <trkpt lat="42.98678" lon="1.13191">
        <ele>426.12</ele>
        <time>2019-09-06T06:36:32Z</time>
      </trkpt>
      <trkpt lat="42.98653" lon="1.13169">
        <ele>426.57</ele>
        <time>2019-09-06T06:36:55Z</time>
      </trkpt>
      <trkpt lat="42.98629" lon="1.13143">
        <ele>427.03</ele>
        <time>2019-09-06T06:37:20Z</time>
      </trkpt>
      <trkpt lat="42.98611" lon="1.1313">
        <ele>427.41</ele>
        <time>2019-09-06T06:37:38Z</time>
      </trkpt>
      <trkpt lat="42.98582" lon="1.13112">
        <ele>427.75</ele>
        <time>2019-09-06T06:38:02Z</time>
      </trkpt>
      <trkpt lat="42.98561" lon="1.13097">
        <ele>427.8</ele>
        <time>2019-09-06T06:38:22Z</time>
      </trkpt>
      <trkpt lat="42.98535" lon="1.13074">
        <ele>428.24</ele>
        <time>2019-09-06T06:38:46Z</time>
      </trkpt>
      <trkpt lat="42.98512" lon="1.13052">
        <ele>428.4</ele>
        <time>2019-09-06T06:39:08Z</time>
      </trkpt>
      <trkpt lat="42.98487" lon="1.13029">
        <ele>428.17</ele>
        <time>2019-09-06T06:39:31Z</time>
      </trkpt>
      <trkpt lat="42.98456" lon="1.13">
        <ele>427.89</ele>
        <time>2019-09-06T06:39:59Z</time>
      </trkpt>
      <trkpt lat="42.98435" lon="1.12983">
        <ele>427.6</ele>
        <time>2019-09-06T06:40:19Z</time>
      </trkpt>
      <trkpt lat="42.98427" lon="1.12974">
        <ele>426.48</ele>
        <time>2019-09-06T06:40:33Z</time>
      </trkpt>
      <trkpt lat="42.98423" lon="1.1297">
        <ele>426.17</ele>
        <time>2019-09-06T06:40:50Z</time>
      </trkpt>
      <trkpt lat="42.98422" lon="1.12972">
        <ele>426.04</ele>
        <time>2019-09-06T06:40:57Z</time>
      </trkpt>
      <trkpt lat="42.98421" lon="1.12974">
        <ele>426.02</ele>
        <time>2019-09-06T06:40:58Z</time>
      </trkpt>
      <trkpt lat="42.98421" lon="1.12975">
        <ele>425.97</ele>
        <time>2019-09-06T06:40:59Z</time>
      </trkpt>
      <trkpt lat="42.9842" lon="1.12976">
        <ele>425.92</ele>
        <time>2019-09-06T06:41:00Z</time>
      </trkpt>
      <trkpt lat="42.98419" lon="1.12978">
        <ele>425.88</ele>
        <time>2019-09-06T06:41:01Z</time>
      </trkpt>
      <trkpt lat="42.98406" lon="1.12997">
        <ele>424.5</ele>
        <time>2019-09-06T06:41:19Z</time>
      </trkpt>
      <trkpt lat="42.98392" lon="1.13015">
        <ele>423.18</ele>
        <time>2019-09-06T06:41:35Z</time>
      </trkpt>
      <trkpt lat="42.98395" lon="1.13019">
        <ele>422.9</ele>
        <time>2019-09-06T06:42:00Z</time>
      </trkpt>
      <trkpt lat="42.98398" lon="1.13016">
        <ele>422.96</ele>
        <time>2019-09-06T06:42:04Z</time>
      </trkpt>
      <trkpt lat="42.98401" lon="1.13012">
        <ele>423.04</ele>
        <time>2019-09-06T06:42:07Z</time>
      </trkpt>
      <trkpt lat="42.98404" lon="1.13006">
        <ele>423.34</ele>
        <time>2019-09-06T06:42:14Z</time>
      </trkpt>
      <trkpt lat="42.98401" lon="1.13009">
        <ele>423.62</ele>
        <time>2019-09-06T06:42:17Z</time>
      </trkpt>
      <trkpt lat="42.98402" lon="1.13009">
        <ele>423.14</ele>
        <time>2019-09-06T06:42:35Z</time>
      </trkpt>
      <trkpt lat="42.98406" lon="1.13002">
        <ele>424.03</ele>
        <time>2019-09-06T06:42:41Z</time>
      </trkpt>
      <trkpt lat="42.98407" lon="1.13001">
        <ele>424.17</ele>
        <time>2019-09-06T06:42:42Z</time>
      </trkpt>
      <trkpt lat="42.98418" lon="1.12984">
        <ele>424.68</ele>
        <time>2019-09-06T06:42:55Z</time>
      </trkpt>
      <trkpt lat="42.98419" lon="1.12982">
        <ele>424.77</ele>
        <time>2019-09-06T06:42:56Z</time>
      </trkpt>
      <trkpt lat="42.9842" lon="1.12981">
        <ele>424.84</ele>
        <time>2019-09-06T06:42:57Z</time>
      </trkpt>
      <trkpt lat="42.9842" lon="1.12966">
        <ele>425.98</ele>
        <time>2019-09-06T06:43:10Z</time>
      </trkpt>
      <trkpt lat="42.984" lon="1.12949">
        <ele>426.65</ele>
        <time>2019-09-06T06:43:27Z</time>
      </trkpt>
      <trkpt lat="42.9838" lon="1.1293">
        <ele>426.71</ele>
        <time>2019-09-06T06:43:46Z</time>
      </trkpt>
      <trkpt lat="42.98353" lon="1.12908">
        <ele>426.92</ele>
        <time>2019-09-06T06:44:11Z</time>
      </trkpt>
      <trkpt lat="42.98334" lon="1.12886">
        <ele>427.12</ele>
        <time>2019-09-06T06:44:31Z</time>
      </trkpt>
      <trkpt lat="42.98318" lon="1.12864">
        <ele>426.98</ele>
        <time>2019-09-06T06:44:50Z</time>
      </trkpt>
      <trkpt lat="42.98301" lon="1.12837">
        <ele>427.28</ele>
        <time>2019-09-06T06:45:11Z</time>
      </trkpt>
      <trkpt lat="42.98285" lon="1.12808">
        <ele>426.62</ele>
        <time>2019-09-06T06:45:31Z</time>
      </trkpt>
      <trkpt lat="42.98265" lon="1.12788">
        <ele>427.1</ele>
        <time>2019-09-06T06:45:50Z</time>
      </trkpt>
      <trkpt lat="42.98235" lon="1.12764">
        <ele>428.1</ele>
        <time>2019-09-06T06:46:16Z</time>
      </trkpt>
      <trkpt lat="42.98215" lon="1.12749">
        <ele>427.53</ele>
        <time>2019-09-06T06:46:34Z</time>
      </trkpt>
      <trkpt lat="42.98193" lon="1.12739">
        <ele>427.09</ele>
        <time>2019-09-06T06:46:52Z</time>
      </trkpt>
      <trkpt lat="42.98166" lon="1.1273">
        <ele>427.18</ele>
        <time>2019-09-06T06:47:14Z</time>
      </trkpt>
      <trkpt lat="42.98149" lon="1.12722">
        <ele>426.67</ele>
        <time>2019-09-06T06:47:28Z</time>
      </trkpt>
      <trkpt lat="42.98145" lon="1.12719">
        <ele>426.67</ele>
        <time>2019-09-06T06:47:31Z</time>
      </trkpt>
      <trkpt lat="42.98129" lon="1.12705">
        <ele>426.1</ele>
        <time>2019-09-06T06:47:47Z</time>
      </trkpt>
      <trkpt lat="42.98114" lon="1.12694">
        <ele>425.83</ele>
        <time>2019-09-06T06:48:01Z</time>
      </trkpt>
      <trkpt lat="42.98112" lon="1.12691">
        <ele>425.79</ele>
        <time>2019-09-06T06:48:03Z</time>
      </trkpt>
      <trkpt lat="42.98087" lon="1.12666">
        <ele>425.27</ele>
        <time>2019-09-06T06:48:24Z</time>
      </trkpt>
      <trkpt lat="42.98062" lon="1.12643">
        <ele>424.83</ele>
        <time>2019-09-06T06:48:47Z</time>
      </trkpt>
      <trkpt lat="42.98044" lon="1.12623">
        <ele>424.23</ele>
        <time>2019-09-06T06:49:04Z</time>
      </trkpt>
      <trkpt lat="42.98019" lon="1.12597">
        <ele>423.52</ele>
        <time>2019-09-06T06:49:28Z</time>
      </trkpt>
      <trkpt lat="42.97995" lon="1.12566">
        <ele>423.71</ele>
        <time>2019-09-06T06:49:53Z</time>
      </trkpt>
      <trkpt lat="42.97969" lon="1.12532">
        <ele>424.4</ele>
        <time>2019-09-06T06:50:21Z</time>
      </trkpt>
      <trkpt lat="42.9795" lon="1.12507">
        <ele>424.44</ele>
        <time>2019-09-06T06:50:43Z</time>
      </trkpt>
      <trkpt lat="42.97943" lon="1.125">
        <ele>424.38</ele>
        <time>2019-09-06T06:50:51Z</time>
      </trkpt>
      <trkpt lat="42.97941" lon="1.12498">
        <ele>424.41</ele>
        <time>2019-09-06T06:50:53Z</time>
      </trkpt>
      <trkpt lat="42.97914" lon="1.12468">
        <ele>425.02</ele>
        <time>2019-09-06T06:51:17Z</time>
      </trkpt>
      <trkpt lat="42.97912" lon="1.12447">
        <ele>425.23</ele>
        <time>2019-09-06T06:51:30Z</time>
      </trkpt>
      <trkpt lat="42.97916" lon="1.12431">
        <ele>425.95</ele>
        <time>2019-09-06T06:51:42Z</time>
      </trkpt>
      <trkpt lat="42.97915" lon="1.12427">
        <ele>426.21</ele>
        <time>2019-09-06T06:51:44Z</time>
      </trkpt>
      <trkpt lat="42.97915" lon="1.12425">
        <ele>426.36</ele>
        <time>2019-09-06T06:51:45Z</time>
      </trkpt>
      <trkpt lat="42.97915" lon="1.12423">
        <ele>426.51</ele>
        <time>2019-09-06T06:51:46Z</time>
      </trkpt>
      <trkpt lat="42.97914" lon="1.1242">
        <ele>426.63</ele>
        <time>2019-09-06T06:51:47Z</time>
      </trkpt>
      <trkpt lat="42.97913" lon="1.12418">
        <ele>426.69</ele>
        <time>2019-09-06T06:51:48Z</time>
      </trkpt>
      <trkpt lat="42.97912" lon="1.12417">
        <ele>426.79</ele>
        <time>2019-09-06T06:51:49Z</time>
      </trkpt>
      <trkpt lat="42.97888" lon="1.12393">
        <ele>425.93</ele>
        <time>2019-09-06T06:52:09Z</time>
      </trkpt>
      <trkpt lat="42.97887" lon="1.12389">
        <ele>425.63</ele>
        <time>2019-09-06T06:52:12Z</time>
      </trkpt>
      <trkpt lat="42.97878" lon="1.12362">
        <ele>424.33</ele>
        <time>2019-09-06T06:52:28Z</time>
      </trkpt>
      <trkpt lat="42.97868" lon="1.12335">
        <ele>422.66</ele>
        <time>2019-09-06T06:52:43Z</time>
      </trkpt>
      <trkpt lat="42.97862" lon="1.12308">
        <ele>421.72</ele>
        <time>2019-09-06T06:52:59Z</time>
      </trkpt>
      <trkpt lat="42.97852" lon="1.12271">
        <ele>421.29</ele>
        <time>2019-09-06T06:53:19Z</time>
      </trkpt>
      <trkpt lat="42.97842" lon="1.12248">
        <ele>420.89</ele>
        <time>2019-09-06T06:53:35Z</time>
      </trkpt>
      <trkpt lat="42.97819" lon="1.12233">
        <ele>419.87</ele>
        <time>2019-09-06T06:53:56Z</time>
      </trkpt>
      <trkpt lat="42.97799" lon="1.1225">
        <ele>418.05</ele>
        <time>2019-09-06T06:54:12Z</time>
      </trkpt>
      <trkpt lat="42.97795" lon="1.1225">
        <ele>417.95</ele>
        <time>2019-09-06T06:54:16Z</time>
      </trkpt>
      <trkpt lat="42.97794" lon="1.12249">
        <ele>417.94</ele>
        <time>2019-09-06T06:54:17Z</time>
      </trkpt>
      <trkpt lat="42.97793" lon="1.12248">
        <ele>417.94</ele>
        <time>2019-09-06T06:54:18Z</time>
      </trkpt>
      <trkpt lat="42.97792" lon="1.12247">
        <ele>417.94</ele>
        <time>2019-09-06T06:54:19Z</time>
      </trkpt>
      <trkpt lat="42.97782" lon="1.1223">
        <ele>419.51</ele>
        <time>2019-09-06T06:54:34Z</time>
      </trkpt>
      <trkpt lat="42.9777" lon="1.12214">
        <ele>421.62</ele>
        <time>2019-09-06T06:54:47Z</time>
      </trkpt>
      <trkpt lat="42.97769" lon="1.12213">
        <ele>421.67</ele>
        <time>2019-09-06T06:54:48Z</time>
      </trkpt>
      <trkpt lat="42.97765" lon="1.12209">
        <ele>421.85</ele>
        <time>2019-09-06T06:54:52Z</time>
      </trkpt>
      <trkpt lat="42.97764" lon="1.12208">
        <ele>421.9</ele>
        <time>2019-09-06T06:54:53Z</time>
      </trkpt>
      <trkpt lat="42.97762" lon="1.12206">
        <ele>421.94</ele>
        <time>2019-09-06T06:54:54Z</time>
      </trkpt>
      <trkpt lat="42.97745" lon="1.12188">
        <ele>422.85</ele>
        <time>2019-09-06T06:55:10Z</time>
      </trkpt>
      <trkpt lat="42.97742" lon="1.12185">
        <ele>422.99</ele>
        <time>2019-09-06T06:55:12Z</time>
      </trkpt>
      <trkpt lat="42.97731" lon="1.12168">
        <ele>424.11</ele>
        <time>2019-09-06T06:55:28Z</time>
      </trkpt>
      <trkpt lat="42.97718" lon="1.12144">
        <ele>425.61</ele>
        <time>2019-09-06T06:55:46Z</time>
      </trkpt>
      <trkpt lat="42.97716" lon="1.1214">
        <ele>425.88</ele>
        <time>2019-09-06T06:55:49Z</time>
      </trkpt>
      <trkpt lat="42.97715" lon="1.12138">
        <ele>425.98</ele>
        <time>2019-09-06T06:55:50Z</time>
      </trkpt>
      <trkpt lat="42.97714" lon="1.12136">
        <ele>426.06</ele>
        <time>2019-09-06T06:55:51Z</time>
      </trkpt>
      <trkpt lat="42.977" lon="1.12107">
        <ele>427.64</ele>
        <time>2019-09-06T06:56:10Z</time>
      </trkpt>
      <trkpt lat="42.97695" lon="1.12091">
        <ele>428.55</ele>
        <time>2019-09-06T06:56:21Z</time>
      </trkpt>
      <trkpt lat="42.97694" lon="1.12089">
        <ele>428.65</ele>
        <time>2019-09-06T06:56:22Z</time>
      </trkpt>
      <trkpt lat="42.97681" lon="1.12069">
        <ele>429.59</ele>
        <time>2019-09-06T06:56:39Z</time>
      </trkpt>
      <trkpt lat="42.97663" lon="1.12051">
        <ele>430.49</ele>
        <time>2019-09-06T06:56:57Z</time>
      </trkpt>
      <trkpt lat="42.97648" lon="1.12038">
        <ele>431.49</ele>
        <time>2019-09-06T06:57:12Z</time>
      </trkpt>
      <trkpt lat="42.97645" lon="1.12036">
        <ele>431.6</ele>
        <time>2019-09-06T06:57:14Z</time>
      </trkpt>
      <trkpt lat="42.97644" lon="1.12035">
        <ele>431.65</ele>
        <time>2019-09-06T06:57:15Z</time>
      </trkpt>
      <trkpt lat="42.9762" lon="1.12015">
        <ele>432.95</ele>
        <time>2019-09-06T06:57:36Z</time>
      </trkpt>
      <trkpt lat="42.97589" lon="1.11982">
        <ele>432.48</ele>
        <time>2019-09-06T06:58:05Z</time>
      </trkpt>
      <trkpt lat="42.97562" lon="1.11953">
        <ele>432.06</ele>
        <time>2019-09-06T06:58:30Z</time>
      </trkpt>
      <trkpt lat="42.97541" lon="1.1193">
        <ele>431.13</ele>
        <time>2019-09-06T06:58:51Z</time>
      </trkpt>
      <trkpt lat="42.97523" lon="1.1191">
        <ele>430.47</ele>
        <time>2019-09-06T06:59:09Z</time>
      </trkpt>
      <trkpt lat="42.97493" lon="1.1188">
        <ele>430.82</ele>
        <time>2019-09-06T06:59:37Z</time>
      </trkpt>
      <trkpt lat="42.97465" lon="1.1186">
        <ele>433.24</ele>
        <time>2019-09-06T07:00:03Z</time>
      </trkpt>
      <trkpt lat="42.97445" lon="1.1184">
        <ele>434.67</ele>
        <time>2019-09-06T07:00:24Z</time>
      </trkpt>
      <trkpt lat="42.97426" lon="1.11815">
        <ele>434.94</ele>
        <time>2019-09-06T07:00:43Z</time>
      </trkpt>
      <trkpt lat="42.97403" lon="1.11789">
        <ele>434.81</ele>
        <time>2019-09-06T07:01:06Z</time>
      </trkpt>
      <trkpt lat="42.97383" lon="1.1177">
        <ele>435.12</ele>
        <time>2019-09-06T07:01:25Z</time>
      </trkpt>
      <trkpt lat="42.97362" lon="1.11748">
        <ele>434.3</ele>
        <time>2019-09-06T07:01:46Z</time>
      </trkpt>
      <trkpt lat="42.97331" lon="1.11716">
        <ele>432.55</ele>
        <time>2019-09-06T07:02:14Z</time>
      </trkpt>
      <trkpt lat="42.97306" lon="1.11686">
        <ele>431</ele>
        <time>2019-09-06T07:02:38Z</time>
      </trkpt>
      <trkpt lat="42.97274" lon="1.11645">
        <ele>429.11</ele>
        <time>2019-09-06T07:03:10Z</time>
      </trkpt>
      <trkpt lat="42.97253" lon="1.11618">
        <ele>427.71</ele>
        <time>2019-09-06T07:03:32Z</time>
      </trkpt>
      <trkpt lat="42.97236" lon="1.11599">
        <ele>426.5</ele>
        <time>2019-09-06T07:03:51Z</time>
      </trkpt>
      <trkpt lat="42.97217" lon="1.1158">
        <ele>425.53</ele>
        <time>2019-09-06T07:04:07Z</time>
      </trkpt>
      <trkpt lat="42.97215" lon="1.11577">
        <ele>425.41</ele>
        <time>2019-09-06T07:04:09Z</time>
      </trkpt>
      <trkpt lat="42.97206" lon="1.11558">
        <ele>424.36</ele>
        <time>2019-09-06T07:04:23Z</time>
      </trkpt>
      <trkpt lat="42.97204" lon="1.11541">
        <ele>423.75</ele>
        <time>2019-09-06T07:04:32Z</time>
      </trkpt>
      <trkpt lat="42.97202" lon="1.11512">
        <ele>422.54</ele>
        <time>2019-09-06T07:04:49Z</time>
      </trkpt>
      <trkpt lat="42.97201" lon="1.11477">
        <ele>420.8</ele>
        <time>2019-09-06T07:05:07Z</time>
      </trkpt>
      <trkpt lat="42.97195" lon="1.11445">
        <ele>419.26</ele>
        <time>2019-09-06T07:05:24Z</time>
      </trkpt>
      <trkpt lat="42.9718" lon="1.1141">
        <ele>418.22</ele>
        <time>2019-09-06T07:05:43Z</time>
      </trkpt>
      <trkpt lat="42.97161" lon="1.11367">
        <ele>416.92</ele>
        <time>2019-09-06T07:06:08Z</time>
      </trkpt>
      <trkpt lat="42.97147" lon="1.11327">
        <ele>416.35</ele>
        <time>2019-09-06T07:06:30Z</time>
      </trkpt>
      <trkpt lat="42.9713" lon="1.11298">
        <ele>416.36</ele>
        <time>2019-09-06T07:06:49Z</time>
      </trkpt>
      <trkpt lat="42.97111" lon="1.1125">
        <ele>416.37</ele>
        <time>2019-09-06T07:07:16Z</time>
      </trkpt>
      <trkpt lat="42.97093" lon="1.11204">
        <ele>416.17</ele>
        <time>2019-09-06T07:07:42Z</time>
      </trkpt>
      <trkpt lat="42.97076" lon="1.11161">
        <ele>416.1</ele>
        <time>2019-09-06T07:08:07Z</time>
      </trkpt>
      <trkpt lat="42.97063" lon="1.11128">
        <ele>416.15</ele>
        <time>2019-09-06T07:08:27Z</time>
      </trkpt>
      <trkpt lat="42.9705" lon="1.11096">
        <ele>415.88</ele>
        <time>2019-09-06T07:08:46Z</time>
      </trkpt>
      <trkpt lat="42.97049" lon="1.11094">
        <ele>415.88</ele>
        <time>2019-09-06T07:08:47Z</time>
      </trkpt>
      <trkpt lat="42.97035" lon="1.11061">
        <ele>411.55</ele>
        <time>2019-09-06T07:09:08Z</time>
      </trkpt>
      <trkpt lat="42.97035" lon="1.1106">
        <ele>413.86</ele>
        <time>2019-09-06T07:09:09Z</time>
      </trkpt>
      <trkpt lat="42.97034" lon="1.11059">
        <ele>415.03</ele>
        <time>2019-09-06T07:09:10Z</time>
      </trkpt>
      <trkpt lat="42.97033" lon="1.11056">
        <ele>415.78</ele>
        <time>2019-09-06T07:09:12Z</time>
      </trkpt>
      <trkpt lat="42.97015" lon="1.11012">
        <ele>416.38</ele>
        <time>2019-09-06T07:09:41Z</time>
      </trkpt>
      <trkpt lat="42.96997" lon="1.10987">
        <ele>416.27</ele>
        <time>2019-09-06T07:10:00Z</time>
      </trkpt>
      <trkpt lat="42.96989" lon="1.10963">
        <ele>416.24</ele>
        <time>2019-09-06T07:10:16Z</time>
      </trkpt>
      <trkpt lat="42.96989" lon="1.10961">
        <ele>416.27</ele>
        <time>2019-09-06T07:10:17Z</time>
      </trkpt>
      <trkpt lat="42.96981" lon="1.10945">
        <ele>416.32</ele>
        <time>2019-09-06T07:10:27Z</time>
      </trkpt>
      <trkpt lat="42.9698" lon="1.1094">
        <ele>416.41</ele>
        <time>2019-09-06T07:10:32Z</time>
      </trkpt>
      <trkpt lat="42.96979" lon="1.10938">
        <ele>416.42</ele>
        <time>2019-09-06T07:10:33Z</time>
      </trkpt>
      <trkpt lat="42.96978" lon="1.10937">
        <ele>416.42</ele>
        <time>2019-09-06T07:10:34Z</time>
      </trkpt>
      <trkpt lat="42.96977" lon="1.10935">
        <ele>416.4</ele>
        <time>2019-09-06T07:10:35Z</time>
      </trkpt>
      <trkpt lat="42.96976" lon="1.10935">
        <ele>416.35</ele>
        <time>2019-09-06T07:10:36Z</time>
      </trkpt>
      <trkpt lat="42.96975" lon="1.10934">
        <ele>416.31</ele>
        <time>2019-09-06T07:10:37Z</time>
      </trkpt>
      <trkpt lat="42.96974" lon="1.10934">
        <ele>416.27</ele>
        <time>2019-09-06T07:10:38Z</time>
      </trkpt>
      <trkpt lat="42.96973" lon="1.10935">
        <ele>416.26</ele>
        <time>2019-09-06T07:10:39Z</time>
      </trkpt>
      <trkpt lat="42.96971" lon="1.10935">
        <ele>416.25</ele>
        <time>2019-09-06T07:10:40Z</time>
      </trkpt>
      <trkpt lat="42.9697" lon="1.10935">
        <ele>416.24</ele>
        <time>2019-09-06T07:10:41Z</time>
      </trkpt>
      <trkpt lat="42.96947" lon="1.10945">
        <ele>415.91</ele>
        <time>2019-09-06T07:10:59Z</time>
      </trkpt>
      <trkpt lat="42.96936" lon="1.10926">
        <ele>416.85</ele>
        <time>2019-09-06T07:11:14Z</time>
      </trkpt>
      <trkpt lat="42.96919" lon="1.10882">
        <ele>416.93</ele>
        <time>2019-09-06T07:11:41Z</time>
      </trkpt>
      <trkpt lat="42.96902" lon="1.10851">
        <ele>417.16</ele>
        <time>2019-09-06T07:12:03Z</time>
      </trkpt>
      <trkpt lat="42.96879" lon="1.1082">
        <ele>417.5</ele>
        <time>2019-09-06T07:12:27Z</time>
      </trkpt>
      <trkpt lat="42.9686" lon="1.10793">
        <ele>417.71</ele>
        <time>2019-09-06T07:12:49Z</time>
      </trkpt>
      <trkpt lat="42.96839" lon="1.10764">
        <ele>418.04</ele>
        <time>2019-09-06T07:13:12Z</time>
      </trkpt>
      <trkpt lat="42.96816" lon="1.10734">
        <ele>418.25</ele>
        <time>2019-09-06T07:13:37Z</time>
      </trkpt>
      <trkpt lat="42.96787" lon="1.10697">
        <ele>418.84</ele>
        <time>2019-09-06T07:14:06Z</time>
      </trkpt>
      <trkpt lat="42.96773" lon="1.10671">
        <ele>419.02</ele>
        <time>2019-09-06T07:14:26Z</time>
      </trkpt>
      <trkpt lat="42.96746" lon="1.10633">
        <ele>418.91</ele>
        <time>2019-09-06T07:14:55Z</time>
      </trkpt>
      <trkpt lat="42.96715" lon="1.10598">
        <ele>419.11</ele>
        <time>2019-09-06T07:15:25Z</time>
      </trkpt>
      <trkpt lat="42.96692" lon="1.10565">
        <ele>419.26</ele>
        <time>2019-09-06T07:15:50Z</time>
      </trkpt>
      <trkpt lat="42.96668" lon="1.10529">
        <ele>419.6</ele>
        <time>2019-09-06T07:16:17Z</time>
      </trkpt>
      <trkpt lat="42.96643" lon="1.10492">
        <ele>419.69</ele>
        <time>2019-09-06T07:16:46Z</time>
      </trkpt>
      <trkpt lat="42.96617" lon="1.10455">
        <ele>419.98</ele>
        <time>2019-09-06T07:17:15Z</time>
      </trkpt>
      <trkpt lat="42.96606" lon="1.10416">
        <ele>420.31</ele>
        <time>2019-09-06T07:17:39Z</time>
      </trkpt>
      <trkpt lat="42.96596" lon="1.10381">
        <ele>420.57</ele>
        <time>2019-09-06T07:18:02Z</time>
      </trkpt>
      <trkpt lat="42.96583" lon="1.10351">
        <ele>420.79</ele>
        <time>2019-09-06T07:18:22Z</time>
      </trkpt>
      <trkpt lat="42.96572" lon="1.1033">
        <ele>421.54</ele>
        <time>2019-09-06T07:18:38Z</time>
      </trkpt>
      <trkpt lat="42.96552" lon="1.10333">
        <ele>421.31</ele>
        <time>2019-09-06T07:18:54Z</time>
      </trkpt>
      <trkpt lat="42.96536" lon="1.10347">
        <ele>420.18</ele>
        <time>2019-09-06T07:19:09Z</time>
      </trkpt>
      <trkpt lat="42.96534" lon="1.10348">
        <ele>420.1</ele>
        <time>2019-09-06T07:19:10Z</time>
      </trkpt>
      <trkpt lat="42.96533" lon="1.10349">
        <ele>420.02</ele>
        <time>2019-09-06T07:19:11Z</time>
      </trkpt>
      <trkpt lat="42.96531" lon="1.1035">
        <ele>419.94</ele>
        <time>2019-09-06T07:19:12Z</time>
      </trkpt>
      <trkpt lat="42.96512" lon="1.10355">
        <ele>419.01</ele>
        <time>2019-09-06T07:19:27Z</time>
      </trkpt>
      <trkpt lat="42.96504" lon="1.10355">
        <ele>418.74</ele>
        <time>2019-09-06T07:19:34Z</time>
      </trkpt>
      <trkpt lat="42.96499" lon="1.10353">
        <ele>418.72</ele>
        <time>2019-09-06T07:19:37Z</time>
      </trkpt>
      <trkpt lat="42.96484" lon="1.10341">
        <ele>418.64</ele>
        <time>2019-09-06T07:19:50Z</time>
      </trkpt>
      <trkpt lat="42.96483" lon="1.1034">
        <ele>418.64</ele>
        <time>2019-09-06T07:19:51Z</time>
      </trkpt>
      <trkpt lat="42.96475" lon="1.1033">
        <ele>418.81</ele>
        <time>2019-09-06T07:20:01Z</time>
      </trkpt>
      <trkpt lat="42.96474" lon="1.10328">
        <ele>418.93</ele>
        <time>2019-09-06T07:20:02Z</time>
      </trkpt>
      <trkpt lat="42.96472" lon="1.10325">
        <ele>419.05</ele>
        <time>2019-09-06T07:20:04Z</time>
      </trkpt>
      <trkpt lat="42.96466" lon="1.10315">
        <ele>419.06</ele>
        <time>2019-09-06T07:20:17Z</time>
      </trkpt>
      <trkpt lat="42.96462" lon="1.10297">
        <ele>419.64</ele>
        <time>2019-09-06T07:20:39Z</time>
      </trkpt>
      <trkpt lat="42.96452" lon="1.10287">
        <ele>420.44</ele>
        <time>2019-09-06T07:20:55Z</time>
      </trkpt>
      <trkpt lat="42.9645" lon="1.10287">
        <ele>420.64</ele>
        <time>2019-09-06T07:21:11Z</time>
      </trkpt>
      <trkpt lat="42.9645" lon="1.10285">
        <ele>420.64</ele>
        <time>2019-09-06T07:21:12Z</time>
      </trkpt>
      <trkpt lat="42.96449" lon="1.10282">
        <ele>420.59</ele>
        <time>2019-09-06T07:21:14Z</time>
      </trkpt>
      <trkpt lat="42.96439" lon="1.10266">
        <ele>420.48</ele>
        <time>2019-09-06T07:21:28Z</time>
      </trkpt>
      <trkpt lat="42.96435" lon="1.10262">
        <ele>418.78</ele>
        <time>2019-09-06T07:21:40Z</time>
      </trkpt>
      <trkpt lat="42.96432" lon="1.10262">
        <ele>418.78</ele>
        <time>2019-09-06T07:22:07Z</time>
      </trkpt>
      <trkpt lat="42.96435" lon="1.10266">
        <ele>418.6</ele>
        <time>2019-09-06T07:22:33Z</time>
      </trkpt>
      <trkpt lat="42.96444" lon="1.10271">
        <ele>420.39</ele>
        <time>2019-09-06T07:22:54Z</time>
      </trkpt>
      <trkpt lat="42.96449" lon="1.10261">
        <ele>420.78</ele>
        <time>2019-09-06T07:23:17Z</time>
      </trkpt>
      <trkpt lat="42.96447" lon="1.10255">
        <ele>420.87</ele>
        <time>2019-09-06T07:23:20Z</time>
      </trkpt>
      <trkpt lat="42.96446" lon="1.10252">
        <ele>420.88</ele>
        <time>2019-09-06T07:23:21Z</time>
      </trkpt>
      <trkpt lat="42.96445" lon="1.1025">
        <ele>420.89</ele>
        <time>2019-09-06T07:23:22Z</time>
      </trkpt>
      <trkpt lat="42.96438" lon="1.10234">
        <ele>421.03</ele>
        <time>2019-09-06T07:23:31Z</time>
      </trkpt>
      <trkpt lat="42.96437" lon="1.10233">
        <ele>421.03</ele>
        <time>2019-09-06T07:23:32Z</time>
      </trkpt>
      <trkpt lat="42.96433" lon="1.10229">
        <ele>421.15</ele>
        <time>2019-09-06T07:23:35Z</time>
      </trkpt>
      <trkpt lat="42.96423" lon="1.10219">
        <ele>421.6</ele>
        <time>2019-09-06T07:23:47Z</time>
      </trkpt>
      <trkpt lat="42.96421" lon="1.10217">
        <ele>421.83</ele>
        <time>2019-09-06T07:23:49Z</time>
      </trkpt>
      <trkpt lat="42.96404" lon="1.10196">
        <ele>421.67</ele>
        <time>2019-09-06T07:24:06Z</time>
      </trkpt>
      <trkpt lat="42.96399" lon="1.1019">
        <ele>421.67</ele>
        <time>2019-09-06T07:24:10Z</time>
      </trkpt>
      <trkpt lat="42.96398" lon="1.10188">
        <ele>421.67</ele>
        <time>2019-09-06T07:24:11Z</time>
      </trkpt>
      <trkpt lat="42.96397" lon="1.10187">
        <ele>421.67</ele>
        <time>2019-09-06T07:24:12Z</time>
      </trkpt>
      <trkpt lat="42.96385" lon="1.10171">
        <ele>421.76</ele>
        <time>2019-09-06T07:24:25Z</time>
      </trkpt>
      <trkpt lat="42.96381" lon="1.10168">
        <ele>421.76</ele>
        <time>2019-09-06T07:24:27Z</time>
      </trkpt>
      <trkpt lat="42.96376" lon="1.10164">
        <ele>421.76</ele>
        <time>2019-09-06T07:24:31Z</time>
      </trkpt>
      <trkpt lat="42.96364" lon="1.10154">
        <ele>421.76</ele>
        <time>2019-09-06T07:24:43Z</time>
      </trkpt>
      <trkpt lat="42.96349" lon="1.10137">
        <ele>421.98</ele>
        <time>2019-09-06T07:24:58Z</time>
      </trkpt>
      <trkpt lat="42.96348" lon="1.10136">
        <ele>421.98</ele>
        <time>2019-09-06T07:24:59Z</time>
      </trkpt>
      <trkpt lat="42.96346" lon="1.10135">
        <ele>421.98</ele>
        <time>2019-09-06T07:25:00Z</time>
      </trkpt>
      <trkpt lat="42.96337" lon="1.10112">
        <ele>422.05</ele>
        <time>2019-09-06T07:25:15Z</time>
      </trkpt>
      <trkpt lat="42.96332" lon="1.10079">
        <ele>422.06</ele>
        <time>2019-09-06T07:25:34Z</time>
      </trkpt>
      <trkpt lat="42.96331" lon="1.10057">
        <ele>422.49</ele>
        <time>2019-09-06T07:25:46Z</time>
      </trkpt>
      <trkpt lat="42.96331" lon="1.10035">
        <ele>422.56</ele>
        <time>2019-09-06T07:26:01Z</time>
      </trkpt>
      <trkpt lat="42.96328" lon="1.1">
        <ele>422.73</ele>
        <time>2019-09-06T07:26:18Z</time>
      </trkpt>
      <trkpt lat="42.96322" lon="1.09966">
        <ele>423</ele>
        <time>2019-09-06T07:26:37Z</time>
      </trkpt>
      <trkpt lat="42.96315" lon="1.09934">
        <ele>423.3</ele>
        <time>2019-09-06T07:26:56Z</time>
      </trkpt>
      <trkpt lat="42.96307" lon="1.09907">
        <ele>423.43</ele>
        <time>2019-09-06T07:27:15Z</time>
      </trkpt>
      <trkpt lat="42.96298" lon="1.09883">
        <ele>423.18</ele>
        <time>2019-09-06T07:27:36Z</time>
      </trkpt>
      <trkpt lat="42.96278" lon="1.09859">
        <ele>423.15</ele>
        <time>2019-09-06T07:27:57Z</time>
      </trkpt>
      <trkpt lat="42.96267" lon="1.09843">
        <ele>423.44</ele>
        <time>2019-09-06T07:28:06Z</time>
      </trkpt>
      <trkpt lat="42.96266" lon="1.09842">
        <ele>423.5</ele>
        <time>2019-09-06T07:28:07Z</time>
      </trkpt>
      <trkpt lat="42.96261" lon="1.09828">
        <ele>423.8</ele>
        <time>2019-09-06T07:28:15Z</time>
      </trkpt>
      <trkpt lat="42.96266" lon="1.09804">
        <ele>425.57</ele>
        <time>2019-09-06T07:28:31Z</time>
      </trkpt>
      <trkpt lat="42.96269" lon="1.09801">
        <ele>425.79</ele>
        <time>2019-09-06T07:28:34Z</time>
      </trkpt>
      <trkpt lat="42.96279" lon="1.09787">
        <ele>426.37</ele>
        <time>2019-09-06T07:28:46Z</time>
      </trkpt>
      <trkpt lat="42.9628" lon="1.09785">
        <ele>426.38</ele>
        <time>2019-09-06T07:28:47Z</time>
      </trkpt>
      <trkpt lat="42.96281" lon="1.09784">
        <ele>426.4</ele>
        <time>2019-09-06T07:28:48Z</time>
      </trkpt>
      <trkpt lat="42.96299" lon="1.09756">
        <ele>426.61</ele>
        <time>2019-09-06T07:29:07Z</time>
      </trkpt>
      <trkpt lat="42.96314" lon="1.09732">
        <ele>426.69</ele>
        <time>2019-09-06T07:29:25Z</time>
      </trkpt>
      <trkpt lat="42.9633" lon="1.09703">
        <ele>426.81</ele>
        <time>2019-09-06T07:29:45Z</time>
      </trkpt>
      <trkpt lat="42.96345" lon="1.0968">
        <ele>426.9</ele>
        <time>2019-09-06T07:30:03Z</time>
      </trkpt>
      <trkpt lat="42.96356" lon="1.09664">
        <ele>427.25</ele>
        <time>2019-09-06T07:30:15Z</time>
      </trkpt>
      <trkpt lat="42.96356" lon="1.09662">
        <ele>427.29</ele>
        <time>2019-09-06T07:30:16Z</time>
      </trkpt>
      <trkpt lat="42.96356" lon="1.0966">
        <ele>427.33</ele>
        <time>2019-09-06T07:30:17Z</time>
      </trkpt>
      <trkpt lat="42.96345" lon="1.09638">
        <ele>427.68</ele>
        <time>2019-09-06T07:30:33Z</time>
      </trkpt>
      <trkpt lat="42.96339" lon="1.09621">
        <ele>427.88</ele>
        <time>2019-09-06T07:30:47Z</time>
      </trkpt>
      <trkpt lat="42.96338" lon="1.09594">
        <ele>428.04</ele>
        <time>2019-09-06T07:31:04Z</time>
      </trkpt>
      <trkpt lat="42.96339" lon="1.09589">
        <ele>428.3</ele>
        <time>2019-09-06T07:31:06Z</time>
      </trkpt>
      <trkpt lat="42.96342" lon="1.09575">
        <ele>428.53</ele>
        <time>2019-09-06T07:31:14Z</time>
      </trkpt>
      <trkpt lat="42.96342" lon="1.09573">
        <ele>428.54</ele>
        <time>2019-09-06T07:31:15Z</time>
      </trkpt>
      <trkpt lat="42.9634" lon="1.09562">
        <ele>428.54</ele>
        <time>2019-09-06T07:31:23Z</time>
      </trkpt>
      <trkpt lat="42.96339" lon="1.09558">
        <ele>428.51</ele>
        <time>2019-09-06T07:31:25Z</time>
      </trkpt>
      <trkpt lat="42.96331" lon="1.09549">
        <ele>428.54</ele>
        <time>2019-09-06T07:31:32Z</time>
      </trkpt>
      <trkpt lat="42.96328" lon="1.09543">
        <ele>428.72</ele>
        <time>2019-09-06T07:31:36Z</time>
      </trkpt>
      <trkpt lat="42.96309" lon="1.09517">
        <ele>429.25</ele>
        <time>2019-09-06T07:31:56Z</time>
      </trkpt>
      <trkpt lat="42.96304" lon="1.09508">
        <ele>429.77</ele>
        <time>2019-09-06T07:32:08Z</time>
      </trkpt>
      <trkpt lat="42.963" lon="1.09501">
        <ele>429.97</ele>
        <time>2019-09-06T07:32:15Z</time>
      </trkpt>
      <trkpt lat="42.96299" lon="1.09499">
        <ele>429.98</ele>
        <time>2019-09-06T07:32:16Z</time>
      </trkpt>
      <trkpt lat="42.96298" lon="1.09497">
        <ele>429.98</ele>
        <time>2019-09-06T07:32:17Z</time>
      </trkpt>
      <trkpt lat="42.96295" lon="1.09493">
        <ele>429.98</ele>
        <time>2019-09-06T07:32:19Z</time>
      </trkpt>
      <trkpt lat="42.96277" lon="1.0946">
        <ele>430.11</ele>
        <time>2019-09-06T07:32:36Z</time>
      </trkpt>
      <trkpt lat="42.96268" lon="1.0943">
        <ele>430.22</ele>
        <time>2019-09-06T07:32:52Z</time>
      </trkpt>
      <trkpt lat="42.96258" lon="1.09403">
        <ele>430.57</ele>
        <time>2019-09-06T07:33:11Z</time>
      </trkpt>
      <trkpt lat="42.96257" lon="1.09398">
        <ele>430.6</ele>
        <time>2019-09-06T07:33:14Z</time>
      </trkpt>
      <trkpt lat="42.96257" lon="1.09386">
        <ele>430.64</ele>
        <time>2019-09-06T07:33:21Z</time>
      </trkpt>
      <trkpt lat="42.96257" lon="1.09384">
        <ele>430.65</ele>
        <time>2019-09-06T07:33:22Z</time>
      </trkpt>
      <trkpt lat="42.96258" lon="1.09383">
        <ele>430.66</ele>
        <time>2019-09-06T07:33:23Z</time>
      </trkpt>
      <trkpt lat="42.96258" lon="1.09381">
        <ele>430.69</ele>
        <time>2019-09-06T07:33:24Z</time>
      </trkpt>
      <trkpt lat="42.96259" lon="1.0938">
        <ele>430.73</ele>
        <time>2019-09-06T07:33:25Z</time>
      </trkpt>
      <trkpt lat="42.96274" lon="1.09362">
        <ele>431.04</ele>
        <time>2019-09-06T07:33:41Z</time>
      </trkpt>
      <trkpt lat="42.96294" lon="1.0934">
        <ele>430.89</ele>
        <time>2019-09-06T07:34:01Z</time>
      </trkpt>
      <trkpt lat="42.96298" lon="1.09328">
        <ele>431.17</ele>
        <time>2019-09-06T07:34:09Z</time>
      </trkpt>
      <trkpt lat="42.9629" lon="1.09318">
        <ele>431.97</ele>
        <time>2019-09-06T07:34:20Z</time>
      </trkpt>
      <trkpt lat="42.9628" lon="1.09311">
        <ele>431.36</ele>
        <time>2019-09-06T07:34:33Z</time>
      </trkpt>
      <trkpt lat="42.96265" lon="1.09297">
        <ele>432</ele>
        <time>2019-09-06T07:34:47Z</time>
      </trkpt>
      <trkpt lat="42.96262" lon="1.09293">
        <ele>432.01</ele>
        <time>2019-09-06T07:34:50Z</time>
      </trkpt>
      <trkpt lat="42.9626" lon="1.09292">
        <ele>432.04</ele>
        <time>2019-09-06T07:34:51Z</time>
      </trkpt>
      <trkpt lat="42.96254" lon="1.09286">
        <ele>432.15</ele>
        <time>2019-09-06T07:34:57Z</time>
      </trkpt>
      <trkpt lat="42.96237" lon="1.09274">
        <ele>432.34</ele>
        <time>2019-09-06T07:35:11Z</time>
      </trkpt>
      <trkpt lat="42.96229" lon="1.09269">
        <ele>432.34</ele>
        <time>2019-09-06T07:35:19Z</time>
      </trkpt>
      <trkpt lat="42.96227" lon="1.09266">
        <ele>432.15</ele>
        <time>2019-09-06T07:35:21Z</time>
      </trkpt>
      <trkpt lat="42.96225" lon="1.09263">
        <ele>432.02</ele>
        <time>2019-09-06T07:35:23Z</time>
      </trkpt>
      <trkpt lat="42.96215" lon="1.09252">
        <ele>432.14</ele>
        <time>2019-09-06T07:35:32Z</time>
      </trkpt>
      <trkpt lat="42.96214" lon="1.0925">
        <ele>432.06</ele>
        <time>2019-09-06T07:35:33Z</time>
      </trkpt>
      <trkpt lat="42.96213" lon="1.09248">
        <ele>431.97</ele>
        <time>2019-09-06T07:35:34Z</time>
      </trkpt>
      <trkpt lat="42.96213" lon="1.09246">
        <ele>431.88</ele>
        <time>2019-09-06T07:35:35Z</time>
      </trkpt>
      <trkpt lat="42.96207" lon="1.09237">
        <ele>431.61</ele>
        <time>2019-09-06T07:35:41Z</time>
      </trkpt>
      <trkpt lat="42.96206" lon="1.09236">
        <ele>431.59</ele>
        <time>2019-09-06T07:35:42Z</time>
      </trkpt>
      <trkpt lat="42.96192" lon="1.09213">
        <ele>431.6</ele>
        <time>2019-09-06T07:36:00Z</time>
      </trkpt>
      <trkpt lat="42.96181" lon="1.09191">
        <ele>431.74</ele>
        <time>2019-09-06T07:36:16Z</time>
      </trkpt>
      <trkpt lat="42.96172" lon="1.09168">
        <ele>432.33</ele>
        <time>2019-09-06T07:36:33Z</time>
      </trkpt>
      <trkpt lat="42.96158" lon="1.09144">
        <ele>432.94</ele>
        <time>2019-09-06T07:36:55Z</time>
      </trkpt>
      <trkpt lat="42.96149" lon="1.09116">
        <ele>433.4</ele>
        <time>2019-09-06T07:37:11Z</time>
      </trkpt>
      <trkpt lat="42.96145" lon="1.0911">
        <ele>433.34</ele>
        <time>2019-09-06T07:37:17Z</time>
      </trkpt>
      <trkpt lat="42.96131" lon="1.0908">
        <ele>432.42</ele>
        <time>2019-09-06T07:37:34Z</time>
      </trkpt>
      <trkpt lat="42.96127" lon="1.09051">
        <ele>432.02</ele>
        <time>2019-09-06T07:37:55Z</time>
      </trkpt>
      <trkpt lat="42.96124" lon="1.09015">
        <ele>431.63</ele>
        <time>2019-09-06T07:38:16Z</time>
      </trkpt>
      <trkpt lat="42.96119" lon="1.08981">
        <ele>431.28</ele>
        <time>2019-09-06T07:38:33Z</time>
      </trkpt>
      <trkpt lat="42.96121" lon="1.08965">
        <ele>431.44</ele>
        <time>2019-09-06T07:38:41Z</time>
      </trkpt>
      <trkpt lat="42.96112" lon="1.08938">
        <ele>431.41</ele>
        <time>2019-09-06T07:38:54Z</time>
      </trkpt>
      <trkpt lat="42.96112" lon="1.08935">
        <ele>431.41</ele>
        <time>2019-09-06T07:38:55Z</time>
      </trkpt>
      <trkpt lat="42.96111" lon="1.08932">
        <ele>431.41</ele>
        <time>2019-09-06T07:38:56Z</time>
      </trkpt>
      <trkpt lat="42.9611" lon="1.0893">
        <ele>431.42</ele>
        <time>2019-09-06T07:38:57Z</time>
      </trkpt>
      <trkpt lat="42.96104" lon="1.08895">
        <ele>431.73</ele>
        <time>2019-09-06T07:39:14Z</time>
      </trkpt>
      <trkpt lat="42.96107" lon="1.08866">
        <ele>432.36</ele>
        <time>2019-09-06T07:39:32Z</time>
      </trkpt>
      <trkpt lat="42.96111" lon="1.08835">
        <ele>432.89</ele>
        <time>2019-09-06T07:39:50Z</time>
      </trkpt>
      <trkpt lat="42.96112" lon="1.08804">
        <ele>434.01</ele>
        <time>2019-09-06T07:40:07Z</time>
      </trkpt>
      <trkpt lat="42.96105" lon="1.08779">
        <ele>434.26</ele>
        <time>2019-09-06T07:40:24Z</time>
      </trkpt>
      <trkpt lat="42.96102" lon="1.08774">
        <ele>434.31</ele>
        <time>2019-09-06T07:40:31Z</time>
      </trkpt>
      <trkpt lat="42.96101" lon="1.08773">
        <ele>434.32</ele>
        <time>2019-09-06T07:40:32Z</time>
      </trkpt>
      <trkpt lat="42.961" lon="1.08771">
        <ele>434.35</ele>
        <time>2019-09-06T07:40:33Z</time>
      </trkpt>
      <trkpt lat="42.961" lon="1.0877">
        <ele>434.35</ele>
        <time>2019-09-06T07:40:34Z</time>
      </trkpt>
      <trkpt lat="42.96086" lon="1.08747">
        <ele>433.34</ele>
        <time>2019-09-06T07:40:50Z</time>
      </trkpt>
      <trkpt lat="42.96067" lon="1.08722">
        <ele>432.74</ele>
        <time>2019-09-06T07:41:11Z</time>
      </trkpt>
      <trkpt lat="42.96051" lon="1.08705">
        <ele>432.86</ele>
        <time>2019-09-06T07:41:27Z</time>
      </trkpt>
      <trkpt lat="42.96032" lon="1.08695">
        <ele>432.13</ele>
        <time>2019-09-06T07:41:42Z</time>
      </trkpt>
      <trkpt lat="42.96031" lon="1.08695">
        <ele>432</ele>
        <time>2019-09-06T07:41:43Z</time>
      </trkpt>
      <trkpt lat="42.9603" lon="1.08694">
        <ele>431.85</ele>
        <time>2019-09-06T07:41:44Z</time>
      </trkpt>
      <trkpt lat="42.9601" lon="1.08691">
        <ele>431.74</ele>
        <time>2019-09-06T07:42:01Z</time>
      </trkpt>
      <trkpt lat="42.96008" lon="1.0869">
        <ele>431.74</ele>
        <time>2019-09-06T07:42:02Z</time>
      </trkpt>
      <trkpt lat="42.9599" lon="1.08686">
        <ele>431.82</ele>
        <time>2019-09-06T07:42:16Z</time>
      </trkpt>
      <trkpt lat="42.95977" lon="1.08684">
        <ele>432.03</ele>
        <time>2019-09-06T07:42:26Z</time>
      </trkpt>
      <trkpt lat="42.95957" lon="1.08678">
        <ele>431.94</ele>
        <time>2019-09-06T07:42:43Z</time>
      </trkpt>
      <trkpt lat="42.95933" lon="1.08667">
        <ele>432.46</ele>
        <time>2019-09-06T07:43:00Z</time>
      </trkpt>
      <trkpt lat="42.95919" lon="1.08658">
        <ele>432.95</ele>
        <time>2019-09-06T07:43:11Z</time>
      </trkpt>
      <trkpt lat="42.95897" lon="1.0864">
        <ele>433.55</ele>
        <time>2019-09-06T07:43:29Z</time>
      </trkpt>
      <trkpt lat="42.95883" lon="1.08623">
        <ele>433.87</ele>
        <time>2019-09-06T07:43:42Z</time>
      </trkpt>
      <trkpt lat="42.95882" lon="1.08622">
        <ele>433.8</ele>
        <time>2019-09-06T07:43:43Z</time>
      </trkpt>
      <trkpt lat="42.95877" lon="1.086">
        <ele>433.77</ele>
        <time>2019-09-06T07:43:56Z</time>
      </trkpt>
      <trkpt lat="42.95876" lon="1.08598">
        <ele>433.78</ele>
        <time>2019-09-06T07:43:57Z</time>
      </trkpt>
      <trkpt lat="42.95884" lon="1.08563">
        <ele>434.07</ele>
        <time>2019-09-06T07:44:16Z</time>
      </trkpt>
      <trkpt lat="42.95894" lon="1.08531">
        <ele>434.09</ele>
        <time>2019-09-06T07:44:37Z</time>
      </trkpt>
      <trkpt lat="42.95903" lon="1.08498">
        <ele>434.31</ele>
        <time>2019-09-06T07:44:56Z</time>
      </trkpt>
      <trkpt lat="42.95907" lon="1.08469">
        <ele>435.09</ele>
        <time>2019-09-06T07:45:13Z</time>
      </trkpt>
      <trkpt lat="42.95897" lon="1.08445">
        <ele>435.22</ele>
        <time>2019-09-06T07:45:30Z</time>
      </trkpt>
      <trkpt lat="42.95885" lon="1.08424">
        <ele>435.6</ele>
        <time>2019-09-06T07:45:46Z</time>
      </trkpt>
      <trkpt lat="42.95877" lon="1.08406">
        <ele>435.78</ele>
        <time>2019-09-06T07:46:00Z</time>
      </trkpt>
      <trkpt lat="42.95864" lon="1.08383">
        <ele>436.47</ele>
        <time>2019-09-06T07:46:18Z</time>
      </trkpt>
      <trkpt lat="42.95846" lon="1.08357">
        <ele>437.09</ele>
        <time>2019-09-06T07:46:39Z</time>
      </trkpt>
      <trkpt lat="42.9583" lon="1.08338">
        <ele>437.32</ele>
        <time>2019-09-06T07:46:55Z</time>
      </trkpt>
      <trkpt lat="42.95817" lon="1.0832">
        <ele>437.14</ele>
        <time>2019-09-06T07:47:12Z</time>
      </trkpt>
      <trkpt lat="42.95815" lon="1.08318">
        <ele>437.88</ele>
        <time>2019-09-06T07:47:28Z</time>
      </trkpt>
      <trkpt lat="42.95814" lon="1.08317">
        <ele>437.88</ele>
        <time>2019-09-06T07:47:59Z</time>
      </trkpt>
      <trkpt lat="42.95812" lon="1.08318">
        <ele>437.88</ele>
        <time>2019-09-06T07:48:49Z</time>
      </trkpt>
      <trkpt lat="42.95807" lon="1.08313">
        <ele>437.88</ele>
        <time>2019-09-06T07:49:09Z</time>
      </trkpt>
      <trkpt lat="42.95806" lon="1.08311">
        <ele>437.88</ele>
        <time>2019-09-06T07:49:10Z</time>
      </trkpt>
      <trkpt lat="42.95805" lon="1.0831">
        <ele>437.88</ele>
        <time>2019-09-06T07:49:11Z</time>
      </trkpt>
      <trkpt lat="42.95789" lon="1.08288">
        <ele>438.15</ele>
        <time>2019-09-06T07:49:30Z</time>
      </trkpt>
      <trkpt lat="42.95766" lon="1.08263">
        <ele>438.16</ele>
        <time>2019-09-06T07:49:53Z</time>
      </trkpt>
      <trkpt lat="42.95742" lon="1.08238">
        <ele>438.79</ele>
        <time>2019-09-06T07:50:17Z</time>
      </trkpt>
      <trkpt lat="42.95716" lon="1.08209">
        <ele>439.21</ele>
        <time>2019-09-06T07:50:43Z</time>
      </trkpt>
      <trkpt lat="42.95697" lon="1.0818">
        <ele>439.49</ele>
        <time>2019-09-06T07:51:07Z</time>
      </trkpt>
      <trkpt lat="42.95691" lon="1.08155">
        <ele>439.95</ele>
        <time>2019-09-06T07:51:23Z</time>
      </trkpt>
      <trkpt lat="42.95681" lon="1.08125">
        <ele>440.26</ele>
        <time>2019-09-06T07:51:42Z</time>
      </trkpt>
      <trkpt lat="42.9567" lon="1.08101">
        <ele>440.41</ele>
        <time>2019-09-06T07:51:59Z</time>
      </trkpt>
      <trkpt lat="42.95669" lon="1.08089">
        <ele>440.78</ele>
        <time>2019-09-06T07:52:13Z</time>
      </trkpt>
      <trkpt lat="42.95672" lon="1.08084">
        <ele>441.8</ele>
        <time>2019-09-06T07:52:35Z</time>
      </trkpt>
      <trkpt lat="42.95669" lon="1.08079">
        <ele>441.62</ele>
        <time>2019-09-06T07:53:00Z</time>
      </trkpt>
      <trkpt lat="42.95662" lon="1.08065">
        <ele>441.99</ele>
        <time>2019-09-06T07:53:15Z</time>
      </trkpt>
      <trkpt lat="42.95648" lon="1.08048">
        <ele>443.42</ele>
        <time>2019-09-06T07:53:33Z</time>
      </trkpt>
      <trkpt lat="42.9564" lon="1.08032">
        <ele>445.26</ele>
        <time>2019-09-06T07:53:49Z</time>
      </trkpt>
      <trkpt lat="42.95638" lon="1.08009">
        <ele>448.55</ele>
        <time>2019-09-06T07:54:08Z</time>
      </trkpt>
      <trkpt lat="42.95636" lon="1.07992">
        <ele>451.68</ele>
        <time>2019-09-06T07:54:24Z</time>
      </trkpt>
      <trkpt lat="42.95635" lon="1.07981">
        <ele>454.47</ele>
        <time>2019-09-06T07:54:41Z</time>
      </trkpt>
      <trkpt lat="42.95627" lon="1.07971">
        <ele>457.47</ele>
        <time>2019-09-06T07:54:56Z</time>
      </trkpt>
      <trkpt lat="42.95615" lon="1.07952">
        <ele>460.47</ele>
        <time>2019-09-06T07:55:14Z</time>
      </trkpt>
      <trkpt lat="42.9561" lon="1.07932">
        <ele>462.56</ele>
        <time>2019-09-06T07:55:31Z</time>
      </trkpt>
      <trkpt lat="42.95604" lon="1.07916">
        <ele>462.24</ele>
        <time>2019-09-06T07:55:48Z</time>
      </trkpt>
      <trkpt lat="42.95593" lon="1.07911">
        <ele>460.97</ele>
        <time>2019-09-06T07:55:54Z</time>
      </trkpt>
      <trkpt lat="42.95586" lon="1.07901">
        <ele>459.11</ele>
        <time>2019-09-06T07:56:06Z</time>
      </trkpt>
      <trkpt lat="42.95577" lon="1.07881">
        <ele>458.01</ele>
        <time>2019-09-06T07:56:24Z</time>
      </trkpt>
      <trkpt lat="42.95568" lon="1.07859">
        <ele>457.86</ele>
        <time>2019-09-06T07:56:37Z</time>
      </trkpt>
      <trkpt lat="42.95566" lon="1.07832">
        <ele>459.59</ele>
        <time>2019-09-06T07:56:55Z</time>
      </trkpt>
      <trkpt lat="42.95567" lon="1.07815">
        <ele>461.25</ele>
        <time>2019-09-06T07:57:16Z</time>
      </trkpt>
      <trkpt lat="42.95569" lon="1.07811">
        <ele>460.98</ele>
        <time>2019-09-06T07:57:42Z</time>
      </trkpt>
      <trkpt lat="42.95569" lon="1.0781">
        <ele>460.85</ele>
        <time>2019-09-06T07:58:05Z</time>
      </trkpt>
      <trkpt lat="42.95568" lon="1.07809">
        <ele>460.6</ele>
        <time>2019-09-06T07:58:36Z</time>
      </trkpt>
      <trkpt lat="42.95569" lon="1.07787">
        <ele>461.44</ele>
        <time>2019-09-06T07:58:51Z</time>
      </trkpt>
      <trkpt lat="42.95573" lon="1.07763">
        <ele>463.79</ele>
        <time>2019-09-06T07:59:08Z</time>
      </trkpt>
      <trkpt lat="42.95573" lon="1.07758">
        <ele>464.13</ele>
        <time>2019-09-06T07:59:10Z</time>
      </trkpt>
      <trkpt lat="42.95573" lon="1.07749">
        <ele>464.68</ele>
        <time>2019-09-06T07:59:16Z</time>
      </trkpt>
      <trkpt lat="42.95575" lon="1.0773">
        <ele>466.54</ele>
        <time>2019-09-06T07:59:30Z</time>
      </trkpt>
      <trkpt lat="42.95572" lon="1.07718">
        <ele>468.16</ele>
        <time>2019-09-06T07:59:44Z</time>
      </trkpt>
      <trkpt lat="42.95574" lon="1.07693">
        <ele>470.32</ele>
        <time>2019-09-06T08:00:01Z</time>
      </trkpt>
      <trkpt lat="42.95572" lon="1.07669">
        <ele>472.39</ele>
        <time>2019-09-06T08:00:18Z</time>
      </trkpt>
      <trkpt lat="42.95566" lon="1.07651">
        <ele>474.04</ele>
        <time>2019-09-06T08:00:34Z</time>
      </trkpt>
      <trkpt lat="42.9556" lon="1.07645">
        <ele>475.5</ele>
        <time>2019-09-06T08:00:44Z</time>
      </trkpt>
      <trkpt lat="42.95553" lon="1.07651">
        <ele>475.73</ele>
        <time>2019-09-06T08:01:12Z</time>
      </trkpt>
      <trkpt lat="42.95559" lon="1.07637">
        <ele>475.53</ele>
        <time>2019-09-06T08:01:30Z</time>
      </trkpt>
      <trkpt lat="42.95555" lon="1.07617">
        <ele>475.6</ele>
        <time>2019-09-06T08:01:46Z</time>
      </trkpt>
      <trkpt lat="42.95554" lon="1.07616">
        <ele>475.79</ele>
        <time>2019-09-06T08:01:47Z</time>
      </trkpt>
      <trkpt lat="42.95552" lon="1.07612">
        <ele>476.34</ele>
        <time>2019-09-06T08:01:51Z</time>
      </trkpt>
      <trkpt lat="42.9555" lon="1.07607">
        <ele>477</ele>
        <time>2019-09-06T08:01:57Z</time>
      </trkpt>
      <trkpt lat="42.95549" lon="1.07605">
        <ele>477.03</ele>
        <time>2019-09-06T08:01:58Z</time>
      </trkpt>
      <trkpt lat="42.95548" lon="1.07602">
        <ele>477.03</ele>
        <time>2019-09-06T08:01:59Z</time>
      </trkpt>
      <trkpt lat="42.95543" lon="1.07596">
        <ele>477.23</ele>
        <time>2019-09-06T08:02:05Z</time>
      </trkpt>
      <trkpt lat="42.95528" lon="1.07585">
        <ele>477.6</ele>
        <time>2019-09-06T08:02:21Z</time>
      </trkpt>
      <trkpt lat="42.95513" lon="1.07568">
        <ele>478.11</ele>
        <time>2019-09-06T08:02:36Z</time>
      </trkpt>
      <trkpt lat="42.95501" lon="1.07549">
        <ele>478.37</ele>
        <time>2019-09-06T08:02:50Z</time>
      </trkpt>
      <trkpt lat="42.95486" lon="1.07536">
        <ele>478.1</ele>
        <time>2019-09-06T08:03:05Z</time>
      </trkpt>
      <trkpt lat="42.95471" lon="1.07516">
        <ele>477.74</ele>
        <time>2019-09-06T08:03:23Z</time>
      </trkpt>
      <trkpt lat="42.95457" lon="1.07501">
        <ele>478.44</ele>
        <time>2019-09-06T08:03:35Z</time>
      </trkpt>
      <trkpt lat="42.95451" lon="1.07496">
        <ele>478.72</ele>
        <time>2019-09-06T08:03:40Z</time>
      </trkpt>
      <trkpt lat="42.9545" lon="1.07494">
        <ele>478.72</ele>
        <time>2019-09-06T08:03:41Z</time>
      </trkpt>
      <trkpt lat="42.95425" lon="1.07473">
        <ele>477.76</ele>
        <time>2019-09-06T08:04:01Z</time>
      </trkpt>
      <trkpt lat="42.95414" lon="1.07456">
        <ele>477.05</ele>
        <time>2019-09-06T08:04:15Z</time>
      </trkpt>
      <trkpt lat="42.95395" lon="1.07422">
        <ele>476.36</ele>
        <time>2019-09-06T08:04:38Z</time>
      </trkpt>
      <trkpt lat="42.9539" lon="1.07396">
        <ele>476.11</ele>
        <time>2019-09-06T08:04:55Z</time>
      </trkpt>
      <trkpt lat="42.95388" lon="1.07394">
        <ele>476.21</ele>
        <time>2019-09-06T08:05:17Z</time>
      </trkpt>
      <trkpt lat="42.95385" lon="1.07386">
        <ele>476.21</ele>
        <time>2019-09-06T08:05:39Z</time>
      </trkpt>
      <trkpt lat="42.95385" lon="1.07382">
        <ele>476.21</ele>
        <time>2019-09-06T08:05:43Z</time>
      </trkpt>
      <trkpt lat="42.95384" lon="1.07377">
        <ele>476.21</ele>
        <time>2019-09-06T08:05:47Z</time>
      </trkpt>
      <trkpt lat="42.95383" lon="1.07375">
        <ele>476.23</ele>
        <time>2019-09-06T08:05:48Z</time>
      </trkpt>
      <trkpt lat="42.95367" lon="1.07343">
        <ele>477.05</ele>
        <time>2019-09-06T08:06:09Z</time>
      </trkpt>
      <trkpt lat="42.95345" lon="1.0732">
        <ele>476.61</ele>
        <time>2019-09-06T08:06:30Z</time>
      </trkpt>
      <trkpt lat="42.95326" lon="1.07297">
        <ele>476.75</ele>
        <time>2019-09-06T08:06:49Z</time>
      </trkpt>
      <trkpt lat="42.95309" lon="1.07272">
        <ele>476.91</ele>
        <time>2019-09-06T08:07:14Z</time>
      </trkpt>
      <trkpt lat="42.95308" lon="1.07274">
        <ele>477.03</ele>
        <time>2019-09-06T08:07:31Z</time>
      </trkpt>
      <trkpt lat="42.95308" lon="1.07275">
        <ele>478.4</ele>
        <time>2019-09-06T08:07:43Z</time>
      </trkpt>
      <trkpt lat="42.95308" lon="1.07275">
        <ele>476.38</ele>
        <time>2019-09-06T08:08:03Z</time>
      </trkpt>
      <trkpt lat="42.9531" lon="1.07277">
        <ele>476.21</ele>
        <time>2019-09-06T08:08:31Z</time>
      </trkpt>
      <trkpt lat="42.95308" lon="1.07277">
        <ele>476.52</ele>
        <time>2019-09-06T08:08:56Z</time>
      </trkpt>
      <trkpt lat="42.95307" lon="1.07276">
        <ele>476.55</ele>
        <time>2019-09-06T08:09:22Z</time>
      </trkpt>
      <trkpt lat="42.9531" lon="1.07275">
        <ele>476.55</ele>
        <time>2019-09-06T08:09:45Z</time>
      </trkpt>
      <trkpt lat="42.9531" lon="1.07274">
        <ele>476.55</ele>
        <time>2019-09-06T08:10:38Z</time>
      </trkpt>
      <trkpt lat="42.9531" lon="1.07274">
        <ele>476.55</ele>
        <time>2019-09-06T08:11:49Z</time>
      </trkpt>
      <trkpt lat="42.95311" lon="1.07275">
        <ele>476.55</ele>
        <time>2019-09-06T08:12:59Z</time>
      </trkpt>
      <trkpt lat="42.9531" lon="1.07276">
        <ele>476.55</ele>
        <time>2019-09-06T08:13:25Z</time>
      </trkpt>
      <trkpt lat="42.95309" lon="1.0728">
        <ele>476.55</ele>
        <time>2019-09-06T08:13:56Z</time>
      </trkpt>
      <trkpt lat="42.9531" lon="1.07279">
        <ele>476.55</ele>
        <time>2019-09-06T08:14:25Z</time>
      </trkpt>
      <trkpt lat="42.95307" lon="1.07278">
        <ele>476.55</ele>
        <time>2019-09-06T08:14:46Z</time>
      </trkpt>
      <trkpt lat="42.95309" lon="1.07281">
        <ele>476.55</ele>
        <time>2019-09-06T08:15:13Z</time>
      </trkpt>
      <trkpt lat="42.95304" lon="1.0728">
        <ele>476.55</ele>
        <time>2019-09-06T08:15:43Z</time>
      </trkpt>
      <trkpt lat="42.95306" lon="1.07279">
        <ele>476.55</ele>
        <time>2019-09-06T08:16:07Z</time>
      </trkpt>
      <trkpt lat="42.953" lon="1.07283">
        <ele>476.55</ele>
        <time>2019-09-06T08:16:21Z</time>
      </trkpt>
      <trkpt lat="42.95304" lon="1.07278">
        <ele>476.55</ele>
        <time>2019-09-06T08:16:39Z</time>
      </trkpt>
      <trkpt lat="42.95309" lon="1.07276">
        <ele>476.55</ele>
        <time>2019-09-06T08:17:08Z</time>
      </trkpt>
      <trkpt lat="42.9531" lon="1.07276">
        <ele>476.55</ele>
        <time>2019-09-06T08:17:43Z</time>
      </trkpt>
      <trkpt lat="42.9531" lon="1.07276">
        <ele>476.55</ele>
        <time>2019-09-06T08:18:24Z</time>
      </trkpt>
      <trkpt lat="42.95308" lon="1.07277">
        <ele>476.55</ele>
        <time>2019-09-06T08:18:44Z</time>
      </trkpt>
      <trkpt lat="42.9531" lon="1.07277">
        <ele>476.55</ele>
        <time>2019-09-06T08:19:08Z</time>
      </trkpt>
      <trkpt lat="42.95309" lon="1.07275">
        <ele>476.55</ele>
        <time>2019-09-06T08:19:29Z</time>
      </trkpt>
      <trkpt lat="42.95309" lon="1.07276">
        <ele>476.55</ele>
        <time>2019-09-06T08:20:03Z</time>
      </trkpt>
      <trkpt lat="42.95306" lon="1.07275">
        <ele>476.55</ele>
        <time>2019-09-06T08:20:07Z</time>
      </trkpt>
      <trkpt lat="42.95305" lon="1.07274">
        <ele>476.55</ele>
        <time>2019-09-06T08:20:08Z</time>
      </trkpt>
      <trkpt lat="42.95304" lon="1.07273">
        <ele>476.55</ele>
        <time>2019-09-06T08:20:09Z</time>
      </trkpt>
      <trkpt lat="42.95303" lon="1.07271">
        <ele>476.55</ele>
        <time>2019-09-06T08:20:10Z</time>
      </trkpt>
      <trkpt lat="42.95302" lon="1.0727">
        <ele>476.55</ele>
        <time>2019-09-06T08:20:11Z</time>
      </trkpt>
      <trkpt lat="42.95299" lon="1.07264">
        <ele>477.8</ele>
        <time>2019-09-06T08:20:16Z</time>
      </trkpt>
      <trkpt lat="42.95298" lon="1.07263">
        <ele>477.89</ele>
        <time>2019-09-06T08:20:17Z</time>
      </trkpt>
      <trkpt lat="42.95278" lon="1.07234">
        <ele>477.79</ele>
        <time>2019-09-06T08:20:39Z</time>
      </trkpt>
      <trkpt lat="42.95264" lon="1.07213">
        <ele>477.94</ele>
        <time>2019-09-06T08:20:56Z</time>
      </trkpt>
      <trkpt lat="42.95248" lon="1.07185">
        <ele>477.52</ele>
        <time>2019-09-06T08:21:15Z</time>
      </trkpt>
      <trkpt lat="42.9523" lon="1.07152">
        <ele>477.05</ele>
        <time>2019-09-06T08:21:36Z</time>
      </trkpt>
      <trkpt lat="42.95218" lon="1.07128">
        <ele>476.57</ele>
        <time>2019-09-06T08:21:54Z</time>
      </trkpt>
      <trkpt lat="42.95189" lon="1.07102">
        <ele>476.73</ele>
        <time>2019-09-06T08:22:19Z</time>
      </trkpt>
      <trkpt lat="42.95171" lon="1.07077">
        <ele>477.12</ele>
        <time>2019-09-06T08:22:40Z</time>
      </trkpt>
      <trkpt lat="42.95159" lon="1.07058">
        <ele>476.77</ele>
        <time>2019-09-06T08:22:54Z</time>
      </trkpt>
      <trkpt lat="42.95152" lon="1.07038">
        <ele>475.95</ele>
        <time>2019-09-06T08:23:10Z</time>
      </trkpt>
      <trkpt lat="42.95152" lon="1.0703">
        <ele>475.6</ele>
        <time>2019-09-06T08:23:16Z</time>
      </trkpt>
      <trkpt lat="42.95148" lon="1.07006">
        <ele>474.76</ele>
        <time>2019-09-06T08:23:31Z</time>
      </trkpt>
      <trkpt lat="42.95146" lon="1.06976">
        <ele>473.29</ele>
        <time>2019-09-06T08:23:50Z</time>
      </trkpt>
      <trkpt lat="42.95141" lon="1.06944">
        <ele>474.69</ele>
        <time>2019-09-06T08:24:09Z</time>
      </trkpt>
      <trkpt lat="42.95131" lon="1.06912">
        <ele>475.45</ele>
        <time>2019-09-06T08:24:27Z</time>
      </trkpt>
      <trkpt lat="42.95124" lon="1.06888">
        <ele>475.32</ele>
        <time>2019-09-06T08:24:41Z</time>
      </trkpt>
      <trkpt lat="42.95122" lon="1.06882">
        <ele>475.37</ele>
        <time>2019-09-06T08:24:44Z</time>
      </trkpt>
      <trkpt lat="42.95121" lon="1.06859">
        <ele>476.06</ele>
        <time>2019-09-06T08:24:59Z</time>
      </trkpt>
      <trkpt lat="42.9512" lon="1.06841">
        <ele>476.6</ele>
        <time>2019-09-06T08:25:11Z</time>
      </trkpt>
      <trkpt lat="42.95113" lon="1.06812">
        <ele>477.63</ele>
        <time>2019-09-06T08:25:29Z</time>
      </trkpt>
      <trkpt lat="42.95104" lon="1.06792">
        <ele>477.93</ele>
        <time>2019-09-06T08:25:40Z</time>
      </trkpt>
      <trkpt lat="42.95098" lon="1.06767">
        <ele>478.27</ele>
        <time>2019-09-06T08:25:57Z</time>
      </trkpt>
      <trkpt lat="42.95094" lon="1.06759">
        <ele>478.4</ele>
        <time>2019-09-06T08:26:02Z</time>
      </trkpt>
      <trkpt lat="42.95093" lon="1.06758">
        <ele>478.4</ele>
        <time>2019-09-06T08:26:03Z</time>
      </trkpt>
      <trkpt lat="42.95089" lon="1.0675">
        <ele>478.22</ele>
        <time>2019-09-06T08:26:07Z</time>
      </trkpt>
      <trkpt lat="42.95078" lon="1.06719">
        <ele>476.55</ele>
        <time>2019-09-06T08:26:24Z</time>
      </trkpt>
      <trkpt lat="42.95061" lon="1.06682">
        <ele>474.6</ele>
        <time>2019-09-06T08:26:46Z</time>
      </trkpt>
      <trkpt lat="42.9506" lon="1.0666">
        <ele>473.49</ele>
        <time>2019-09-06T08:27:01Z</time>
      </trkpt>
      <trkpt lat="42.95061" lon="1.06655">
        <ele>473.39</ele>
        <time>2019-09-06T08:27:04Z</time>
      </trkpt>
      <trkpt lat="42.95061" lon="1.06643">
        <ele>473</ele>
        <time>2019-09-06T08:27:10Z</time>
      </trkpt>
      <trkpt lat="42.95062" lon="1.06611">
        <ele>472.36</ele>
        <time>2019-09-06T08:27:26Z</time>
      </trkpt>
      <trkpt lat="42.95063" lon="1.0658">
        <ele>471.61</ele>
        <time>2019-09-06T08:27:44Z</time>
      </trkpt>
      <trkpt lat="42.95059" lon="1.06556">
        <ele>469.71</ele>
        <time>2019-09-06T08:28:00Z</time>
      </trkpt>
      <trkpt lat="42.95057" lon="1.06555">
        <ele>469.7</ele>
        <time>2019-09-06T08:28:01Z</time>
      </trkpt>
      <trkpt lat="42.95056" lon="1.06554">
        <ele>469.7</ele>
        <time>2019-09-06T08:28:02Z</time>
      </trkpt>
      <trkpt lat="42.95039" lon="1.06526">
        <ele>471.56</ele>
        <time>2019-09-06T08:28:22Z</time>
      </trkpt>
      <trkpt lat="42.95019" lon="1.06488">
        <ele>472.31</ele>
        <time>2019-09-06T08:28:48Z</time>
      </trkpt>
      <trkpt lat="42.95008" lon="1.06462">
        <ele>471.68</ele>
        <time>2019-09-06T08:29:06Z</time>
      </trkpt>
      <trkpt lat="42.95001" lon="1.06436">
        <ele>470.39</ele>
        <time>2019-09-06T08:29:22Z</time>
      </trkpt>
      <trkpt lat="42.94994" lon="1.06406">
        <ele>468.28</ele>
        <time>2019-09-06T08:29:39Z</time>
      </trkpt>
      <trkpt lat="42.94987" lon="1.06384">
        <ele>467.49</ele>
        <time>2019-09-06T08:29:54Z</time>
      </trkpt>
      <trkpt lat="42.94983" lon="1.06379">
        <ele>467.45</ele>
        <time>2019-09-06T08:29:57Z</time>
      </trkpt>
      <trkpt lat="42.94965" lon="1.0636">
        <ele>468.4</ele>
        <time>2019-09-06T08:30:16Z</time>
      </trkpt>
      <trkpt lat="42.94957" lon="1.06349">
        <ele>469.65</ele>
        <time>2019-09-06T08:30:27Z</time>
      </trkpt>
      <trkpt lat="42.9495" lon="1.06335">
        <ele>470.41</ele>
        <time>2019-09-06T08:30:37Z</time>
      </trkpt>
      <trkpt lat="42.94942" lon="1.06312">
        <ele>470.69</ele>
        <time>2019-09-06T08:30:51Z</time>
      </trkpt>
      <trkpt lat="42.94939" lon="1.06301">
        <ele>470.62</ele>
        <time>2019-09-06T08:30:57Z</time>
      </trkpt>
      <trkpt lat="42.94937" lon="1.06296">
        <ele>470.57</ele>
        <time>2019-09-06T08:31:00Z</time>
      </trkpt>
      <trkpt lat="42.94933" lon="1.0628">
        <ele>470.58</ele>
        <time>2019-09-06T08:31:12Z</time>
      </trkpt>
      <trkpt lat="42.94925" lon="1.06251">
        <ele>469.56</ele>
        <time>2019-09-06T08:31:31Z</time>
      </trkpt>
      <trkpt lat="42.94924" lon="1.06223">
        <ele>469.51</ele>
        <time>2019-09-06T08:31:46Z</time>
      </trkpt>
      <trkpt lat="42.94922" lon="1.06192">
        <ele>469.01</ele>
        <time>2019-09-06T08:32:02Z</time>
      </trkpt>
      <trkpt lat="42.94916" lon="1.06169">
        <ele>469.08</ele>
        <time>2019-09-06T08:32:16Z</time>
      </trkpt>
      <trkpt lat="42.94911" lon="1.0614">
        <ele>468.65</ele>
        <time>2019-09-06T08:32:36Z</time>
      </trkpt>
      <trkpt lat="42.94908" lon="1.06127">
        <ele>468.59</ele>
        <time>2019-09-06T08:32:43Z</time>
      </trkpt>
      <trkpt lat="42.949" lon="1.06102">
        <ele>468.69</ele>
        <time>2019-09-06T08:33:00Z</time>
      </trkpt>
      <trkpt lat="42.94894" lon="1.06074">
        <ele>469.53</ele>
        <time>2019-09-06T08:33:17Z</time>
      </trkpt>
      <trkpt lat="42.94894" lon="1.06046">
        <ele>470.78</ele>
        <time>2019-09-06T08:33:33Z</time>
      </trkpt>
      <trkpt lat="42.94896" lon="1.0602">
        <ele>471.07</ele>
        <time>2019-09-06T08:33:47Z</time>
      </trkpt>
      <trkpt lat="42.94898" lon="1.05996">
        <ele>471.28</ele>
        <time>2019-09-06T08:34:00Z</time>
      </trkpt>
      <trkpt lat="42.94898" lon="1.05991">
        <ele>471.21</ele>
        <time>2019-09-06T08:34:02Z</time>
      </trkpt>
      <trkpt lat="42.94898" lon="1.05989">
        <ele>471.21</ele>
        <time>2019-09-06T08:34:03Z</time>
      </trkpt>
      <trkpt lat="42.94898" lon="1.05987">
        <ele>471.24</ele>
        <time>2019-09-06T08:34:04Z</time>
      </trkpt>
      <trkpt lat="42.94898" lon="1.05985">
        <ele>471.24</ele>
        <time>2019-09-06T08:34:05Z</time>
      </trkpt>
      <trkpt lat="42.94899" lon="1.05972">
        <ele>471.22</ele>
        <time>2019-09-06T08:34:13Z</time>
      </trkpt>
      <trkpt lat="42.949" lon="1.0597">
        <ele>471.25</ele>
        <time>2019-09-06T08:34:14Z</time>
      </trkpt>
      <trkpt lat="42.949" lon="1.05969">
        <ele>471.26</ele>
        <time>2019-09-06T08:34:15Z</time>
      </trkpt>
      <trkpt lat="42.94901" lon="1.05967">
        <ele>471.28</ele>
        <time>2019-09-06T08:34:16Z</time>
      </trkpt>
      <trkpt lat="42.94901" lon="1.05966">
        <ele>471.3</ele>
        <time>2019-09-06T08:34:17Z</time>
      </trkpt>
      <trkpt lat="42.94903" lon="1.05958">
        <ele>471.61</ele>
        <time>2019-09-06T08:34:28Z</time>
      </trkpt>
      <trkpt lat="42.9492" lon="1.05935">
        <ele>471.58</ele>
        <time>2019-09-06T08:34:49Z</time>
      </trkpt>
      <trkpt lat="42.94928" lon="1.05922">
        <ele>470.66</ele>
        <time>2019-09-06T08:35:01Z</time>
      </trkpt>
      <trkpt lat="42.94929" lon="1.05921">
        <ele>470.58</ele>
        <time>2019-09-06T08:35:02Z</time>
      </trkpt>
      <trkpt lat="42.9493" lon="1.0592">
        <ele>470.51</ele>
        <time>2019-09-06T08:35:03Z</time>
      </trkpt>
      <trkpt lat="42.9493" lon="1.05918">
        <ele>470.46</ele>
        <time>2019-09-06T08:35:04Z</time>
      </trkpt>
      <trkpt lat="42.94931" lon="1.05916">
        <ele>470.43</ele>
        <time>2019-09-06T08:35:05Z</time>
      </trkpt>
      <trkpt lat="42.9494" lon="1.05891">
        <ele>468.64</ele>
        <time>2019-09-06T08:35:24Z</time>
      </trkpt>
      <trkpt lat="42.9494" lon="1.0589">
        <ele>468.41</ele>
        <time>2019-09-06T08:35:25Z</time>
      </trkpt>
      <trkpt lat="42.94935" lon="1.05893">
        <ele>467.01</ele>
        <time>2019-09-06T08:35:33Z</time>
      </trkpt>
      <trkpt lat="42.94923" lon="1.05912">
        <ele>465.46</ele>
        <time>2019-09-06T08:35:48Z</time>
      </trkpt>
      <trkpt lat="42.94906" lon="1.05924">
        <ele>463.85</ele>
        <time>2019-09-06T08:36:03Z</time>
      </trkpt>
      <trkpt lat="42.94898" lon="1.05924">
        <ele>463.47</ele>
        <time>2019-09-06T08:36:09Z</time>
      </trkpt>
      <trkpt lat="42.94897" lon="1.05925">
        <ele>463.4</ele>
        <time>2019-09-06T08:36:10Z</time>
      </trkpt>
      <trkpt lat="42.94876" lon="1.05926">
        <ele>462.33</ele>
        <time>2019-09-06T08:36:26Z</time>
      </trkpt>
      <trkpt lat="42.94863" lon="1.05923">
        <ele>461.59</ele>
        <time>2019-09-06T08:36:39Z</time>
      </trkpt>
      <trkpt lat="42.9485" lon="1.0591">
        <ele>461.2</ele>
        <time>2019-09-06T08:36:50Z</time>
      </trkpt>
      <trkpt lat="42.94837" lon="1.05889">
        <ele>461.54</ele>
        <time>2019-09-06T08:37:03Z</time>
      </trkpt>
      <trkpt lat="42.94831" lon="1.05872">
        <ele>461.65</ele>
        <time>2019-09-06T08:37:11Z</time>
      </trkpt>
      <trkpt lat="42.94829" lon="1.05865">
        <ele>461.64</ele>
        <time>2019-09-06T08:37:14Z</time>
      </trkpt>
      <trkpt lat="42.94828" lon="1.05863">
        <ele>461.61</ele>
        <time>2019-09-06T08:37:15Z</time>
      </trkpt>
      <trkpt lat="42.94823" lon="1.05846">
        <ele>461.65</ele>
        <time>2019-09-06T08:37:27Z</time>
      </trkpt>
      <trkpt lat="42.94823" lon="1.05844">
        <ele>461.64</ele>
        <time>2019-09-06T08:37:28Z</time>
      </trkpt>
      <trkpt lat="42.94823" lon="1.05843">
        <ele>461.63</ele>
        <time>2019-09-06T08:37:29Z</time>
      </trkpt>
      <trkpt lat="42.94819" lon="1.0583">
        <ele>461.58</ele>
        <time>2019-09-06T08:37:40Z</time>
      </trkpt>
      <trkpt lat="42.94812" lon="1.0582">
        <ele>461.92</ele>
        <time>2019-09-06T08:37:49Z</time>
      </trkpt>
      <trkpt lat="42.94809" lon="1.05817">
        <ele>462.64</ele>
        <time>2019-09-06T08:38:10Z</time>
      </trkpt>
      <trkpt lat="42.94806" lon="1.05804">
        <ele>462.64</ele>
        <time>2019-09-06T08:38:32Z</time>
      </trkpt>
      <trkpt lat="42.94805" lon="1.05801">
        <ele>462.55</ele>
        <time>2019-09-06T08:38:54Z</time>
      </trkpt>
      <trkpt lat="42.94806" lon="1.05802">
        <ele>462.55</ele>
        <time>2019-09-06T08:38:55Z</time>
      </trkpt>
      <trkpt lat="42.94809" lon="1.05819">
        <ele>462.39</ele>
        <time>2019-09-06T08:40:40Z</time>
      </trkpt>
      <trkpt lat="42.94809" lon="1.05815">
        <ele>462.43</ele>
        <time>2019-09-06T08:41:10Z</time>
      </trkpt>
      <trkpt lat="42.94812" lon="1.0582">
        <ele>462.38</ele>
        <time>2019-09-06T08:41:44Z</time>
      </trkpt>
      <trkpt lat="42.94812" lon="1.0582">
        <ele>462.38</ele>
        <time>2019-09-06T08:42:25Z</time>
      </trkpt>
      <trkpt lat="42.9481" lon="1.05811">
        <ele>462.38</ele>
        <time>2019-09-06T08:43:25Z</time>
      </trkpt>
      <trkpt lat="42.94803" lon="1.0582">
        <ele>462.38</ele>
        <time>2019-09-06T08:43:50Z</time>
      </trkpt>
      <trkpt lat="42.94806" lon="1.05821">
        <ele>462.38</ele>
        <time>2019-09-06T08:44:26Z</time>
      </trkpt>
      <trkpt lat="42.9481" lon="1.05822">
        <ele>462.38</ele>
        <time>2019-09-06T08:44:48Z</time>
      </trkpt>
      <trkpt lat="42.94811" lon="1.05831">
        <ele>462.38</ele>
        <time>2019-09-06T08:44:58Z</time>
      </trkpt>
      <trkpt lat="42.94812" lon="1.05832">
        <ele>462.36</ele>
        <time>2019-09-06T08:44:59Z</time>
      </trkpt>
      <trkpt lat="42.94812" lon="1.05834">
        <ele>462.11</ele>
        <time>2019-09-06T08:45:00Z</time>
      </trkpt>
      <trkpt lat="42.94813" lon="1.05835">
        <ele>462.11</ele>
        <time>2019-09-06T08:45:01Z</time>
      </trkpt>
      <trkpt lat="42.94815" lon="1.05836">
        <ele>461.61</ele>
        <time>2019-09-06T08:45:03Z</time>
      </trkpt>
      <trkpt lat="42.94818" lon="1.05841">
        <ele>461.32</ele>
        <time>2019-09-06T08:45:15Z</time>
      </trkpt>
      <trkpt lat="42.94817" lon="1.05837">
        <ele>461.32</ele>
        <time>2019-09-06T08:45:21Z</time>
      </trkpt>
      <trkpt lat="42.94816" lon="1.05836">
        <ele>461.33</ele>
        <time>2019-09-06T08:45:22Z</time>
      </trkpt>
      <trkpt lat="42.94815" lon="1.05834">
        <ele>461.34</ele>
        <time>2019-09-06T08:45:23Z</time>
      </trkpt>
      <trkpt lat="42.94815" lon="1.05833">
        <ele>461.36</ele>
        <time>2019-09-06T08:45:24Z</time>
      </trkpt>
      <trkpt lat="42.94814" lon="1.05831">
        <ele>461.39</ele>
        <time>2019-09-06T08:45:25Z</time>
      </trkpt>
      <trkpt lat="42.948" lon="1.05812">
        <ele>461.85</ele>
        <time>2019-09-06T08:45:40Z</time>
      </trkpt>
      <trkpt lat="42.9479" lon="1.05789">
        <ele>462.27</ele>
        <time>2019-09-06T08:45:54Z</time>
      </trkpt>
      <trkpt lat="42.94775" lon="1.0577">
        <ele>462.73</ele>
        <time>2019-09-06T08:46:10Z</time>
      </trkpt>
      <trkpt lat="42.94767" lon="1.0575">
        <ele>463.54</ele>
        <time>2019-09-06T08:46:26Z</time>
      </trkpt>
      <trkpt lat="42.94766" lon="1.05748">
        <ele>463.64</ele>
        <time>2019-09-06T08:46:27Z</time>
      </trkpt>
      <trkpt lat="42.94765" lon="1.05747">
        <ele>463.68</ele>
        <time>2019-09-06T08:46:28Z</time>
      </trkpt>
      <trkpt lat="42.94764" lon="1.05745">
        <ele>463.71</ele>
        <time>2019-09-06T08:46:29Z</time>
      </trkpt>
      <trkpt lat="42.94763" lon="1.05743">
        <ele>463.73</ele>
        <time>2019-09-06T08:46:30Z</time>
      </trkpt>
      <trkpt lat="42.94762" lon="1.05741">
        <ele>463.74</ele>
        <time>2019-09-06T08:46:31Z</time>
      </trkpt>
      <trkpt lat="42.94761" lon="1.05739">
        <ele>463.75</ele>
        <time>2019-09-06T08:46:32Z</time>
      </trkpt>
      <trkpt lat="42.94753" lon="1.0572">
        <ele>464.39</ele>
        <time>2019-09-06T08:46:44Z</time>
      </trkpt>
      <trkpt lat="42.94739" lon="1.05695">
        <ele>464.95</ele>
        <time>2019-09-06T08:47:01Z</time>
      </trkpt>
      <trkpt lat="42.9473" lon="1.0568">
        <ele>465.7</ele>
        <time>2019-09-06T08:47:18Z</time>
      </trkpt>
      <trkpt lat="42.94728" lon="1.05678">
        <ele>465.89</ele>
        <time>2019-09-06T08:47:30Z</time>
      </trkpt>
      <trkpt lat="42.94727" lon="1.05676">
        <ele>465.89</ele>
        <time>2019-09-06T08:47:31Z</time>
      </trkpt>
      <trkpt lat="42.94726" lon="1.05673">
        <ele>465.89</ele>
        <time>2019-09-06T08:47:33Z</time>
      </trkpt>
      <trkpt lat="42.94725" lon="1.05672">
        <ele>465.89</ele>
        <time>2019-09-06T08:47:34Z</time>
      </trkpt>
      <trkpt lat="42.94724" lon="1.0567">
        <ele>465.89</ele>
        <time>2019-09-06T08:47:35Z</time>
      </trkpt>
      <trkpt lat="42.94724" lon="1.05669">
        <ele>465.9</ele>
        <time>2019-09-06T08:47:36Z</time>
      </trkpt>
      <trkpt lat="42.94723" lon="1.05667">
        <ele>465.91</ele>
        <time>2019-09-06T08:47:37Z</time>
      </trkpt>
      <trkpt lat="42.94722" lon="1.05666">
        <ele>465.95</ele>
        <time>2019-09-06T08:47:38Z</time>
      </trkpt>
      <trkpt lat="42.94721" lon="1.05664">
        <ele>466</ele>
        <time>2019-09-06T08:47:39Z</time>
      </trkpt>
      <trkpt lat="42.9472" lon="1.05663">
        <ele>466.04</ele>
        <time>2019-09-06T08:47:40Z</time>
      </trkpt>
      <trkpt lat="42.94711" lon="1.05647">
        <ele>466.68</ele>
        <time>2019-09-06T08:47:52Z</time>
      </trkpt>
      <trkpt lat="42.94699" lon="1.05624">
        <ele>467.85</ele>
        <time>2019-09-06T08:48:08Z</time>
      </trkpt>
      <trkpt lat="42.94686" lon="1.05597">
        <ele>469.25</ele>
        <time>2019-09-06T08:48:27Z</time>
      </trkpt>
      <trkpt lat="42.9468" lon="1.05568">
        <ele>470.81</ele>
        <time>2019-09-06T08:48:45Z</time>
      </trkpt>
      <trkpt lat="42.94674" lon="1.05545">
        <ele>472.45</ele>
        <time>2019-09-06T08:49:04Z</time>
      </trkpt>
      <trkpt lat="42.94663" lon="1.05516">
        <ele>474.05</ele>
        <time>2019-09-06T08:49:23Z</time>
      </trkpt>
      <trkpt lat="42.94654" lon="1.05484">
        <ele>475.72</ele>
        <time>2019-09-06T08:49:41Z</time>
      </trkpt>
      <trkpt lat="42.94644" lon="1.05456">
        <ele>477.37</ele>
        <time>2019-09-06T08:49:58Z</time>
      </trkpt>
      <trkpt lat="42.94631" lon="1.05431">
        <ele>479.22</ele>
        <time>2019-09-06T08:50:17Z</time>
      </trkpt>
      <trkpt lat="42.94618" lon="1.0541">
        <ele>480.42</ele>
        <time>2019-09-06T08:50:34Z</time>
      </trkpt>
      <trkpt lat="42.94603" lon="1.05384">
        <ele>481.43</ele>
        <time>2019-09-06T08:50:52Z</time>
      </trkpt>
      <trkpt lat="42.94599" lon="1.0537">
        <ele>481.98</ele>
        <time>2019-09-06T08:51:01Z</time>
      </trkpt>
      <trkpt lat="42.94598" lon="1.05369">
        <ele>482.07</ele>
        <time>2019-09-06T08:51:02Z</time>
      </trkpt>
      <trkpt lat="42.94597" lon="1.05365">
        <ele>482.22</ele>
        <time>2019-09-06T08:51:04Z</time>
      </trkpt>
      <trkpt lat="42.94596" lon="1.05364">
        <ele>482.27</ele>
        <time>2019-09-06T08:51:05Z</time>
      </trkpt>
      <trkpt lat="42.94585" lon="1.05332">
        <ele>483.92</ele>
        <time>2019-09-06T08:51:24Z</time>
      </trkpt>
      <trkpt lat="42.94579" lon="1.05316">
        <ele>484.98</ele>
        <time>2019-09-06T08:51:34Z</time>
      </trkpt>
      <trkpt lat="42.94574" lon="1.053">
        <ele>486.36</ele>
        <time>2019-09-06T08:51:46Z</time>
      </trkpt>
      <trkpt lat="42.94573" lon="1.05299">
        <ele>486.46</ele>
        <time>2019-09-06T08:51:47Z</time>
      </trkpt>
      <trkpt lat="42.94567" lon="1.05274">
        <ele>488.78</ele>
        <time>2019-09-06T08:52:05Z</time>
      </trkpt>
      <trkpt lat="42.9456" lon="1.05254">
        <ele>490.46</ele>
        <time>2019-09-06T08:52:19Z</time>
      </trkpt>
      <trkpt lat="42.94558" lon="1.05247">
        <ele>490.91</ele>
        <time>2019-09-06T08:52:23Z</time>
      </trkpt>
      <trkpt lat="42.94551" lon="1.05221">
        <ele>492.97</ele>
        <time>2019-09-06T08:52:41Z</time>
      </trkpt>
      <trkpt lat="42.94548" lon="1.05192">
        <ele>494.16</ele>
        <time>2019-09-06T08:52:57Z</time>
      </trkpt>
      <trkpt lat="42.94548" lon="1.05184">
        <ele>494.56</ele>
        <time>2019-09-06T08:53:02Z</time>
      </trkpt>
      <trkpt lat="42.94548" lon="1.05182">
        <ele>494.61</ele>
        <time>2019-09-06T08:53:03Z</time>
      </trkpt>
      <trkpt lat="42.94551" lon="1.05163">
        <ele>495.4</ele>
        <time>2019-09-06T08:53:18Z</time>
      </trkpt>
      <trkpt lat="42.94549" lon="1.0514">
        <ele>496.48</ele>
        <time>2019-09-06T08:53:32Z</time>
      </trkpt>
      <trkpt lat="42.94548" lon="1.05136">
        <ele>496.6</ele>
        <time>2019-09-06T08:53:34Z</time>
      </trkpt>
      <trkpt lat="42.94543" lon="1.05117">
        <ele>497.44</ele>
        <time>2019-09-06T08:53:46Z</time>
      </trkpt>
      <trkpt lat="42.94534" lon="1.05096">
        <ele>498.5</ele>
        <time>2019-09-06T08:54:00Z</time>
      </trkpt>
      <trkpt lat="42.94533" lon="1.05095">
        <ele>498.56</ele>
        <time>2019-09-06T08:54:01Z</time>
      </trkpt>
      <trkpt lat="42.94519" lon="1.05069">
        <ele>500.01</ele>
        <time>2019-09-06T08:54:18Z</time>
      </trkpt>
      <trkpt lat="42.94505" lon="1.0504">
        <ele>502.36</ele>
        <time>2019-09-06T08:54:39Z</time>
      </trkpt>
      <trkpt lat="42.945" lon="1.05025">
        <ele>503.35</ele>
        <time>2019-09-06T08:54:50Z</time>
      </trkpt>
      <trkpt lat="42.94499" lon="1.05023">
        <ele>503.44</ele>
        <time>2019-09-06T08:54:51Z</time>
      </trkpt>
      <trkpt lat="42.94496" lon="1.05013">
        <ele>503.93</ele>
        <time>2019-09-06T08:54:57Z</time>
      </trkpt>
      <trkpt lat="42.94489" lon="1.04992">
        <ele>505</ele>
        <time>2019-09-06T08:55:10Z</time>
      </trkpt>
      <trkpt lat="42.94488" lon="1.04988">
        <ele>505.25</ele>
        <time>2019-09-06T08:55:12Z</time>
      </trkpt>
      <trkpt lat="42.94487" lon="1.04987">
        <ele>505.34</ele>
        <time>2019-09-06T08:55:13Z</time>
      </trkpt>
      <trkpt lat="42.94479" lon="1.04963">
        <ele>506.43</ele>
        <time>2019-09-06T08:55:29Z</time>
      </trkpt>
      <trkpt lat="42.94476" lon="1.04955">
        <ele>506.63</ele>
        <time>2019-09-06T08:55:34Z</time>
      </trkpt>
      <trkpt lat="42.94476" lon="1.04953">
        <ele>506.71</ele>
        <time>2019-09-06T08:55:35Z</time>
      </trkpt>
      <trkpt lat="42.94475" lon="1.04952">
        <ele>506.77</ele>
        <time>2019-09-06T08:55:36Z</time>
      </trkpt>
      <trkpt lat="42.94474" lon="1.0495">
        <ele>506.84</ele>
        <time>2019-09-06T08:55:37Z</time>
      </trkpt>
      <trkpt lat="42.94463" lon="1.04925">
        <ele>507.56</ele>
        <time>2019-09-06T08:55:54Z</time>
      </trkpt>
      <trkpt lat="42.94451" lon="1.04902">
        <ele>508.21</ele>
        <time>2019-09-06T08:56:10Z</time>
      </trkpt>
      <trkpt lat="42.94438" lon="1.04874">
        <ele>508.64</ele>
        <time>2019-09-06T08:56:27Z</time>
      </trkpt>
      <trkpt lat="42.94424" lon="1.04843">
        <ele>508.9</ele>
        <time>2019-09-06T08:56:48Z</time>
      </trkpt>
      <trkpt lat="42.94414" lon="1.04814">
        <ele>509.32</ele>
        <time>2019-09-06T08:57:07Z</time>
      </trkpt>
      <trkpt lat="42.94408" lon="1.04793">
        <ele>510.15</ele>
        <time>2019-09-06T08:57:22Z</time>
      </trkpt>
      <trkpt lat="42.94398" lon="1.04766">
        <ele>510.65</ele>
        <time>2019-09-06T08:57:39Z</time>
      </trkpt>
      <trkpt lat="42.94393" lon="1.04747">
        <ele>511.18</ele>
        <time>2019-09-06T08:57:51Z</time>
      </trkpt>
      <trkpt lat="42.94393" lon="1.04745">
        <ele>511.22</ele>
        <time>2019-09-06T08:57:52Z</time>
      </trkpt>
      <trkpt lat="42.94392" lon="1.04743">
        <ele>511.28</ele>
        <time>2019-09-06T08:57:53Z</time>
      </trkpt>
      <trkpt lat="42.94392" lon="1.0474">
        <ele>511.33</ele>
        <time>2019-09-06T08:57:54Z</time>
      </trkpt>
      <trkpt lat="42.94391" lon="1.04738">
        <ele>511.41</ele>
        <time>2019-09-06T08:57:55Z</time>
      </trkpt>
      <trkpt lat="42.94383" lon="1.04714">
        <ele>512.04</ele>
        <time>2019-09-06T08:58:10Z</time>
      </trkpt>
      <trkpt lat="42.94382" lon="1.04712">
        <ele>512.1</ele>
        <time>2019-09-06T08:58:11Z</time>
      </trkpt>
      <trkpt lat="42.94374" lon="1.04691">
        <ele>513.39</ele>
        <time>2019-09-06T08:58:28Z</time>
      </trkpt>
      <trkpt lat="42.94362" lon="1.04671">
        <ele>515.55</ele>
        <time>2019-09-06T08:58:45Z</time>
      </trkpt>
      <trkpt lat="42.94346" lon="1.04649">
        <ele>517.31</ele>
        <time>2019-09-06T08:59:03Z</time>
      </trkpt>
      <trkpt lat="42.94333" lon="1.04629">
        <ele>518.76</ele>
        <time>2019-09-06T08:59:19Z</time>
      </trkpt>
      <trkpt lat="42.94323" lon="1.04615">
        <ele>519.79</ele>
        <time>2019-09-06T08:59:30Z</time>
      </trkpt>
      <trkpt lat="42.9431" lon="1.0459">
        <ele>521.24</ele>
        <time>2019-09-06T08:59:48Z</time>
      </trkpt>
      <trkpt lat="42.943" lon="1.0457">
        <ele>521.8</ele>
        <time>2019-09-06T09:00:04Z</time>
      </trkpt>
      <trkpt lat="42.9429" lon="1.04553">
        <ele>522.26</ele>
        <time>2019-09-06T09:00:20Z</time>
      </trkpt>
      <trkpt lat="42.94283" lon="1.04537">
        <ele>522.69</ele>
        <time>2019-09-06T09:00:31Z</time>
      </trkpt>
      <trkpt lat="42.94282" lon="1.04536">
        <ele>522.73</ele>
        <time>2019-09-06T09:00:32Z</time>
      </trkpt>
      <trkpt lat="42.9427" lon="1.04509">
        <ele>523.29</ele>
        <time>2019-09-06T09:00:47Z</time>
      </trkpt>
      <trkpt lat="42.94262" lon="1.04488">
        <ele>523.91</ele>
        <time>2019-09-06T09:01:01Z</time>
      </trkpt>
      <trkpt lat="42.94262" lon="1.04487">
        <ele>523.98</ele>
        <time>2019-09-06T09:01:02Z</time>
      </trkpt>
      <trkpt lat="42.9425" lon="1.04462">
        <ele>524.7</ele>
        <time>2019-09-06T09:01:19Z</time>
      </trkpt>
      <trkpt lat="42.94239" lon="1.04434">
        <ele>525.7</ele>
        <time>2019-09-06T09:01:37Z</time>
      </trkpt>
      <trkpt lat="42.94229" lon="1.04413">
        <ele>526.64</ele>
        <time>2019-09-06T09:01:52Z</time>
      </trkpt>
      <trkpt lat="42.94225" lon="1.04403">
        <ele>526.92</ele>
        <time>2019-09-06T09:01:57Z</time>
      </trkpt>
      <trkpt lat="42.9422" lon="1.04393">
        <ele>527.27</ele>
        <time>2019-09-06T09:02:04Z</time>
      </trkpt>
      <trkpt lat="42.94209" lon="1.04372">
        <ele>528.03</ele>
        <time>2019-09-06T09:02:20Z</time>
      </trkpt>
      <trkpt lat="42.94194" lon="1.04345">
        <ele>528.78</ele>
        <time>2019-09-06T09:02:39Z</time>
      </trkpt>
      <trkpt lat="42.94182" lon="1.04326">
        <ele>529.12</ele>
        <time>2019-09-06T09:02:53Z</time>
      </trkpt>
      <trkpt lat="42.94166" lon="1.04304">
        <ele>528.89</ele>
        <time>2019-09-06T09:03:12Z</time>
      </trkpt>
      <trkpt lat="42.94156" lon="1.04289">
        <ele>528.81</ele>
        <time>2019-09-06T09:03:23Z</time>
      </trkpt>
      <trkpt lat="42.94142" lon="1.04264">
        <ele>529.04</ele>
        <time>2019-09-06T09:03:39Z</time>
      </trkpt>
      <trkpt lat="42.9413" lon="1.04241">
        <ele>529.74</ele>
        <time>2019-09-06T09:03:56Z</time>
      </trkpt>
      <trkpt lat="42.94116" lon="1.04218">
        <ele>529.61</ele>
        <time>2019-09-06T09:04:13Z</time>
      </trkpt>
      <trkpt lat="42.94103" lon="1.04188">
        <ele>529.61</ele>
        <time>2019-09-06T09:04:32Z</time>
      </trkpt>
      <trkpt lat="42.94097" lon="1.04173">
        <ele>529.58</ele>
        <time>2019-09-06T09:04:43Z</time>
      </trkpt>
      <trkpt lat="42.94089" lon="1.0415">
        <ele>529.56</ele>
        <time>2019-09-06T09:04:59Z</time>
      </trkpt>
      <trkpt lat="42.94074" lon="1.04119">
        <ele>529.33</ele>
        <time>2019-09-06T09:05:16Z</time>
      </trkpt>
      <trkpt lat="42.94065" lon="1.04099">
        <ele>529.27</ele>
        <time>2019-09-06T09:05:32Z</time>
      </trkpt>
      <trkpt lat="42.94055" lon="1.04077">
        <ele>529.19</ele>
        <time>2019-09-06T09:05:47Z</time>
      </trkpt>
      <trkpt lat="42.94042" lon="1.04047">
        <ele>528.66</ele>
        <time>2019-09-06T09:06:05Z</time>
      </trkpt>
      <trkpt lat="42.94041" lon="1.04045">
        <ele>528.61</ele>
        <time>2019-09-06T09:06:06Z</time>
      </trkpt>
      <trkpt lat="42.9404" lon="1.04042">
        <ele>528.49</ele>
        <time>2019-09-06T09:06:08Z</time>
      </trkpt>
      <trkpt lat="42.94028" lon="1.04016">
        <ele>527.28</ele>
        <time>2019-09-06T09:06:26Z</time>
      </trkpt>
      <trkpt lat="42.94021" lon="1.04004">
        <ele>526.32</ele>
        <time>2019-09-06T09:06:34Z</time>
      </trkpt>
      <trkpt lat="42.94008" lon="1.03987">
        <ele>524.38</ele>
        <time>2019-09-06T09:06:48Z</time>
      </trkpt>
      <trkpt lat="42.93987" lon="1.03966">
        <ele>522.38</ele>
        <time>2019-09-06T09:07:06Z</time>
      </trkpt>
      <trkpt lat="42.93971" lon="1.03958">
        <ele>521.09</ele>
        <time>2019-09-06T09:07:19Z</time>
      </trkpt>
      <trkpt lat="42.93945" lon="1.03949">
        <ele>519.8</ele>
        <time>2019-09-06T09:07:37Z</time>
      </trkpt>
      <trkpt lat="42.93925" lon="1.03942">
        <ele>519.28</ele>
        <time>2019-09-06T09:07:53Z</time>
      </trkpt>
      <trkpt lat="42.9391" lon="1.03926">
        <ele>519.29</ele>
        <time>2019-09-06T09:08:09Z</time>
      </trkpt>
      <trkpt lat="42.93898" lon="1.03905">
        <ele>520.01</ele>
        <time>2019-09-06T09:08:25Z</time>
      </trkpt>
      <trkpt lat="42.93886" lon="1.03886">
        <ele>520.96</ele>
        <time>2019-09-06T09:08:37Z</time>
      </trkpt>
      <trkpt lat="42.93876" lon="1.03861">
        <ele>522.52</ele>
        <time>2019-09-06T09:08:54Z</time>
      </trkpt>
      <trkpt lat="42.93868" lon="1.03834">
        <ele>524.6</ele>
        <time>2019-09-06T09:09:12Z</time>
      </trkpt>
      <trkpt lat="42.93861" lon="1.03812">
        <ele>526.4</ele>
        <time>2019-09-06T09:09:28Z</time>
      </trkpt>
      <trkpt lat="42.93849" lon="1.03793">
        <ele>528.24</ele>
        <time>2019-09-06T09:09:44Z</time>
      </trkpt>
      <trkpt lat="42.93846" lon="1.03788">
        <ele>528.6</ele>
        <time>2019-09-06T09:09:48Z</time>
      </trkpt>
      <trkpt lat="42.93841" lon="1.03778">
        <ele>529.25</ele>
        <time>2019-09-06T09:09:55Z</time>
      </trkpt>
      <trkpt lat="42.93829" lon="1.03753">
        <ele>530.73</ele>
        <time>2019-09-06T09:10:14Z</time>
      </trkpt>
      <trkpt lat="42.93821" lon="1.03734">
        <ele>531.37</ele>
        <time>2019-09-06T09:10:26Z</time>
      </trkpt>
      <trkpt lat="42.9382" lon="1.03732">
        <ele>531.42</ele>
        <time>2019-09-06T09:10:27Z</time>
      </trkpt>
      <trkpt lat="42.93819" lon="1.03731">
        <ele>531.48</ele>
        <time>2019-09-06T09:10:28Z</time>
      </trkpt>
      <trkpt lat="42.93818" lon="1.03729">
        <ele>531.54</ele>
        <time>2019-09-06T09:10:29Z</time>
      </trkpt>
      <trkpt lat="42.93818" lon="1.03728">
        <ele>531.6</ele>
        <time>2019-09-06T09:10:30Z</time>
      </trkpt>
      <trkpt lat="42.93809" lon="1.03711">
        <ele>531.91</ele>
        <time>2019-09-06T09:10:42Z</time>
      </trkpt>
      <trkpt lat="42.93801" lon="1.03708">
        <ele>532.14</ele>
        <time>2019-09-06T09:10:55Z</time>
      </trkpt>
      <trkpt lat="42.93801" lon="1.03709">
        <ele>532.51</ele>
        <time>2019-09-06T09:11:05Z</time>
      </trkpt>
      <trkpt lat="42.93801" lon="1.03709">
        <ele>532.34</ele>
        <time>2019-09-06T09:11:24Z</time>
      </trkpt>
      <trkpt lat="42.93803" lon="1.03706">
        <ele>531.91</ele>
        <time>2019-09-06T09:11:39Z</time>
      </trkpt>
      <trkpt lat="42.93801" lon="1.03701">
        <ele>531.84</ele>
        <time>2019-09-06T09:11:51Z</time>
      </trkpt>
      <trkpt lat="42.938" lon="1.037">
        <ele>532.24</ele>
        <time>2019-09-06T09:11:52Z</time>
      </trkpt>
      <trkpt lat="42.93799" lon="1.03698">
        <ele>532.44</ele>
        <time>2019-09-06T09:11:53Z</time>
      </trkpt>
      <trkpt lat="42.93799" lon="1.03696">
        <ele>532.54</ele>
        <time>2019-09-06T09:11:54Z</time>
      </trkpt>
      <trkpt lat="42.93798" lon="1.03695">
        <ele>532.48</ele>
        <time>2019-09-06T09:11:55Z</time>
      </trkpt>
      <trkpt lat="42.93782" lon="1.03672">
        <ele>531.68</ele>
        <time>2019-09-06T09:12:14Z</time>
      </trkpt>
      <trkpt lat="42.93768" lon="1.03648">
        <ele>531.7</ele>
        <time>2019-09-06T09:12:32Z</time>
      </trkpt>
      <trkpt lat="42.93755" lon="1.03627">
        <ele>532.06</ele>
        <time>2019-09-06T09:12:49Z</time>
      </trkpt>
      <trkpt lat="42.9375" lon="1.03617">
        <ele>532.26</ele>
        <time>2019-09-06T09:12:56Z</time>
      </trkpt>
      <trkpt lat="42.93745" lon="1.03612">
        <ele>532.39</ele>
        <time>2019-09-06T09:13:01Z</time>
      </trkpt>
      <trkpt lat="42.93733" lon="1.03597">
        <ele>532.84</ele>
        <time>2019-09-06T09:13:16Z</time>
      </trkpt>
      <trkpt lat="42.93728" lon="1.03589">
        <ele>533</ele>
        <time>2019-09-06T09:13:22Z</time>
      </trkpt>
      <trkpt lat="42.93725" lon="1.03584">
        <ele>533.09</ele>
        <time>2019-09-06T09:13:25Z</time>
      </trkpt>
      <trkpt lat="42.93693" lon="1.03541">
        <ele>533.42</ele>
        <time>2019-09-06T09:13:56Z</time>
      </trkpt>
      <trkpt lat="42.93677" lon="1.03523">
        <ele>533.37</ele>
        <time>2019-09-06T09:14:14Z</time>
      </trkpt>
      <trkpt lat="42.93665" lon="1.03507">
        <ele>533.72</ele>
        <time>2019-09-06T09:14:30Z</time>
      </trkpt>
      <trkpt lat="42.93662" lon="1.03504">
        <ele>533.76</ele>
        <time>2019-09-06T09:14:32Z</time>
      </trkpt>
      <trkpt lat="42.93647" lon="1.03488">
        <ele>534.67</ele>
        <time>2019-09-06T09:14:49Z</time>
      </trkpt>
      <trkpt lat="42.93645" lon="1.03486">
        <ele>534.76</ele>
        <time>2019-09-06T09:14:51Z</time>
      </trkpt>
      <trkpt lat="42.93623" lon="1.03462">
        <ele>535.64</ele>
        <time>2019-09-06T09:15:13Z</time>
      </trkpt>
      <trkpt lat="42.93598" lon="1.03438">
        <ele>535.46</ele>
        <time>2019-09-06T09:15:37Z</time>
      </trkpt>
      <trkpt lat="42.9358" lon="1.03424">
        <ele>534.45</ele>
        <time>2019-09-06T09:15:54Z</time>
      </trkpt>
      <trkpt lat="42.93566" lon="1.03413">
        <ele>533.87</ele>
        <time>2019-09-06T09:16:07Z</time>
      </trkpt>
      <trkpt lat="42.93565" lon="1.03412">
        <ele>533.79</ele>
        <time>2019-09-06T09:16:08Z</time>
      </trkpt>
      <trkpt lat="42.93544" lon="1.03396">
        <ele>531.88</ele>
        <time>2019-09-06T09:16:26Z</time>
      </trkpt>
      <trkpt lat="42.9353" lon="1.03384">
        <ele>529.97</ele>
        <time>2019-09-06T09:16:39Z</time>
      </trkpt>
      <trkpt lat="42.93524" lon="1.03378">
        <ele>529.32</ele>
        <time>2019-09-06T09:16:45Z</time>
      </trkpt>
      <trkpt lat="42.93522" lon="1.03377">
        <ele>529.29</ele>
        <time>2019-09-06T09:16:46Z</time>
      </trkpt>
      <trkpt lat="42.93521" lon="1.03376">
        <ele>529.26</ele>
        <time>2019-09-06T09:16:47Z</time>
      </trkpt>
      <trkpt lat="42.9352" lon="1.03375">
        <ele>529.19</ele>
        <time>2019-09-06T09:16:48Z</time>
      </trkpt>
      <trkpt lat="42.93518" lon="1.03375">
        <ele>529.09</ele>
        <time>2019-09-06T09:16:49Z</time>
      </trkpt>
      <trkpt lat="42.93501" lon="1.03365">
        <ele>527.63</ele>
        <time>2019-09-06T09:17:06Z</time>
      </trkpt>
      <trkpt lat="42.93481" lon="1.03353">
        <ele>525.79</ele>
        <time>2019-09-06T09:17:24Z</time>
      </trkpt>
      <trkpt lat="42.93458" lon="1.03339">
        <ele>525.1</ele>
        <time>2019-09-06T09:17:41Z</time>
      </trkpt>
      <trkpt lat="42.93456" lon="1.03339">
        <ele>525</ele>
        <time>2019-09-06T09:17:43Z</time>
      </trkpt>
      <trkpt lat="42.93453" lon="1.03337">
        <ele>524.91</ele>
        <time>2019-09-06T09:17:45Z</time>
      </trkpt>
      <trkpt lat="42.9343" lon="1.03329">
        <ele>524.49</ele>
        <time>2019-09-06T09:18:03Z</time>
      </trkpt>
      <trkpt lat="42.93407" lon="1.03322">
        <ele>524.39</ele>
        <time>2019-09-06T09:18:21Z</time>
      </trkpt>
      <trkpt lat="42.93391" lon="1.03318">
        <ele>524.64</ele>
        <time>2019-09-06T09:18:33Z</time>
      </trkpt>
      <trkpt lat="42.93376" lon="1.03305">
        <ele>525.28</ele>
        <time>2019-09-06T09:18:47Z</time>
      </trkpt>
      <trkpt lat="42.93367" lon="1.03282">
        <ele>525.8</ele>
        <time>2019-09-06T09:19:02Z</time>
      </trkpt>
      <trkpt lat="42.93357" lon="1.03257">
        <ele>526.94</ele>
        <time>2019-09-06T09:19:19Z</time>
      </trkpt>
      <trkpt lat="42.93345" lon="1.03234">
        <ele>529.2</ele>
        <time>2019-09-06T09:19:37Z</time>
      </trkpt>
      <trkpt lat="42.93329" lon="1.03214">
        <ele>531.24</ele>
        <time>2019-09-06T09:19:58Z</time>
      </trkpt>
      <trkpt lat="42.93307" lon="1.03193">
        <ele>533.41</ele>
        <time>2019-09-06T09:20:19Z</time>
      </trkpt>
      <trkpt lat="42.93288" lon="1.0318">
        <ele>534.49</ele>
        <time>2019-09-06T09:20:37Z</time>
      </trkpt>
      <trkpt lat="42.93269" lon="1.03171">
        <ele>535.24</ele>
        <time>2019-09-06T09:20:54Z</time>
      </trkpt>
      <trkpt lat="42.93238" lon="1.03162">
        <ele>535.69</ele>
        <time>2019-09-06T09:21:18Z</time>
      </trkpt>
      <trkpt lat="42.93213" lon="1.03156">
        <ele>535.92</ele>
        <time>2019-09-06T09:21:39Z</time>
      </trkpt>
      <trkpt lat="42.93182" lon="1.03148">
        <ele>536.15</ele>
        <time>2019-09-06T09:22:05Z</time>
      </trkpt>
      <trkpt lat="42.93153" lon="1.0314">
        <ele>536.61</ele>
        <time>2019-09-06T09:22:27Z</time>
      </trkpt>
      <trkpt lat="42.93124" lon="1.03132">
        <ele>537.17</ele>
        <time>2019-09-06T09:22:50Z</time>
      </trkpt>
      <trkpt lat="42.93097" lon="1.03125">
        <ele>537.9</ele>
        <time>2019-09-06T09:23:13Z</time>
      </trkpt>
      <trkpt lat="42.93077" lon="1.03117">
        <ele>538.25</ele>
        <time>2019-09-06T09:23:30Z</time>
      </trkpt>
      <trkpt lat="42.93048" lon="1.03109">
        <ele>538.65</ele>
        <time>2019-09-06T09:23:52Z</time>
      </trkpt>
      <trkpt lat="42.93018" lon="1.031">
        <ele>538.99</ele>
        <time>2019-09-06T09:24:15Z</time>
      </trkpt>
      <trkpt lat="42.92992" lon="1.03092">
        <ele>539.01</ele>
        <time>2019-09-06T09:24:37Z</time>
      </trkpt>
      <trkpt lat="42.92966" lon="1.03086">
        <ele>538.56</ele>
        <time>2019-09-06T09:24:59Z</time>
      </trkpt>
      <trkpt lat="42.92943" lon="1.03079">
        <ele>538.39</ele>
        <time>2019-09-06T09:25:19Z</time>
      </trkpt>
      <trkpt lat="42.92913" lon="1.03072">
        <ele>538.33</ele>
        <time>2019-09-06T09:25:41Z</time>
      </trkpt>
      <trkpt lat="42.92887" lon="1.03058">
        <ele>537.06</ele>
        <time>2019-09-06T09:26:02Z</time>
      </trkpt>
      <trkpt lat="42.92861" lon="1.03037">
        <ele>536.32</ele>
        <time>2019-09-06T09:26:27Z</time>
      </trkpt>
      <trkpt lat="42.9286" lon="1.03007">
        <ele>533.16</ele>
        <time>2019-09-06T09:26:45Z</time>
      </trkpt>
      <trkpt lat="42.92864" lon="1.02983">
        <ele>530.39</ele>
        <time>2019-09-06T09:26:59Z</time>
      </trkpt>
      <trkpt lat="42.92865" lon="1.02982">
        <ele>530.23</ele>
        <time>2019-09-06T09:27:00Z</time>
      </trkpt>
      <trkpt lat="42.92866" lon="1.02982">
        <ele>530.08</ele>
        <time>2019-09-06T09:27:01Z</time>
      </trkpt>
      <trkpt lat="42.92867" lon="1.02982">
        <ele>529.93</ele>
        <time>2019-09-06T09:27:02Z</time>
      </trkpt>
      <trkpt lat="42.92868" lon="1.02982">
        <ele>529.79</ele>
        <time>2019-09-06T09:27:03Z</time>
      </trkpt>
      <trkpt lat="42.92869" lon="1.02981">
        <ele>529.66</ele>
        <time>2019-09-06T09:27:04Z</time>
      </trkpt>
      <trkpt lat="42.92872" lon="1.0298">
        <ele>528.87</ele>
        <time>2019-09-06T09:27:11Z</time>
      </trkpt>
      <trkpt lat="42.92873" lon="1.02978">
        <ele>529.13</ele>
        <time>2019-09-06T09:27:12Z</time>
      </trkpt>
      <trkpt lat="42.92873" lon="1.02974">
        <ele>529.26</ele>
        <time>2019-09-06T09:27:14Z</time>
      </trkpt>
      <trkpt lat="42.92874" lon="1.02955">
        <ele>528.66</ele>
        <time>2019-09-06T09:27:25Z</time>
      </trkpt>
      <trkpt lat="42.92874" lon="1.02953">
        <ele>528.6</ele>
        <time>2019-09-06T09:27:26Z</time>
      </trkpt>
      <trkpt lat="42.92865" lon="1.02904">
        <ele>525.81</ele>
        <time>2019-09-06T09:27:53Z</time>
      </trkpt>
      <trkpt lat="42.92851" lon="1.0285">
        <ele>523.02</ele>
        <time>2019-09-06T09:28:24Z</time>
      </trkpt>
      <trkpt lat="42.92838" lon="1.02793">
        <ele>520.05</ele>
        <time>2019-09-06T09:28:56Z</time>
      </trkpt>
      <trkpt lat="42.92833" lon="1.02775">
        <ele>518.91</ele>
        <time>2019-09-06T09:29:07Z</time>
      </trkpt>
      <trkpt lat="42.92833" lon="1.02773">
        <ele>518.84</ele>
        <time>2019-09-06T09:29:08Z</time>
      </trkpt>
      <trkpt lat="42.92832" lon="1.02771">
        <ele>518.76</ele>
        <time>2019-09-06T09:29:09Z</time>
      </trkpt>
      <trkpt lat="42.92832" lon="1.02769">
        <ele>518.68</ele>
        <time>2019-09-06T09:29:10Z</time>
      </trkpt>
      <trkpt lat="42.92831" lon="1.02767">
        <ele>518.59</ele>
        <time>2019-09-06T09:29:11Z</time>
      </trkpt>
      <trkpt lat="42.92831" lon="1.02766">
        <ele>518.5</ele>
        <time>2019-09-06T09:29:12Z</time>
      </trkpt>
      <trkpt lat="42.9283" lon="1.02764">
        <ele>518.43</ele>
        <time>2019-09-06T09:29:13Z</time>
      </trkpt>
      <trkpt lat="42.92827" lon="1.02748">
        <ele>517.44</ele>
        <time>2019-09-06T09:29:23Z</time>
      </trkpt>
      <trkpt lat="42.92819" lon="1.02714">
        <ele>515.97</ele>
        <time>2019-09-06T09:29:42Z</time>
      </trkpt>
      <trkpt lat="42.92811" lon="1.02681">
        <ele>514.84</ele>
        <time>2019-09-06T09:30:01Z</time>
      </trkpt>
      <trkpt lat="42.92804" lon="1.02649">
        <ele>513.64</ele>
        <time>2019-09-06T09:30:20Z</time>
      </trkpt>
      <trkpt lat="42.92804" lon="1.02648">
        <ele>513.59</ele>
        <time>2019-09-06T09:30:21Z</time>
      </trkpt>
      <trkpt lat="42.92805" lon="1.02647">
        <ele>513.57</ele>
        <time>2019-09-06T09:30:22Z</time>
      </trkpt>
      <trkpt lat="42.92795" lon="1.02612">
        <ele>512.76</ele>
        <time>2019-09-06T09:30:42Z</time>
      </trkpt>
      <trkpt lat="42.92796" lon="1.02611">
        <ele>512.65</ele>
        <time>2019-09-06T09:30:43Z</time>
      </trkpt>
      <trkpt lat="42.92795" lon="1.0261">
        <ele>512.55</ele>
        <time>2019-09-06T09:30:44Z</time>
      </trkpt>
      <trkpt lat="42.92784" lon="1.02573">
        <ele>512.18</ele>
        <time>2019-09-06T09:31:04Z</time>
      </trkpt>
      <trkpt lat="42.92779" lon="1.02523">
        <ele>512.23</ele>
        <time>2019-09-06T09:31:30Z</time>
      </trkpt>
      <trkpt lat="42.92777" lon="1.02499">
        <ele>512.17</ele>
        <time>2019-09-06T09:31:44Z</time>
      </trkpt>
      <trkpt lat="42.92777" lon="1.02495">
        <ele>512.19</ele>
        <time>2019-09-06T09:31:47Z</time>
      </trkpt>
      <trkpt lat="42.92777" lon="1.02477">
        <ele>512.31</ele>
        <time>2019-09-06T09:31:56Z</time>
      </trkpt>
      <trkpt lat="42.92778" lon="1.02475">
        <ele>512.31</ele>
        <time>2019-09-06T09:31:57Z</time>
      </trkpt>
      <trkpt lat="42.92777" lon="1.02454">
        <ele>512.62</ele>
        <time>2019-09-06T09:32:11Z</time>
      </trkpt>
      <trkpt lat="42.92779" lon="1.02449">
        <ele>512.69</ele>
        <time>2019-09-06T09:32:15Z</time>
      </trkpt>
      <trkpt lat="42.9278" lon="1.02445">
        <ele>512.72</ele>
        <time>2019-09-06T09:32:17Z</time>
      </trkpt>
      <trkpt lat="42.92787" lon="1.02428">
        <ele>513.07</ele>
        <time>2019-09-06T09:32:33Z</time>
      </trkpt>
      <trkpt lat="42.9279" lon="1.02429">
        <ele>512.91</ele>
        <time>2019-09-06T09:32:38Z</time>
      </trkpt>
      <trkpt lat="42.92792" lon="1.02429">
        <ele>512.92</ele>
        <time>2019-09-06T09:32:39Z</time>
      </trkpt>
      <trkpt lat="42.92811" lon="1.02411">
        <ele>513.26</ele>
        <time>2019-09-06T09:32:58Z</time>
      </trkpt>
      <trkpt lat="42.92824" lon="1.02395">
        <ele>513.35</ele>
        <time>2019-09-06T09:33:16Z</time>
      </trkpt>
      <trkpt lat="42.9283" lon="1.0239">
        <ele>513.35</ele>
        <time>2019-09-06T09:33:22Z</time>
      </trkpt>
      <trkpt lat="42.92839" lon="1.02383">
        <ele>512.9</ele>
        <time>2019-09-06T09:33:30Z</time>
      </trkpt>
      <trkpt lat="42.92853" lon="1.02365">
        <ele>511.58</ele>
        <time>2019-09-06T09:33:46Z</time>
      </trkpt>
      <trkpt lat="42.92855" lon="1.02364">
        <ele>511.48</ele>
        <time>2019-09-06T09:33:47Z</time>
      </trkpt>
      <trkpt lat="42.92859" lon="1.02359">
        <ele>511.26</ele>
        <time>2019-09-06T09:33:50Z</time>
      </trkpt>
      <trkpt lat="42.92874" lon="1.02338">
        <ele>510.33</ele>
        <time>2019-09-06T09:34:06Z</time>
      </trkpt>
      <trkpt lat="42.92889" lon="1.02318">
        <ele>509.92</ele>
        <time>2019-09-06T09:34:21Z</time>
      </trkpt>
      <trkpt lat="42.92903" lon="1.02299">
        <ele>509.99</ele>
        <time>2019-09-06T09:34:36Z</time>
      </trkpt>
      <trkpt lat="42.92905" lon="1.02295">
        <ele>509.83</ele>
        <time>2019-09-06T09:35:02Z</time>
      </trkpt>
      <trkpt lat="42.92906" lon="1.02274">
        <ele>509.3</ele>
        <time>2019-09-06T09:35:20Z</time>
      </trkpt>
      <trkpt lat="42.92905" lon="1.02273">
        <ele>509.28</ele>
        <time>2019-09-06T09:35:21Z</time>
      </trkpt>
      <trkpt lat="42.92888" lon="1.02254">
        <ele>508.91</ele>
        <time>2019-09-06T09:35:39Z</time>
      </trkpt>
      <trkpt lat="42.92875" lon="1.0223">
        <ele>508.75</ele>
        <time>2019-09-06T09:35:57Z</time>
      </trkpt>
      <trkpt lat="42.92859" lon="1.02208">
        <ele>508.65</ele>
        <time>2019-09-06T09:36:15Z</time>
      </trkpt>
      <trkpt lat="42.92842" lon="1.02184">
        <ele>508.61</ele>
        <time>2019-09-06T09:36:34Z</time>
      </trkpt>
      <trkpt lat="42.92827" lon="1.02164">
        <ele>508.7</ele>
        <time>2019-09-06T09:36:52Z</time>
      </trkpt>
      <trkpt lat="42.92805" lon="1.02137">
        <ele>509.01</ele>
        <time>2019-09-06T09:37:15Z</time>
      </trkpt>
      <trkpt lat="42.92785" lon="1.02112">
        <ele>509.39</ele>
        <time>2019-09-06T09:37:36Z</time>
      </trkpt>
      <trkpt lat="42.92767" lon="1.0209">
        <ele>509.71</ele>
        <time>2019-09-06T09:37:56Z</time>
      </trkpt>
      <trkpt lat="42.92754" lon="1.0207">
        <ele>509.89</ele>
        <time>2019-09-06T09:38:11Z</time>
      </trkpt>
      <trkpt lat="42.9274" lon="1.02053">
        <ele>510.41</ele>
        <time>2019-09-06T09:38:27Z</time>
      </trkpt>
      <trkpt lat="42.92725" lon="1.02031">
        <ele>511.15</ele>
        <time>2019-09-06T09:38:45Z</time>
      </trkpt>
      <trkpt lat="42.92714" lon="1.02011">
        <ele>511.73</ele>
        <time>2019-09-06T09:39:00Z</time>
      </trkpt>
      <trkpt lat="42.92701" lon="1.0199">
        <ele>512.36</ele>
        <time>2019-09-06T09:39:15Z</time>
      </trkpt>
      <trkpt lat="42.92701" lon="1.01989">
        <ele>512.36</ele>
        <time>2019-09-06T09:39:16Z</time>
      </trkpt>
      <trkpt lat="42.927" lon="1.01988">
        <ele>512.36</ele>
        <time>2019-09-06T09:39:17Z</time>
      </trkpt>
      <trkpt lat="42.92699" lon="1.01987">
        <ele>512.38</ele>
        <time>2019-09-06T09:39:18Z</time>
      </trkpt>
      <trkpt lat="42.92698" lon="1.01985">
        <ele>512.45</ele>
        <time>2019-09-06T09:39:19Z</time>
      </trkpt>
      <trkpt lat="42.92684" lon="1.01961">
        <ele>513.77</ele>
        <time>2019-09-06T09:39:36Z</time>
      </trkpt>
      <trkpt lat="42.92675" lon="1.01936">
        <ele>514.45</ele>
        <time>2019-09-06T09:39:55Z</time>
      </trkpt>
      <trkpt lat="42.92664" lon="1.01904">
        <ele>515.14</ele>
        <time>2019-09-06T09:40:15Z</time>
      </trkpt>
      <trkpt lat="42.92659" lon="1.01868">
        <ele>515.78</ele>
        <time>2019-09-06T09:40:34Z</time>
      </trkpt>
      <trkpt lat="42.92656" lon="1.01837">
        <ele>516.47</ele>
        <time>2019-09-06T09:40:50Z</time>
      </trkpt>
      <trkpt lat="42.92664" lon="1.01811">
        <ele>517.3</ele>
        <time>2019-09-06T09:41:07Z</time>
      </trkpt>
      <trkpt lat="42.92674" lon="1.01781">
        <ele>517.86</ele>
        <time>2019-09-06T09:41:26Z</time>
      </trkpt>
      <trkpt lat="42.92684" lon="1.01746">
        <ele>518.41</ele>
        <time>2019-09-06T09:41:46Z</time>
      </trkpt>
      <trkpt lat="42.92694" lon="1.01716">
        <ele>518.66</ele>
        <time>2019-09-06T09:42:04Z</time>
      </trkpt>
      <trkpt lat="42.92699" lon="1.01701">
        <ele>518.77</ele>
        <time>2019-09-06T09:42:14Z</time>
      </trkpt>
      <trkpt lat="42.92701" lon="1.017">
        <ele>518.8</ele>
        <time>2019-09-06T09:42:15Z</time>
      </trkpt>
      <trkpt lat="42.92702" lon="1.01699">
        <ele>518.82</ele>
        <time>2019-09-06T09:42:16Z</time>
      </trkpt>
      <trkpt lat="42.92703" lon="1.01698">
        <ele>518.83</ele>
        <time>2019-09-06T09:42:17Z</time>
      </trkpt>
      <trkpt lat="42.92704" lon="1.01697">
        <ele>518.84</ele>
        <time>2019-09-06T09:42:18Z</time>
      </trkpt>
      <trkpt lat="42.92706" lon="1.01696">
        <ele>518.85</ele>
        <time>2019-09-06T09:42:19Z</time>
      </trkpt>
      <trkpt lat="42.92707" lon="1.01695">
        <ele>518.86</ele>
        <time>2019-09-06T09:42:20Z</time>
      </trkpt>
      <trkpt lat="42.92711" lon="1.01691">
        <ele>518.86</ele>
        <time>2019-09-06T09:42:24Z</time>
      </trkpt>
      <trkpt lat="42.92717" lon="1.01681">
        <ele>519.09</ele>
        <time>2019-09-06T09:42:33Z</time>
      </trkpt>
      <trkpt lat="42.92718" lon="1.0168">
        <ele>519.14</ele>
        <time>2019-09-06T09:42:34Z</time>
      </trkpt>
      <trkpt lat="42.92734" lon="1.01652">
        <ele>519.72</ele>
        <time>2019-09-06T09:42:52Z</time>
      </trkpt>
      <trkpt lat="42.92748" lon="1.01615">
        <ele>519.21</ele>
        <time>2019-09-06T09:43:14Z</time>
      </trkpt>
      <trkpt lat="42.9275" lon="1.01575">
        <ele>518.95</ele>
        <time>2019-09-06T09:43:36Z</time>
      </trkpt>
      <trkpt lat="42.92742" lon="1.01536">
        <ele>518.86</ele>
        <time>2019-09-06T09:43:59Z</time>
      </trkpt>
      <trkpt lat="42.92726" lon="1.01505">
        <ele>518.49</ele>
        <time>2019-09-06T09:44:21Z</time>
      </trkpt>
      <trkpt lat="42.92704" lon="1.01473">
        <ele>518.33</ele>
        <time>2019-09-06T09:44:46Z</time>
      </trkpt>
      <trkpt lat="42.92697" lon="1.0146">
        <ele>518.44</ele>
        <time>2019-09-06T09:44:55Z</time>
      </trkpt>
      <trkpt lat="42.92697" lon="1.01459">
        <ele>518.47</ele>
        <time>2019-09-06T09:44:56Z</time>
      </trkpt>
      <trkpt lat="42.92701" lon="1.01453">
        <ele>518.75</ele>
        <time>2019-09-06T09:45:11Z</time>
      </trkpt>
      <trkpt lat="42.92708" lon="1.01447">
        <ele>519.29</ele>
        <time>2019-09-06T09:45:20Z</time>
      </trkpt>
      <trkpt lat="42.92726" lon="1.01431">
        <ele>521.88</ele>
        <time>2019-09-06T09:45:41Z</time>
      </trkpt>
      <trkpt lat="42.9274" lon="1.01411">
        <ele>523.16</ele>
        <time>2019-09-06T09:46:01Z</time>
      </trkpt>
      <trkpt lat="42.92739" lon="1.01408">
        <ele>523.29</ele>
        <time>2019-09-06T09:46:03Z</time>
      </trkpt>
      <trkpt lat="42.92735" lon="1.01379">
        <ele>523.98</ele>
        <time>2019-09-06T09:46:21Z</time>
      </trkpt>
      <trkpt lat="42.92729" lon="1.01343">
        <ele>523.81</ele>
        <time>2019-09-06T09:46:42Z</time>
      </trkpt>
      <trkpt lat="42.92729" lon="1.01313">
        <ele>525.64</ele>
        <time>2019-09-06T09:47:03Z</time>
      </trkpt>
      <trkpt lat="42.92727" lon="1.01294">
        <ele>527.74</ele>
        <time>2019-09-06T09:47:19Z</time>
      </trkpt>
      <trkpt lat="42.92727" lon="1.01273">
        <ele>530.09</ele>
        <time>2019-09-06T09:47:37Z</time>
      </trkpt>
      <trkpt lat="42.92728" lon="1.01252">
        <ele>532.5</ele>
        <time>2019-09-06T09:47:54Z</time>
      </trkpt>
      <trkpt lat="42.92731" lon="1.01233">
        <ele>535.07</ele>
        <time>2019-09-06T09:48:10Z</time>
      </trkpt>
      <trkpt lat="42.9273" lon="1.01221">
        <ele>536.67</ele>
        <time>2019-09-06T09:48:21Z</time>
      </trkpt>
      <trkpt lat="42.92729" lon="1.0122">
        <ele>536.8</ele>
        <time>2019-09-06T09:48:22Z</time>
      </trkpt>
      <trkpt lat="42.92729" lon="1.01218">
        <ele>536.94</ele>
        <time>2019-09-06T09:48:23Z</time>
      </trkpt>
      <trkpt lat="42.9272" lon="1.01189">
        <ele>538.13</ele>
        <time>2019-09-06T09:48:44Z</time>
      </trkpt>
      <trkpt lat="42.92713" lon="1.01167">
        <ele>538.18</ele>
        <time>2019-09-06T09:49:00Z</time>
      </trkpt>
      <trkpt lat="42.927" lon="1.0114">
        <ele>537.46</ele>
        <time>2019-09-06T09:49:17Z</time>
      </trkpt>
      <trkpt lat="42.92692" lon="1.01124">
        <ele>537.12</ele>
        <time>2019-09-06T09:49:30Z</time>
      </trkpt>
      <trkpt lat="42.92685" lon="1.01106">
        <ele>537.06</ele>
        <time>2019-09-06T09:49:46Z</time>
      </trkpt>
      <trkpt lat="42.92677" lon="1.01078">
        <ele>537.22</ele>
        <time>2019-09-06T09:50:03Z</time>
      </trkpt>
      <trkpt lat="42.92677" lon="1.01069">
        <ele>537.82</ele>
        <time>2019-09-06T09:50:16Z</time>
      </trkpt>
      <trkpt lat="42.92678" lon="1.01065">
        <ele>537.9</ele>
        <time>2019-09-06T09:50:18Z</time>
      </trkpt>
      <trkpt lat="42.92682" lon="1.01036">
        <ele>540.17</ele>
        <time>2019-09-06T09:50:38Z</time>
      </trkpt>
      <trkpt lat="42.92687" lon="1.0101">
        <ele>543.2</ele>
        <time>2019-09-06T09:50:58Z</time>
      </trkpt>
      <trkpt lat="42.9269" lon="1.00986">
        <ele>545.67</ele>
        <time>2019-09-06T09:51:17Z</time>
      </trkpt>
      <trkpt lat="42.92694" lon="1.00957">
        <ele>547.36</ele>
        <time>2019-09-06T09:51:36Z</time>
      </trkpt>
      <trkpt lat="42.92696" lon="1.00928">
        <ele>549.21</ele>
        <time>2019-09-06T09:51:56Z</time>
      </trkpt>
      <trkpt lat="42.92698" lon="1.00903">
        <ele>550.12</ele>
        <time>2019-09-06T09:52:12Z</time>
      </trkpt>
      <trkpt lat="42.92699" lon="1.00878">
        <ele>550.41</ele>
        <time>2019-09-06T09:52:29Z</time>
      </trkpt>
      <trkpt lat="42.92699" lon="1.00863">
        <ele>550.73</ele>
        <time>2019-09-06T09:52:39Z</time>
      </trkpt>
      <trkpt lat="42.92701" lon="1.00848">
        <ele>550.9</ele>
        <time>2019-09-06T09:52:48Z</time>
      </trkpt>
      <trkpt lat="42.92698" lon="1.00826">
        <ele>550.57</ele>
        <time>2019-09-06T09:53:04Z</time>
      </trkpt>
      <trkpt lat="42.92697" lon="1.00823">
        <ele>550.33</ele>
        <time>2019-09-06T09:53:06Z</time>
      </trkpt>
      <trkpt lat="42.92696" lon="1.00818">
        <ele>549.89</ele>
        <time>2019-09-06T09:53:09Z</time>
      </trkpt>
      <trkpt lat="42.92688" lon="1.00793">
        <ele>547.38</ele>
        <time>2019-09-06T09:53:25Z</time>
      </trkpt>
      <trkpt lat="42.92686" lon="1.0079">
        <ele>547.18</ele>
        <time>2019-09-06T09:53:27Z</time>
      </trkpt>
      <trkpt lat="42.92678" lon="1.00762">
        <ele>546.59</ele>
        <time>2019-09-06T09:53:45Z</time>
      </trkpt>
      <trkpt lat="42.92669" lon="1.00736">
        <ele>547.11</ele>
        <time>2019-09-06T09:54:03Z</time>
      </trkpt>
      <trkpt lat="42.92664" lon="1.00713">
        <ele>547.59</ele>
        <time>2019-09-06T09:54:16Z</time>
      </trkpt>
      <trkpt lat="42.92659" lon="1.00684">
        <ele>547.5</ele>
        <time>2019-09-06T09:54:31Z</time>
      </trkpt>
      <trkpt lat="42.92658" lon="1.00658">
        <ele>548.14</ele>
        <time>2019-09-06T09:54:48Z</time>
      </trkpt>
      <trkpt lat="42.92656" lon="1.00638">
        <ele>548.77</ele>
        <time>2019-09-06T09:55:01Z</time>
      </trkpt>
      <trkpt lat="42.92652" lon="1.00597">
        <ele>550.1</ele>
        <time>2019-09-06T09:55:25Z</time>
      </trkpt>
      <trkpt lat="42.92651" lon="1.00565">
        <ele>550.27</ele>
        <time>2019-09-06T09:55:45Z</time>
      </trkpt>
      <trkpt lat="42.9266" lon="1.00537">
        <ele>551.28</ele>
        <time>2019-09-06T09:56:05Z</time>
      </trkpt>
      <trkpt lat="42.92667" lon="1.00511">
        <ele>552.17</ele>
        <time>2019-09-06T09:56:22Z</time>
      </trkpt>
      <trkpt lat="42.92675" lon="1.00484">
        <ele>551.91</ele>
        <time>2019-09-06T09:56:40Z</time>
      </trkpt>
      <trkpt lat="42.92686" lon="1.00461">
        <ele>551.5</ele>
        <time>2019-09-06T09:56:56Z</time>
      </trkpt>
      <trkpt lat="42.9269" lon="1.00437">
        <ele>550.15</ele>
        <time>2019-09-06T09:57:12Z</time>
      </trkpt>
      <trkpt lat="42.92687" lon="1.00434">
        <ele>549.84</ele>
        <time>2019-09-06T09:57:15Z</time>
      </trkpt>
      <trkpt lat="42.92686" lon="1.00433">
        <ele>549.79</ele>
        <time>2019-09-06T09:57:16Z</time>
      </trkpt>
      <trkpt lat="42.92685" lon="1.00432">
        <ele>549.75</ele>
        <time>2019-09-06T09:57:17Z</time>
      </trkpt>
      <trkpt lat="42.92684" lon="1.00431">
        <ele>549.71</ele>
        <time>2019-09-06T09:57:18Z</time>
      </trkpt>
      <trkpt lat="42.92682" lon="1.0043">
        <ele>549.68</ele>
        <time>2019-09-06T09:57:19Z</time>
      </trkpt>
      <trkpt lat="42.92668" lon="1.00404">
        <ele>550.17</ele>
        <time>2019-09-06T09:57:38Z</time>
      </trkpt>
      <trkpt lat="42.92659" lon="1.00372">
        <ele>549.04</ele>
        <time>2019-09-06T09:57:58Z</time>
      </trkpt>
      <trkpt lat="42.92654" lon="1.00336">
        <ele>547.39</ele>
        <time>2019-09-06T09:58:19Z</time>
      </trkpt>
      <trkpt lat="42.92657" lon="1.00295">
        <ele>547.07</ele>
        <time>2019-09-06T09:58:44Z</time>
      </trkpt>
      <trkpt lat="42.92659" lon="1.00262">
        <ele>546.65</ele>
        <time>2019-09-06T09:59:04Z</time>
      </trkpt>
      <trkpt lat="42.92666" lon="1.00234">
        <ele>546.66</ele>
        <time>2019-09-06T09:59:22Z</time>
      </trkpt>
      <trkpt lat="42.92672" lon="1.00214">
        <ele>546.71</ele>
        <time>2019-09-06T09:59:38Z</time>
      </trkpt>
      <trkpt lat="42.92672" lon="1.00212">
        <ele>546.72</ele>
        <time>2019-09-06T09:59:39Z</time>
      </trkpt>
      <trkpt lat="42.92677" lon="1.00203">
        <ele>546.92</ele>
        <time>2019-09-06T09:59:58Z</time>
      </trkpt>
      <trkpt lat="42.92677" lon="1.00203">
        <ele>546.2</ele>
        <time>2019-09-06T10:00:26Z</time>
      </trkpt>
      <trkpt lat="42.92676" lon="1.00201">
        <ele>546.01</ele>
        <time>2019-09-06T10:03:49Z</time>
      </trkpt>
      <trkpt lat="42.92677" lon="1.00202">
        <ele>546.01</ele>
        <time>2019-09-06T10:05:58Z</time>
      </trkpt>
      <trkpt lat="42.92677" lon="1.00203">
        <ele>546.01</ele>
        <time>2019-09-06T10:09:28Z</time>
      </trkpt>
      <trkpt lat="42.92678" lon="1.00204">
        <ele>546.01</ele>
        <time>2019-09-06T10:13:17Z</time>
      </trkpt>
      <trkpt lat="42.92679" lon="1.00203">
        <ele>546.01</ele>
        <time>2019-09-06T10:17:35Z</time>
      </trkpt>
      <trkpt lat="42.92678" lon="1.00202">
        <ele>546.01</ele>
        <time>2019-09-06T10:22:34Z</time>
      </trkpt>
      <trkpt lat="42.92679" lon="1.00201">
        <ele>546.01</ele>
        <time>2019-09-06T10:25:45Z</time>
      </trkpt>
      <trkpt lat="42.9268" lon="1.00203">
        <ele>546.01</ele>
        <time>2019-09-06T10:26:33Z</time>
      </trkpt>
      <trkpt lat="42.92679" lon="1.0021">
        <ele>546.01</ele>
        <time>2019-09-06T10:27:03Z</time>
      </trkpt>
      <trkpt lat="42.92675" lon="1.002">
        <ele>546.01</ele>
        <time>2019-09-06T10:27:36Z</time>
      </trkpt>
      <trkpt lat="42.92673" lon="1.00194">
        <ele>546.01</ele>
        <time>2019-09-06T10:27:42Z</time>
      </trkpt>
      <trkpt lat="42.92673" lon="1.00192">
        <ele>546.01</ele>
        <time>2019-09-06T10:27:43Z</time>
      </trkpt>
      <trkpt lat="42.9268" lon="1.00158">
        <ele>544.17</ele>
        <time>2019-09-06T10:28:05Z</time>
      </trkpt>
      <trkpt lat="42.92681" lon="1.00151">
        <ele>543.82</ele>
        <time>2019-09-06T10:28:09Z</time>
      </trkpt>
      <trkpt lat="42.92682" lon="1.00146">
        <ele>543.55</ele>
        <time>2019-09-06T10:28:14Z</time>
      </trkpt>
      <trkpt lat="42.92683" lon="1.00145">
        <ele>543.5</ele>
        <time>2019-09-06T10:28:15Z</time>
      </trkpt>
      <trkpt lat="42.92683" lon="1.00144">
        <ele>543.42</ele>
        <time>2019-09-06T10:28:16Z</time>
      </trkpt>
      <trkpt lat="42.92684" lon="1.00142">
        <ele>543.33</ele>
        <time>2019-09-06T10:28:17Z</time>
      </trkpt>
      <trkpt lat="42.92684" lon="1.0014">
        <ele>543.21</ele>
        <time>2019-09-06T10:28:18Z</time>
      </trkpt>
      <trkpt lat="42.92684" lon="1.00139">
        <ele>543.09</ele>
        <time>2019-09-06T10:28:19Z</time>
      </trkpt>
      <trkpt lat="42.92684" lon="1.00137">
        <ele>542.98</ele>
        <time>2019-09-06T10:28:20Z</time>
      </trkpt>
      <trkpt lat="42.92691" lon="1.00113">
        <ele>541.38</ele>
        <time>2019-09-06T10:28:36Z</time>
      </trkpt>
      <trkpt lat="42.92699" lon="1.001">
        <ele>540.93</ele>
        <time>2019-09-06T10:28:49Z</time>
      </trkpt>
      <trkpt lat="42.927" lon="1.00098">
        <ele>540.91</ele>
        <time>2019-09-06T10:28:50Z</time>
      </trkpt>
      <trkpt lat="42.92701" lon="1.00095">
        <ele>540.9</ele>
        <time>2019-09-06T10:28:52Z</time>
      </trkpt>
      <trkpt lat="42.92702" lon="1.00094">
        <ele>540.93</ele>
        <time>2019-09-06T10:28:53Z</time>
      </trkpt>
      <trkpt lat="42.92703" lon="1.00093">
        <ele>540.96</ele>
        <time>2019-09-06T10:28:54Z</time>
      </trkpt>
      <trkpt lat="42.92717" lon="1.00076">
        <ele>540.72</ele>
        <time>2019-09-06T10:29:11Z</time>
      </trkpt>
      <trkpt lat="42.92723" lon="1.00065">
        <ele>540.92</ele>
        <time>2019-09-06T10:29:19Z</time>
      </trkpt>
      <trkpt lat="42.92737" lon="1.00039">
        <ele>541.15</ele>
        <time>2019-09-06T10:29:36Z</time>
      </trkpt>
      <trkpt lat="42.92748" lon="1.00022">
        <ele>541.12</ele>
        <time>2019-09-06T10:29:50Z</time>
      </trkpt>
      <trkpt lat="42.92764" lon="0.99999">
        <ele>541.09</ele>
        <time>2019-09-06T10:30:10Z</time>
      </trkpt>
      <trkpt lat="42.92778" lon="0.99981">
        <ele>541.17</ele>
        <time>2019-09-06T10:30:26Z</time>
      </trkpt>
      <trkpt lat="42.92786" lon="0.99973">
        <ele>541.19</ele>
        <time>2019-09-06T10:30:35Z</time>
      </trkpt>
      <trkpt lat="42.92801" lon="0.99956">
        <ele>541.38</ele>
        <time>2019-09-06T10:30:52Z</time>
      </trkpt>
      <trkpt lat="42.92809" lon="0.99946">
        <ele>541.75</ele>
        <time>2019-09-06T10:30:59Z</time>
      </trkpt>
      <trkpt lat="42.92813" lon="0.99941">
        <ele>541.82</ele>
        <time>2019-09-06T10:31:03Z</time>
      </trkpt>
      <trkpt lat="42.92828" lon="0.99926">
        <ele>542.63</ele>
        <time>2019-09-06T10:31:21Z</time>
      </trkpt>
      <trkpt lat="42.92842" lon="0.99908">
        <ele>542.61</ele>
        <time>2019-09-06T10:31:36Z</time>
      </trkpt>
      <trkpt lat="42.92844" lon="0.99901">
        <ele>542.54</ele>
        <time>2019-09-06T10:31:40Z</time>
      </trkpt>
      <trkpt lat="42.92856" lon="0.99867">
        <ele>542.29</ele>
        <time>2019-09-06T10:32:00Z</time>
      </trkpt>
      <trkpt lat="42.92868" lon="0.99852">
        <ele>542.62</ele>
        <time>2019-09-06T10:32:15Z</time>
      </trkpt>
      <trkpt lat="42.92873" lon="0.99832">
        <ele>542.29</ele>
        <time>2019-09-06T10:32:28Z</time>
      </trkpt>
      <trkpt lat="42.92878" lon="0.99803">
        <ele>541.14</ele>
        <time>2019-09-06T10:32:45Z</time>
      </trkpt>
      <trkpt lat="42.9289" lon="0.99781">
        <ele>541.72</ele>
        <time>2019-09-06T10:33:03Z</time>
      </trkpt>
      <trkpt lat="42.92897" lon="0.99768">
        <ele>542.65</ele>
        <time>2019-09-06T10:33:13Z</time>
      </trkpt>
      <trkpt lat="42.92908" lon="0.99749">
        <ele>543.12</ele>
        <time>2019-09-06T10:33:28Z</time>
      </trkpt>
      <trkpt lat="42.92909" lon="0.99747">
        <ele>543.12</ele>
        <time>2019-09-06T10:33:30Z</time>
      </trkpt>
      <trkpt lat="42.92923" lon="0.99723">
        <ele>542.62</ele>
        <time>2019-09-06T10:33:48Z</time>
      </trkpt>
      <trkpt lat="42.92926" lon="0.99715">
        <ele>542.44</ele>
        <time>2019-09-06T10:33:53Z</time>
      </trkpt>
      <trkpt lat="42.92927" lon="0.99713">
        <ele>542.39</ele>
        <time>2019-09-06T10:33:54Z</time>
      </trkpt>
      <trkpt lat="42.92938" lon="0.99696">
        <ele>540.85</ele>
        <time>2019-09-06T10:34:07Z</time>
      </trkpt>
      <trkpt lat="42.92945" lon="0.99684">
        <ele>539.2</ele>
        <time>2019-09-06T10:34:16Z</time>
      </trkpt>
      <trkpt lat="42.92962" lon="0.99669">
        <ele>537.2</ele>
        <time>2019-09-06T10:34:33Z</time>
      </trkpt>
      <trkpt lat="42.92964" lon="0.99663">
        <ele>537.21</ele>
        <time>2019-09-06T10:34:36Z</time>
      </trkpt>
      <trkpt lat="42.92979" lon="0.99645">
        <ele>537.36</ele>
        <time>2019-09-06T10:34:53Z</time>
      </trkpt>
      <trkpt lat="42.92981" lon="0.99641">
        <ele>537.59</ele>
        <time>2019-09-06T10:34:55Z</time>
      </trkpt>
      <trkpt lat="42.92993" lon="0.99623">
        <ele>538</ele>
        <time>2019-09-06T10:35:11Z</time>
      </trkpt>
      <trkpt lat="42.93006" lon="0.99607">
        <ele>537.47</ele>
        <time>2019-09-06T10:35:25Z</time>
      </trkpt>
      <trkpt lat="42.93017" lon="0.99599">
        <ele>537.28</ele>
        <time>2019-09-06T10:35:35Z</time>
      </trkpt>
      <trkpt lat="42.93019" lon="0.99596">
        <ele>537.23</ele>
        <time>2019-09-06T10:35:37Z</time>
      </trkpt>
      <trkpt lat="42.9302" lon="0.99594">
        <ele>537.21</ele>
        <time>2019-09-06T10:35:38Z</time>
      </trkpt>
      <trkpt lat="42.93025" lon="0.9959">
        <ele>537.07</ele>
        <time>2019-09-06T10:35:42Z</time>
      </trkpt>
      <trkpt lat="42.93026" lon="0.99589">
        <ele>537</ele>
        <time>2019-09-06T10:35:43Z</time>
      </trkpt>
      <trkpt lat="42.93028" lon="0.99588">
        <ele>536.93</ele>
        <time>2019-09-06T10:35:44Z</time>
      </trkpt>
      <trkpt lat="42.93029" lon="0.99586">
        <ele>536.86</ele>
        <time>2019-09-06T10:35:45Z</time>
      </trkpt>
      <trkpt lat="42.9303" lon="0.99586">
        <ele>536.79</ele>
        <time>2019-09-06T10:35:46Z</time>
      </trkpt>
      <trkpt lat="42.93044" lon="0.99574">
        <ele>536.41</ele>
        <time>2019-09-06T10:35:59Z</time>
      </trkpt>
      <trkpt lat="42.93062" lon="0.99551">
        <ele>536.33</ele>
        <time>2019-09-06T10:36:18Z</time>
      </trkpt>
      <trkpt lat="42.93076" lon="0.99538">
        <ele>536.8</ele>
        <time>2019-09-06T10:36:35Z</time>
      </trkpt>
      <trkpt lat="42.93087" lon="0.99534">
        <ele>537.07</ele>
        <time>2019-09-06T10:36:43Z</time>
      </trkpt>
      <trkpt lat="42.93109" lon="0.99516">
        <ele>537.1</ele>
        <time>2019-09-06T10:37:03Z</time>
      </trkpt>
      <trkpt lat="42.93118" lon="0.99505">
        <ele>537.06</ele>
        <time>2019-09-06T10:37:12Z</time>
      </trkpt>
      <trkpt lat="42.93133" lon="0.99486">
        <ele>537.55</ele>
        <time>2019-09-06T10:37:28Z</time>
      </trkpt>
      <trkpt lat="42.93136" lon="0.99478">
        <ele>538.1</ele>
        <time>2019-09-06T10:37:33Z</time>
      </trkpt>
      <trkpt lat="42.93139" lon="0.99473">
        <ele>538.39</ele>
        <time>2019-09-06T10:37:36Z</time>
      </trkpt>
      <trkpt lat="42.9314" lon="0.99471">
        <ele>538.43</ele>
        <time>2019-09-06T10:37:37Z</time>
      </trkpt>
      <trkpt lat="42.93141" lon="0.99469">
        <ele>538.45</ele>
        <time>2019-09-06T10:37:38Z</time>
      </trkpt>
      <trkpt lat="42.93141" lon="0.99467">
        <ele>538.51</ele>
        <time>2019-09-06T10:37:39Z</time>
      </trkpt>
      <trkpt lat="42.93142" lon="0.99466">
        <ele>538.56</ele>
        <time>2019-09-06T10:37:40Z</time>
      </trkpt>
      <trkpt lat="42.93143" lon="0.99464">
        <ele>538.56</ele>
        <time>2019-09-06T10:37:41Z</time>
      </trkpt>
      <trkpt lat="42.93144" lon="0.99462">
        <ele>538.51</ele>
        <time>2019-09-06T10:37:42Z</time>
      </trkpt>
      <trkpt lat="42.93144" lon="0.99461">
        <ele>538.47</ele>
        <time>2019-09-06T10:37:43Z</time>
      </trkpt>
      <trkpt lat="42.93161" lon="0.99434">
        <ele>535.82</ele>
        <time>2019-09-06T10:38:03Z</time>
      </trkpt>
      <trkpt lat="42.93175" lon="0.99413">
        <ele>533.32</ele>
        <time>2019-09-06T10:38:20Z</time>
      </trkpt>
      <trkpt lat="42.93178" lon="0.99406">
        <ele>532.96</ele>
        <time>2019-09-06T10:38:23Z</time>
      </trkpt>
      <trkpt lat="42.93179" lon="0.99404">
        <ele>532.81</ele>
        <time>2019-09-06T10:38:24Z</time>
      </trkpt>
      <trkpt lat="42.9318" lon="0.99402">
        <ele>532.65</ele>
        <time>2019-09-06T10:38:25Z</time>
      </trkpt>
      <trkpt lat="42.93191" lon="0.99387">
        <ele>531.46</ele>
        <time>2019-09-06T10:38:38Z</time>
      </trkpt>
      <trkpt lat="42.93196" lon="0.99368">
        <ele>532.49</ele>
        <time>2019-09-06T10:38:53Z</time>
      </trkpt>
      <trkpt lat="42.93196" lon="0.99367">
        <ele>532.54</ele>
        <time>2019-09-06T10:38:54Z</time>
      </trkpt>
      <trkpt lat="42.93197" lon="0.99364">
        <ele>532.67</ele>
        <time>2019-09-06T10:38:56Z</time>
      </trkpt>
      <trkpt lat="42.93204" lon="0.99341">
        <ele>534.06</ele>
        <time>2019-09-06T10:39:12Z</time>
      </trkpt>
      <trkpt lat="42.9321" lon="0.99317">
        <ele>535.66</ele>
        <time>2019-09-06T10:39:29Z</time>
      </trkpt>
      <trkpt lat="42.93213" lon="0.99307">
        <ele>536.28</ele>
        <time>2019-09-06T10:39:36Z</time>
      </trkpt>
      <trkpt lat="42.93217" lon="0.99287">
        <ele>537.37</ele>
        <time>2019-09-06T10:39:49Z</time>
      </trkpt>
      <trkpt lat="42.93217" lon="0.99286">
        <ele>537.39</ele>
        <time>2019-09-06T10:39:50Z</time>
      </trkpt>
      <trkpt lat="42.93217" lon="0.99283">
        <ele>537.4</ele>
        <time>2019-09-06T10:39:51Z</time>
      </trkpt>
      <trkpt lat="42.93217" lon="0.99282">
        <ele>537.4</ele>
        <time>2019-09-06T10:39:52Z</time>
      </trkpt>
      <trkpt lat="42.93218" lon="0.9928">
        <ele>537.37</ele>
        <time>2019-09-06T10:39:53Z</time>
      </trkpt>
      <trkpt lat="42.93218" lon="0.99278">
        <ele>537.31</ele>
        <time>2019-09-06T10:39:54Z</time>
      </trkpt>
      <trkpt lat="42.93219" lon="0.99276">
        <ele>537.24</ele>
        <time>2019-09-06T10:39:55Z</time>
      </trkpt>
      <trkpt lat="42.93216" lon="0.9924">
        <ele>535.4</ele>
        <time>2019-09-06T10:40:14Z</time>
      </trkpt>
      <trkpt lat="42.93203" lon="0.99213">
        <ele>534.11</ele>
        <time>2019-09-06T10:40:34Z</time>
      </trkpt>
      <trkpt lat="42.93202" lon="0.99212">
        <ele>534.07</ele>
        <time>2019-09-06T10:40:35Z</time>
      </trkpt>
      <trkpt lat="42.93198" lon="0.99212">
        <ele>533.82</ele>
        <time>2019-09-06T10:40:39Z</time>
      </trkpt>
      <trkpt lat="42.93196" lon="0.99213">
        <ele>533.73</ele>
        <time>2019-09-06T10:40:41Z</time>
      </trkpt>
      <trkpt lat="42.93195" lon="0.99213">
        <ele>533.95</ele>
        <time>2019-09-06T10:40:42Z</time>
      </trkpt>
      <trkpt lat="42.93194" lon="0.99214">
        <ele>534.19</ele>
        <time>2019-09-06T10:40:43Z</time>
      </trkpt>
      <trkpt lat="42.9318" lon="0.9922">
        <ele>532.92</ele>
        <time>2019-09-06T10:40:56Z</time>
      </trkpt>
      <trkpt lat="42.93179" lon="0.99221">
        <ele>532.87</ele>
        <time>2019-09-06T10:40:57Z</time>
      </trkpt>
      <trkpt lat="42.9316" lon="0.99227">
        <ele>532.12</ele>
        <time>2019-09-06T10:41:13Z</time>
      </trkpt>
      <trkpt lat="42.93159" lon="0.99228">
        <ele>532.09</ele>
        <time>2019-09-06T10:41:14Z</time>
      </trkpt>
      <trkpt lat="42.93157" lon="0.99228">
        <ele>532.06</ele>
        <time>2019-09-06T10:41:15Z</time>
      </trkpt>
      <trkpt lat="42.9314" lon="0.9923">
        <ele>531.66</ele>
        <time>2019-09-06T10:41:30Z</time>
      </trkpt>
      <trkpt lat="42.9312" lon="0.99226">
        <ele>530.83</ele>
        <time>2019-09-06T10:41:46Z</time>
      </trkpt>
      <trkpt lat="42.93097" lon="0.99215">
        <ele>530.69</ele>
        <time>2019-09-06T10:42:06Z</time>
      </trkpt>
      <trkpt lat="42.9308" lon="0.99207">
        <ele>530.59</ele>
        <time>2019-09-06T10:42:22Z</time>
      </trkpt>
      <trkpt lat="42.93066" lon="0.99198">
        <ele>530.46</ele>
        <time>2019-09-06T10:42:34Z</time>
      </trkpt>
      <trkpt lat="42.93047" lon="0.99187">
        <ele>530.02</ele>
        <time>2019-09-06T10:42:50Z</time>
      </trkpt>
      <trkpt lat="42.93038" lon="0.99184">
        <ele>529.8</ele>
        <time>2019-09-06T10:43:05Z</time>
      </trkpt>
      <trkpt lat="42.93035" lon="0.99184">
        <ele>529.64</ele>
        <time>2019-09-06T10:43:20Z</time>
      </trkpt>
      <trkpt lat="42.93026" lon="0.99177">
        <ele>529.47</ele>
        <time>2019-09-06T10:43:50Z</time>
      </trkpt>
      <trkpt lat="42.9301" lon="0.9917">
        <ele>528.97</ele>
        <time>2019-09-06T10:44:05Z</time>
      </trkpt>
      <trkpt lat="42.93008" lon="0.9917">
        <ele>528.95</ele>
        <time>2019-09-06T10:44:06Z</time>
      </trkpt>
      <trkpt lat="42.92986" lon="0.99172">
        <ele>528.48</ele>
        <time>2019-09-06T10:44:25Z</time>
      </trkpt>
      <trkpt lat="42.92973" lon="0.99169">
        <ele>528.36</ele>
        <time>2019-09-06T10:44:34Z</time>
      </trkpt>
      <trkpt lat="42.9297" lon="0.99169">
        <ele>528.36</ele>
        <time>2019-09-06T10:44:36Z</time>
      </trkpt>
      <trkpt lat="42.92967" lon="0.99167">
        <ele>528.32</ele>
        <time>2019-09-06T10:44:39Z</time>
      </trkpt>
      <trkpt lat="42.92966" lon="0.99167">
        <ele>528.31</ele>
        <time>2019-09-06T10:44:40Z</time>
      </trkpt>
      <trkpt lat="42.92964" lon="0.99166">
        <ele>528.3</ele>
        <time>2019-09-06T10:44:41Z</time>
      </trkpt>
      <trkpt lat="42.92955" lon="0.9916">
        <ele>528.31</ele>
        <time>2019-09-06T10:44:49Z</time>
      </trkpt>
      <trkpt lat="42.92953" lon="0.99159">
        <ele>528.35</ele>
        <time>2019-09-06T10:44:50Z</time>
      </trkpt>
      <trkpt lat="42.92949" lon="0.99157">
        <ele>528.72</ele>
        <time>2019-09-06T10:44:54Z</time>
      </trkpt>
      <trkpt lat="42.92947" lon="0.99156">
        <ele>528.79</ele>
        <time>2019-09-06T10:44:55Z</time>
      </trkpt>
      <trkpt lat="42.92944" lon="0.99154">
        <ele>528.97</ele>
        <time>2019-09-06T10:44:57Z</time>
      </trkpt>
      <trkpt lat="42.92943" lon="0.99153">
        <ele>529.05</ele>
        <time>2019-09-06T10:44:58Z</time>
      </trkpt>
      <trkpt lat="42.92942" lon="0.99152">
        <ele>529.15</ele>
        <time>2019-09-06T10:44:59Z</time>
      </trkpt>
      <trkpt lat="42.92941" lon="0.99151">
        <ele>529.24</ele>
        <time>2019-09-06T10:45:00Z</time>
      </trkpt>
      <trkpt lat="42.9292" lon="0.99133">
        <ele>530.11</ele>
        <time>2019-09-06T10:45:19Z</time>
      </trkpt>
      <trkpt lat="42.92902" lon="0.99114">
        <ele>530.16</ele>
        <time>2019-09-06T10:45:38Z</time>
      </trkpt>
      <trkpt lat="42.92887" lon="0.99098">
        <ele>531.13</ele>
        <time>2019-09-06T10:45:54Z</time>
      </trkpt>
      <trkpt lat="42.92871" lon="0.99084">
        <ele>532.84</ele>
        <time>2019-09-06T10:46:11Z</time>
      </trkpt>
      <trkpt lat="42.92857" lon="0.99066">
        <ele>535.05</ele>
        <time>2019-09-06T10:46:30Z</time>
      </trkpt>
      <trkpt lat="42.92839" lon="0.99042">
        <ele>538.1</ele>
        <time>2019-09-06T10:46:52Z</time>
      </trkpt>
      <trkpt lat="42.92834" lon="0.99018">
        <ele>541.24</ele>
        <time>2019-09-06T10:47:12Z</time>
      </trkpt>
      <trkpt lat="42.92837" lon="0.99009">
        <ele>542.01</ele>
        <time>2019-09-06T10:47:18Z</time>
      </trkpt>
      <trkpt lat="42.92845" lon="0.98992">
        <ele>543.92</ele>
        <time>2019-09-06T10:47:33Z</time>
      </trkpt>
      <trkpt lat="42.92852" lon="0.98977">
        <ele>546.9</ele>
        <time>2019-09-06T10:47:48Z</time>
      </trkpt>
      <trkpt lat="42.92856" lon="0.98962">
        <ele>548.54</ele>
        <time>2019-09-06T10:47:59Z</time>
      </trkpt>
      <trkpt lat="42.92862" lon="0.98925">
        <ele>548.38</ele>
        <time>2019-09-06T10:48:18Z</time>
      </trkpt>
      <trkpt lat="42.92865" lon="0.98902">
        <ele>546.39</ele>
        <time>2019-09-06T10:48:37Z</time>
      </trkpt>
      <trkpt lat="42.92877" lon="0.98878">
        <ele>546.29</ele>
        <time>2019-09-06T10:48:56Z</time>
      </trkpt>
      <trkpt lat="42.92889" lon="0.98855">
        <ele>547.16</ele>
        <time>2019-09-06T10:49:11Z</time>
      </trkpt>
      <trkpt lat="42.92893" lon="0.98826">
        <ele>548.24</ele>
        <time>2019-09-06T10:49:28Z</time>
      </trkpt>
      <trkpt lat="42.9289" lon="0.98805">
        <ele>549.81</ele>
        <time>2019-09-06T10:49:44Z</time>
      </trkpt>
      <trkpt lat="42.92888" lon="0.98777">
        <ele>552.36</ele>
        <time>2019-09-06T10:50:01Z</time>
      </trkpt>
      <trkpt lat="42.92887" lon="0.98772">
        <ele>553.56</ele>
        <time>2019-09-06T10:50:13Z</time>
      </trkpt>
      <trkpt lat="42.92891" lon="0.98763">
        <ele>553.5</ele>
        <time>2019-09-06T10:50:34Z</time>
      </trkpt>
      <trkpt lat="42.92892" lon="0.98761">
        <ele>553.72</ele>
        <time>2019-09-06T10:50:38Z</time>
      </trkpt>
      <trkpt lat="42.92897" lon="0.98748">
        <ele>554.39</ele>
        <time>2019-09-06T10:50:51Z</time>
      </trkpt>
      <trkpt lat="42.92898" lon="0.98742">
        <ele>554.55</ele>
        <time>2019-09-06T10:50:54Z</time>
      </trkpt>
      <trkpt lat="42.92899" lon="0.9874">
        <ele>554.62</ele>
        <time>2019-09-06T10:50:55Z</time>
      </trkpt>
      <trkpt lat="42.929" lon="0.98728">
        <ele>555.46</ele>
        <time>2019-09-06T10:51:04Z</time>
      </trkpt>
      <trkpt lat="42.92904" lon="0.98707">
        <ele>556.64</ele>
        <time>2019-09-06T10:51:18Z</time>
      </trkpt>
      <trkpt lat="42.92908" lon="0.98693">
        <ele>556.64</ele>
        <time>2019-09-06T10:51:29Z</time>
      </trkpt>
      <trkpt lat="42.92915" lon="0.98675">
        <ele>556.54</ele>
        <time>2019-09-06T10:51:40Z</time>
      </trkpt>
      <trkpt lat="42.92915" lon="0.98673">
        <ele>556.54</ele>
        <time>2019-09-06T10:51:41Z</time>
      </trkpt>
      <trkpt lat="42.92918" lon="0.98654">
        <ele>556.86</ele>
        <time>2019-09-06T10:51:54Z</time>
      </trkpt>
      <trkpt lat="42.9292" lon="0.98639">
        <ele>557.36</ele>
        <time>2019-09-06T10:52:05Z</time>
      </trkpt>
      <trkpt lat="42.92923" lon="0.9862">
        <ele>557.82</ele>
        <time>2019-09-06T10:52:16Z</time>
      </trkpt>
      <trkpt lat="42.92926" lon="0.98596">
        <ele>558.63</ele>
        <time>2019-09-06T10:52:30Z</time>
      </trkpt>
      <trkpt lat="42.92926" lon="0.98593">
        <ele>558.66</ele>
        <time>2019-09-06T10:52:31Z</time>
      </trkpt>
      <trkpt lat="42.92927" lon="0.98585">
        <ele>558.72</ele>
        <time>2019-09-06T10:52:36Z</time>
      </trkpt>
      <trkpt lat="42.92933" lon="0.98562">
        <ele>558.57</ele>
        <time>2019-09-06T10:52:50Z</time>
      </trkpt>
      <trkpt lat="42.92934" lon="0.98544">
        <ele>558.74</ele>
        <time>2019-09-06T10:53:02Z</time>
      </trkpt>
      <trkpt lat="42.92934" lon="0.98519">
        <ele>559.5</ele>
        <time>2019-09-06T10:53:19Z</time>
      </trkpt>
      <trkpt lat="42.92934" lon="0.98509">
        <ele>559.6</ele>
        <time>2019-09-06T10:53:25Z</time>
      </trkpt>
      <trkpt lat="42.92934" lon="0.98506">
        <ele>559.62</ele>
        <time>2019-09-06T10:53:26Z</time>
      </trkpt>
      <trkpt lat="42.92934" lon="0.98504">
        <ele>559.63</ele>
        <time>2019-09-06T10:53:27Z</time>
      </trkpt>
      <trkpt lat="42.92922" lon="0.98482">
        <ele>559</ele>
        <time>2019-09-06T10:53:44Z</time>
      </trkpt>
      <trkpt lat="42.92906" lon="0.98473">
        <ele>557.63</ele>
        <time>2019-09-06T10:54:00Z</time>
      </trkpt>
      <trkpt lat="42.92905" lon="0.98472">
        <ele>557.59</ele>
        <time>2019-09-06T10:54:01Z</time>
      </trkpt>
      <trkpt lat="42.92893" lon="0.98438">
        <ele>554.88</ele>
        <time>2019-09-06T10:54:21Z</time>
      </trkpt>
      <trkpt lat="42.929" lon="0.98419">
        <ele>554.42</ele>
        <time>2019-09-06T10:54:33Z</time>
      </trkpt>
      <trkpt lat="42.92907" lon="0.98412">
        <ele>555.12</ele>
        <time>2019-09-06T10:54:40Z</time>
      </trkpt>
      <trkpt lat="42.92914" lon="0.98399">
        <ele>557.07</ele>
        <time>2019-09-06T10:54:55Z</time>
      </trkpt>
      <trkpt lat="42.92921" lon="0.98388">
        <ele>558.89</ele>
        <time>2019-09-06T10:55:08Z</time>
      </trkpt>
      <trkpt lat="42.92928" lon="0.98375">
        <ele>561.77</ele>
        <time>2019-09-06T10:55:25Z</time>
      </trkpt>
      <trkpt lat="42.92934" lon="0.98363">
        <ele>564.82</ele>
        <time>2019-09-06T10:55:41Z</time>
      </trkpt>
      <trkpt lat="42.9294" lon="0.98351">
        <ele>567.91</ele>
        <time>2019-09-06T10:55:57Z</time>
      </trkpt>
      <trkpt lat="42.92943" lon="0.98337">
        <ele>570.91</ele>
        <time>2019-09-06T10:56:14Z</time>
      </trkpt>
      <trkpt lat="42.92942" lon="0.98329">
        <ele>572.75</ele>
        <time>2019-09-06T10:56:34Z</time>
      </trkpt>
      <trkpt lat="42.92936" lon="0.98315">
        <ele>575.51</ele>
        <time>2019-09-06T10:56:49Z</time>
      </trkpt>
      <trkpt lat="42.92935" lon="0.98307">
        <ele>576.87</ele>
        <time>2019-09-06T10:56:56Z</time>
      </trkpt>
      <trkpt lat="42.92934" lon="0.98295">
        <ele>580.14</ele>
        <time>2019-09-06T10:57:12Z</time>
      </trkpt>
      <trkpt lat="42.92931" lon="0.9828">
        <ele>581.9</ele>
        <time>2019-09-06T10:57:26Z</time>
      </trkpt>
      <trkpt lat="42.92928" lon="0.98266">
        <ele>583.88</ele>
        <time>2019-09-06T10:57:40Z</time>
      </trkpt>
      <trkpt lat="42.92921" lon="0.98246">
        <ele>585.23</ele>
        <time>2019-09-06T10:57:54Z</time>
      </trkpt>
      <trkpt lat="42.9291" lon="0.98229">
        <ele>585.69</ele>
        <time>2019-09-06T10:58:12Z</time>
      </trkpt>
      <trkpt lat="42.92904" lon="0.98205">
        <ele>585.89</ele>
        <time>2019-09-06T10:58:28Z</time>
      </trkpt>
      <trkpt lat="42.92896" lon="0.98177">
        <ele>585.9</ele>
        <time>2019-09-06T10:58:45Z</time>
      </trkpt>
      <trkpt lat="42.92896" lon="0.98157">
        <ele>585.68</ele>
        <time>2019-09-06T10:59:03Z</time>
      </trkpt>
      <trkpt lat="42.92891" lon="0.98122">
        <ele>584.87</ele>
        <time>2019-09-06T10:59:17Z</time>
      </trkpt>
      <trkpt lat="42.9289" lon="0.98094">
        <ele>583.03</ele>
        <time>2019-09-06T10:59:37Z</time>
      </trkpt>
      <trkpt lat="42.9289" lon="0.98067">
        <ele>581.6</ele>
        <time>2019-09-06T10:59:52Z</time>
      </trkpt>
      <trkpt lat="42.92889" lon="0.9805">
        <ele>580.33</ele>
        <time>2019-09-06T11:00:10Z</time>
      </trkpt>
      <trkpt lat="42.92887" lon="0.98019">
        <ele>577.35</ele>
        <time>2019-09-06T11:00:29Z</time>
      </trkpt>
      <trkpt lat="42.92885" lon="0.97989">
        <ele>574.26</ele>
        <time>2019-09-06T11:00:46Z</time>
      </trkpt>
      <trkpt lat="42.92881" lon="0.97969">
        <ele>571.17</ele>
        <time>2019-09-06T11:01:00Z</time>
      </trkpt>
      <trkpt lat="42.92874" lon="0.97928">
        <ele>568.22</ele>
        <time>2019-09-06T11:01:18Z</time>
      </trkpt>
      <trkpt lat="42.92862" lon="0.97894">
        <ele>566.27</ele>
        <time>2019-09-06T11:01:39Z</time>
      </trkpt>
      <trkpt lat="42.9285" lon="0.97871">
        <ele>565.12</ele>
        <time>2019-09-06T11:01:56Z</time>
      </trkpt>
      <trkpt lat="42.92833" lon="0.97837">
        <ele>562.3</ele>
        <time>2019-09-06T11:02:16Z</time>
      </trkpt>
      <trkpt lat="42.92831" lon="0.97831">
        <ele>559.43</ele>
        <time>2019-09-06T11:02:27Z</time>
      </trkpt>
      <trkpt lat="42.92835" lon="0.97822">
        <ele>555.86</ele>
        <time>2019-09-06T11:02:37Z</time>
      </trkpt>
      <trkpt lat="42.92845" lon="0.97812">
        <ele>552.76</ele>
        <time>2019-09-06T11:02:49Z</time>
      </trkpt>
      <trkpt lat="42.92864" lon="0.97809">
        <ele>550.39</ele>
        <time>2019-09-06T11:03:08Z</time>
      </trkpt>
      <trkpt lat="42.92879" lon="0.97817">
        <ele>552.04</ele>
        <time>2019-09-06T11:03:26Z</time>
      </trkpt>
      <trkpt lat="42.92893" lon="0.97816">
        <ele>554.18</ele>
        <time>2019-09-06T11:03:43Z</time>
      </trkpt>
      <trkpt lat="42.92909" lon="0.97814">
        <ele>557.16</ele>
        <time>2019-09-06T11:04:02Z</time>
      </trkpt>
      <trkpt lat="42.92927" lon="0.97818">
        <ele>559.62</ele>
        <time>2019-09-06T11:04:18Z</time>
      </trkpt>
      <trkpt lat="42.9294" lon="0.97827">
        <ele>561.71</ele>
        <time>2019-09-06T11:04:35Z</time>
      </trkpt>
      <trkpt lat="42.92955" lon="0.97834">
        <ele>564.1</ele>
        <time>2019-09-06T11:04:53Z</time>
      </trkpt>
      <trkpt lat="42.92958" lon="0.97835">
        <ele>564.46</ele>
        <time>2019-09-06T11:04:56Z</time>
      </trkpt>
      <trkpt lat="42.92975" lon="0.9784">
        <ele>567.59</ele>
        <time>2019-09-06T11:05:16Z</time>
      </trkpt>
      <trkpt lat="42.92981" lon="0.9784">
        <ele>570.61</ele>
        <time>2019-09-06T11:05:32Z</time>
      </trkpt>
      <trkpt lat="42.92999" lon="0.9783">
        <ele>572</ele>
        <time>2019-09-06T11:05:49Z</time>
      </trkpt>
      <trkpt lat="42.93016" lon="0.97816">
        <ele>569.47</ele>
        <time>2019-09-06T11:06:08Z</time>
      </trkpt>
      <trkpt lat="42.93036" lon="0.97791">
        <ele>567.91</ele>
        <time>2019-09-06T11:06:27Z</time>
      </trkpt>
      <trkpt lat="42.9305" lon="0.9777">
        <ele>566.62</ele>
        <time>2019-09-06T11:06:44Z</time>
      </trkpt>
      <trkpt lat="42.93056" lon="0.97749">
        <ele>565.78</ele>
        <time>2019-09-06T11:06:58Z</time>
      </trkpt>
      <trkpt lat="42.9307" lon="0.97725">
        <ele>564.72</ele>
        <time>2019-09-06T11:07:14Z</time>
      </trkpt>
      <trkpt lat="42.93083" lon="0.97711">
        <ele>564.32</ele>
        <time>2019-09-06T11:07:28Z</time>
      </trkpt>
      <trkpt lat="42.93093" lon="0.97694">
        <ele>564.65</ele>
        <time>2019-09-06T11:07:43Z</time>
      </trkpt>
      <trkpt lat="42.93102" lon="0.97677">
        <ele>564.38</ele>
        <time>2019-09-06T11:07:55Z</time>
      </trkpt>
      <trkpt lat="42.93109" lon="0.97662">
        <ele>564.28</ele>
        <time>2019-09-06T11:08:08Z</time>
      </trkpt>
      <trkpt lat="42.93121" lon="0.97646">
        <ele>564.16</ele>
        <time>2019-09-06T11:08:22Z</time>
      </trkpt>
      <trkpt lat="42.9313" lon="0.97632">
        <ele>564.15</ele>
        <time>2019-09-06T11:08:35Z</time>
      </trkpt>
      <trkpt lat="42.93147" lon="0.97606">
        <ele>564.02</ele>
        <time>2019-09-06T11:08:53Z</time>
      </trkpt>
      <trkpt lat="42.93158" lon="0.97588">
        <ele>564.28</ele>
        <time>2019-09-06T11:09:06Z</time>
      </trkpt>
      <trkpt lat="42.93166" lon="0.97579">
        <ele>564.31</ele>
        <time>2019-09-06T11:09:14Z</time>
      </trkpt>
      <trkpt lat="42.93174" lon="0.97562">
        <ele>563.42</ele>
        <time>2019-09-06T11:09:28Z</time>
      </trkpt>
      <trkpt lat="42.93176" lon="0.97559">
        <ele>563.2</ele>
        <time>2019-09-06T11:09:31Z</time>
      </trkpt>
      <trkpt lat="42.93183" lon="0.97551">
        <ele>562.87</ele>
        <time>2019-09-06T11:09:38Z</time>
      </trkpt>
      <trkpt lat="42.93192" lon="0.97535">
        <ele>562.56</ele>
        <time>2019-09-06T11:09:49Z</time>
      </trkpt>
      <trkpt lat="42.93197" lon="0.97517">
        <ele>562.63</ele>
        <time>2019-09-06T11:10:01Z</time>
      </trkpt>
      <trkpt lat="42.93199" lon="0.97515">
        <ele>562.51</ele>
        <time>2019-09-06T11:10:02Z</time>
      </trkpt>
      <trkpt lat="42.93199" lon="0.97513">
        <ele>562.33</ele>
        <time>2019-09-06T11:10:03Z</time>
      </trkpt>
      <trkpt lat="42.932" lon="0.97511">
        <ele>562.1</ele>
        <time>2019-09-06T11:10:04Z</time>
      </trkpt>
      <trkpt lat="42.932" lon="0.97509">
        <ele>561.85</ele>
        <time>2019-09-06T11:10:05Z</time>
      </trkpt>
      <trkpt lat="42.93201" lon="0.97508">
        <ele>561.85</ele>
        <time>2019-09-06T11:10:06Z</time>
      </trkpt>
      <trkpt lat="42.93202" lon="0.97506">
        <ele>561.68</ele>
        <time>2019-09-06T11:10:07Z</time>
      </trkpt>
      <trkpt lat="42.93202" lon="0.97505">
        <ele>561.39</ele>
        <time>2019-09-06T11:10:08Z</time>
      </trkpt>
      <trkpt lat="42.93223" lon="0.97491">
        <ele>558.52</ele>
        <time>2019-09-06T11:10:26Z</time>
      </trkpt>
      <trkpt lat="42.93244" lon="0.975">
        <ele>556.92</ele>
        <time>2019-09-06T11:10:43Z</time>
      </trkpt>
      <trkpt lat="42.93263" lon="0.97493">
        <ele>556.7</ele>
        <time>2019-09-06T11:11:00Z</time>
      </trkpt>
      <trkpt lat="42.93269" lon="0.97485">
        <ele>556.51</ele>
        <time>2019-09-06T11:11:07Z</time>
      </trkpt>
      <trkpt lat="42.9328" lon="0.97465">
        <ele>555.54</ele>
        <time>2019-09-06T11:11:22Z</time>
      </trkpt>
      <trkpt lat="42.93303" lon="0.97463">
        <ele>552.61</ele>
        <time>2019-09-06T11:11:39Z</time>
      </trkpt>
      <trkpt lat="42.93308" lon="0.97463">
        <ele>551.73</ele>
        <time>2019-09-06T11:11:54Z</time>
      </trkpt>
      <trkpt lat="42.93311" lon="0.97463">
        <ele>551.72</ele>
        <time>2019-09-06T11:11:57Z</time>
      </trkpt>
      <trkpt lat="42.93315" lon="0.97465">
        <ele>551.17</ele>
        <time>2019-09-06T11:12:02Z</time>
      </trkpt>
      <trkpt lat="42.93316" lon="0.97465">
        <ele>551.01</ele>
        <time>2019-09-06T11:12:03Z</time>
      </trkpt>
      <trkpt lat="42.93334" lon="0.97474">
        <ele>548.71</ele>
        <time>2019-09-06T11:12:19Z</time>
      </trkpt>
      <trkpt lat="42.93357" lon="0.97492">
        <ele>546.91</ele>
        <time>2019-09-06T11:12:37Z</time>
      </trkpt>
      <trkpt lat="42.93381" lon="0.97515">
        <ele>544.73</ele>
        <time>2019-09-06T11:12:58Z</time>
      </trkpt>
      <trkpt lat="42.93403" lon="0.97522">
        <ele>543.33</ele>
        <time>2019-09-06T11:13:16Z</time>
      </trkpt>
      <trkpt lat="42.93416" lon="0.97511">
        <ele>542.98</ele>
        <time>2019-09-06T11:13:30Z</time>
      </trkpt>
      <trkpt lat="42.93425" lon="0.97497">
        <ele>543.26</ele>
        <time>2019-09-06T11:13:41Z</time>
      </trkpt>
      <trkpt lat="42.93428" lon="0.97492">
        <ele>543.26</ele>
        <time>2019-09-06T11:13:44Z</time>
      </trkpt>
      <trkpt lat="42.93429" lon="0.9749">
        <ele>543.26</ele>
        <time>2019-09-06T11:13:45Z</time>
      </trkpt>
      <trkpt lat="42.93448" lon="0.97465">
        <ele>543.5</ele>
        <time>2019-09-06T11:14:06Z</time>
      </trkpt>
      <trkpt lat="42.93457" lon="0.97438">
        <ele>543.81</ele>
        <time>2019-09-06T11:14:24Z</time>
      </trkpt>
      <trkpt lat="42.93458" lon="0.97433">
        <ele>544.12</ele>
        <time>2019-09-06T11:14:37Z</time>
      </trkpt>
      <trkpt lat="42.93459" lon="0.97431">
        <ele>544.14</ele>
        <time>2019-09-06T11:14:38Z</time>
      </trkpt>
      <trkpt lat="42.93464" lon="0.97415">
        <ele>544.06</ele>
        <time>2019-09-06T11:14:50Z</time>
      </trkpt>
      <trkpt lat="42.93465" lon="0.97413">
        <ele>544.05</ele>
        <time>2019-09-06T11:14:51Z</time>
      </trkpt>
      <trkpt lat="42.93479" lon="0.97394">
        <ele>545.42</ele>
        <time>2019-09-06T11:15:09Z</time>
      </trkpt>
      <trkpt lat="42.93486" lon="0.97396">
        <ele>545.93</ele>
        <time>2019-09-06T11:15:16Z</time>
      </trkpt>
      <trkpt lat="42.93507" lon="0.97413">
        <ele>546.79</ele>
        <time>2019-09-06T11:15:35Z</time>
      </trkpt>
      <trkpt lat="42.93531" lon="0.97413">
        <ele>546.05</ele>
        <time>2019-09-06T11:15:58Z</time>
      </trkpt>
      <trkpt lat="42.9355" lon="0.97413">
        <ele>545.67</ele>
        <time>2019-09-06T11:16:15Z</time>
      </trkpt>
      <trkpt lat="42.93552" lon="0.97413">
        <ele>545.73</ele>
        <time>2019-09-06T11:16:16Z</time>
      </trkpt>
      <trkpt lat="42.93575" lon="0.97408">
        <ele>547.15</ele>
        <time>2019-09-06T11:16:34Z</time>
      </trkpt>
      <trkpt lat="42.93596" lon="0.97391">
        <ele>546.33</ele>
        <time>2019-09-06T11:16:54Z</time>
      </trkpt>
      <trkpt lat="42.93611" lon="0.97379">
        <ele>546.14</ele>
        <time>2019-09-06T11:17:08Z</time>
      </trkpt>
      <trkpt lat="42.93625" lon="0.97358">
        <ele>546.97</ele>
        <time>2019-09-06T11:17:27Z</time>
      </trkpt>
      <trkpt lat="42.93641" lon="0.97339">
        <ele>546.96</ele>
        <time>2019-09-06T11:17:43Z</time>
      </trkpt>
      <trkpt lat="42.93654" lon="0.97319">
        <ele>547.24</ele>
        <time>2019-09-06T11:17:59Z</time>
      </trkpt>
      <trkpt lat="42.93666" lon="0.97295">
        <ele>547.66</ele>
        <time>2019-09-06T11:18:15Z</time>
      </trkpt>
      <trkpt lat="42.9368" lon="0.97275">
        <ele>547.87</ele>
        <time>2019-09-06T11:18:32Z</time>
      </trkpt>
      <trkpt lat="42.93679" lon="0.97272">
        <ele>548.09</ele>
        <time>2019-09-06T11:18:47Z</time>
      </trkpt>
      <trkpt lat="42.93681" lon="0.97269">
        <ele>547.98</ele>
        <time>2019-09-06T11:19:03Z</time>
      </trkpt>
      <trkpt lat="42.93683" lon="0.97266">
        <ele>547.98</ele>
        <time>2019-09-06T11:19:05Z</time>
      </trkpt>
      <trkpt lat="42.93691" lon="0.97247">
        <ele>547.98</ele>
        <time>2019-09-06T11:19:20Z</time>
      </trkpt>
      <trkpt lat="42.93693" lon="0.97223">
        <ele>548.09</ele>
        <time>2019-09-06T11:19:35Z</time>
      </trkpt>
      <trkpt lat="42.93697" lon="0.97204">
        <ele>548.34</ele>
        <time>2019-09-06T11:19:47Z</time>
      </trkpt>
      <trkpt lat="42.93698" lon="0.97202">
        <ele>548.38</ele>
        <time>2019-09-06T11:19:48Z</time>
      </trkpt>
      <trkpt lat="42.93698" lon="0.972">
        <ele>548.43</ele>
        <time>2019-09-06T11:19:49Z</time>
      </trkpt>
      <trkpt lat="42.93702" lon="0.97182">
        <ele>548.66</ele>
        <time>2019-09-06T11:20:01Z</time>
      </trkpt>
      <trkpt lat="42.93705" lon="0.97164">
        <ele>548.89</ele>
        <time>2019-09-06T11:20:14Z</time>
      </trkpt>
      <trkpt lat="42.93708" lon="0.97141">
        <ele>549.01</ele>
        <time>2019-09-06T11:20:29Z</time>
      </trkpt>
      <trkpt lat="42.93714" lon="0.97119">
        <ele>549.2</ele>
        <time>2019-09-06T11:20:41Z</time>
      </trkpt>
      <trkpt lat="42.93719" lon="0.97105">
        <ele>549.5</ele>
        <time>2019-09-06T11:20:54Z</time>
      </trkpt>
      <trkpt lat="42.93727" lon="0.97082">
        <ele>549.86</ele>
        <time>2019-09-06T11:21:11Z</time>
      </trkpt>
      <trkpt lat="42.9374" lon="0.97059">
        <ele>550.38</ele>
        <time>2019-09-06T11:21:27Z</time>
      </trkpt>
      <trkpt lat="42.9375" lon="0.97045">
        <ele>551.05</ele>
        <time>2019-09-06T11:21:39Z</time>
      </trkpt>
      <trkpt lat="42.93757" lon="0.97036">
        <ele>551.77</ele>
        <time>2019-09-06T11:21:51Z</time>
      </trkpt>
      <trkpt lat="42.93766" lon="0.97024">
        <ele>552.53</ele>
        <time>2019-09-06T11:22:08Z</time>
      </trkpt>
      <trkpt lat="42.93782" lon="0.97013">
        <ele>553.93</ele>
        <time>2019-09-06T11:22:25Z</time>
      </trkpt>
      <trkpt lat="42.93787" lon="0.97011">
        <ele>554.59</ele>
        <time>2019-09-06T11:22:30Z</time>
      </trkpt>
      <trkpt lat="42.93788" lon="0.9701">
        <ele>554.73</ele>
        <time>2019-09-06T11:22:31Z</time>
      </trkpt>
      <trkpt lat="42.93794" lon="0.97004">
        <ele>555.59</ele>
        <time>2019-09-06T11:22:39Z</time>
      </trkpt>
      <trkpt lat="42.93795" lon="0.97008">
        <ele>556.19</ele>
        <time>2019-09-06T11:22:52Z</time>
      </trkpt>
      <trkpt lat="42.93801" lon="0.97017">
        <ele>557.29</ele>
        <time>2019-09-06T11:23:09Z</time>
      </trkpt>
      <trkpt lat="42.93811" lon="0.97015">
        <ele>559.83</ele>
        <time>2019-09-06T11:23:28Z</time>
      </trkpt>
      <trkpt lat="42.93823" lon="0.9701">
        <ele>562.96</ele>
        <time>2019-09-06T11:23:45Z</time>
      </trkpt>
      <trkpt lat="42.93832" lon="0.97011">
        <ele>565.99</ele>
        <time>2019-09-06T11:24:03Z</time>
      </trkpt>
      <trkpt lat="42.93841" lon="0.97009">
        <ele>569.03</ele>
        <time>2019-09-06T11:24:19Z</time>
      </trkpt>
      <trkpt lat="42.9385" lon="0.97001">
        <ele>572.04</ele>
        <time>2019-09-06T11:24:39Z</time>
      </trkpt>
      <trkpt lat="42.93865" lon="0.9699">
        <ele>575.05</ele>
        <time>2019-09-06T11:24:57Z</time>
      </trkpt>
      <trkpt lat="42.93875" lon="0.96984">
        <ele>578.13</ele>
        <time>2019-09-06T11:25:15Z</time>
      </trkpt>
      <trkpt lat="42.93879" lon="0.96988">
        <ele>578.61</ele>
        <time>2019-09-06T11:25:54Z</time>
      </trkpt>
      <trkpt lat="42.93885" lon="0.96984">
        <ele>580.24</ele>
        <time>2019-09-06T11:26:24Z</time>
      </trkpt>
      <trkpt lat="42.93894" lon="0.96973">
        <ele>583.38</ele>
        <time>2019-09-06T11:26:42Z</time>
      </trkpt>
      <trkpt lat="42.93905" lon="0.96964">
        <ele>586.42</ele>
        <time>2019-09-06T11:26:59Z</time>
      </trkpt>
      <trkpt lat="42.93918" lon="0.96951">
        <ele>589.35</ele>
        <time>2019-09-06T11:27:17Z</time>
      </trkpt>
      <trkpt lat="42.93928" lon="0.96944">
        <ele>592.48</ele>
        <time>2019-09-06T11:27:36Z</time>
      </trkpt>
      <trkpt lat="42.93936" lon="0.96935">
        <ele>595.26</ele>
        <time>2019-09-06T11:27:56Z</time>
      </trkpt>
      <trkpt lat="42.93951" lon="0.96922">
        <ele>598.34</ele>
        <time>2019-09-06T11:28:14Z</time>
      </trkpt>
      <trkpt lat="42.9396" lon="0.96911">
        <ele>601.4</ele>
        <time>2019-09-06T11:28:35Z</time>
      </trkpt>
      <trkpt lat="42.9397" lon="0.96901">
        <ele>604.48</ele>
        <time>2019-09-06T11:28:54Z</time>
      </trkpt>
      <trkpt lat="42.93983" lon="0.96887">
        <ele>607.63</ele>
        <time>2019-09-06T11:29:13Z</time>
      </trkpt>
      <trkpt lat="42.93994" lon="0.96876">
        <ele>610.51</ele>
        <time>2019-09-06T11:29:33Z</time>
      </trkpt>
      <trkpt lat="42.93999" lon="0.96869">
        <ele>612.7</ele>
        <time>2019-09-06T11:29:56Z</time>
      </trkpt>
      <trkpt lat="42.94006" lon="0.96864">
        <ele>613.55</ele>
        <time>2019-09-06T11:30:23Z</time>
      </trkpt>
      <trkpt lat="42.94012" lon="0.96847">
        <ele>616.46</ele>
        <time>2019-09-06T11:30:42Z</time>
      </trkpt>
      <trkpt lat="42.94019" lon="0.96834">
        <ele>619.56</ele>
        <time>2019-09-06T11:30:59Z</time>
      </trkpt>
      <trkpt lat="42.94026" lon="0.96818">
        <ele>622.65</ele>
        <time>2019-09-06T11:31:18Z</time>
      </trkpt>
      <trkpt lat="42.9403" lon="0.96809">
        <ele>625.69</ele>
        <time>2019-09-06T11:31:34Z</time>
      </trkpt>
      <trkpt lat="42.94039" lon="0.96797">
        <ele>628.58</ele>
        <time>2019-09-06T11:32:01Z</time>
      </trkpt>
      <trkpt lat="42.94043" lon="0.96789">
        <ele>631.61</ele>
        <time>2019-09-06T11:32:18Z</time>
      </trkpt>
      <trkpt lat="42.94043" lon="0.96792">
        <ele>631.92</ele>
        <time>2019-09-06T11:32:57Z</time>
      </trkpt>
      <trkpt lat="42.94052" lon="0.96785">
        <ele>632.37</ele>
        <time>2019-09-06T11:33:36Z</time>
      </trkpt>
      <trkpt lat="42.94055" lon="0.96772">
        <ele>635.45</ele>
        <time>2019-09-06T11:33:51Z</time>
      </trkpt>
      <trkpt lat="42.94056" lon="0.96757">
        <ele>638.53</ele>
        <time>2019-09-06T11:34:09Z</time>
      </trkpt>
      <trkpt lat="42.94057" lon="0.96742">
        <ele>641.55</ele>
        <time>2019-09-06T11:34:24Z</time>
      </trkpt>
      <trkpt lat="42.9406" lon="0.9672">
        <ele>644.67</ele>
        <time>2019-09-06T11:34:41Z</time>
      </trkpt>
      <trkpt lat="42.94063" lon="0.96701">
        <ele>647.53</ele>
        <time>2019-09-06T11:34:59Z</time>
      </trkpt>
      <trkpt lat="42.94066" lon="0.96681">
        <ele>650.63</ele>
        <time>2019-09-06T11:35:18Z</time>
      </trkpt>
      <trkpt lat="42.94069" lon="0.96661">
        <ele>653.66</ele>
        <time>2019-09-06T11:35:36Z</time>
      </trkpt>
      <trkpt lat="42.94073" lon="0.96642">
        <ele>656.78</ele>
        <time>2019-09-06T11:35:54Z</time>
      </trkpt>
      <trkpt lat="42.94078" lon="0.96626">
        <ele>659.8</ele>
        <time>2019-09-06T11:36:13Z</time>
      </trkpt>
      <trkpt lat="42.94081" lon="0.96603">
        <ele>662.83</ele>
        <time>2019-09-06T11:36:32Z</time>
      </trkpt>
      <trkpt lat="42.94084" lon="0.9659">
        <ele>665.62</ele>
        <time>2019-09-06T11:36:50Z</time>
      </trkpt>
      <trkpt lat="42.94087" lon="0.96574">
        <ele>668.49</ele>
        <time>2019-09-06T11:37:07Z</time>
      </trkpt>
      <trkpt lat="42.94088" lon="0.9657">
        <ele>669.49</ele>
        <time>2019-09-06T11:37:13Z</time>
      </trkpt>
      <trkpt lat="42.94091" lon="0.96548">
        <ele>672.5</ele>
        <time>2019-09-06T11:37:30Z</time>
      </trkpt>
      <trkpt lat="42.94094" lon="0.96537">
        <ele>675.33</ele>
        <time>2019-09-06T11:37:43Z</time>
      </trkpt>
      <trkpt lat="42.94094" lon="0.96534">
        <ele>676.63</ele>
        <time>2019-09-06T11:38:05Z</time>
      </trkpt>
      <trkpt lat="42.94097" lon="0.96514">
        <ele>678.61</ele>
        <time>2019-09-06T11:38:23Z</time>
      </trkpt>
      <trkpt lat="42.94099" lon="0.96494">
        <ele>681.63</ele>
        <time>2019-09-06T11:38:40Z</time>
      </trkpt>
      <trkpt lat="42.94103" lon="0.96475">
        <ele>684.49</ele>
        <time>2019-09-06T11:38:57Z</time>
      </trkpt>
      <trkpt lat="42.94108" lon="0.96458">
        <ele>687.48</ele>
        <time>2019-09-06T11:39:14Z</time>
      </trkpt>
      <trkpt lat="42.94113" lon="0.9644">
        <ele>690.62</ele>
        <time>2019-09-06T11:39:32Z</time>
      </trkpt>
      <trkpt lat="42.94116" lon="0.96427">
        <ele>693.27</ele>
        <time>2019-09-06T11:39:52Z</time>
      </trkpt>
      <trkpt lat="42.94118" lon="0.96411">
        <ele>695.03</ele>
        <time>2019-09-06T11:40:07Z</time>
      </trkpt>
      <trkpt lat="42.94115" lon="0.96402">
        <ele>695.91</ele>
        <time>2019-09-06T11:40:14Z</time>
      </trkpt>
      <trkpt lat="42.9411" lon="0.96384">
        <ele>697.57</ele>
        <time>2019-09-06T11:40:29Z</time>
      </trkpt>
      <trkpt lat="42.94106" lon="0.96359">
        <ele>699.25</ele>
        <time>2019-09-06T11:40:48Z</time>
      </trkpt>
      <trkpt lat="42.94106" lon="0.96356">
        <ele>699.42</ele>
        <time>2019-09-06T11:40:50Z</time>
      </trkpt>
      <trkpt lat="42.94104" lon="0.96332">
        <ele>701.16</ele>
        <time>2019-09-06T11:41:08Z</time>
      </trkpt>
      <trkpt lat="42.94105" lon="0.96307">
        <ele>703.33</ele>
        <time>2019-09-06T11:41:24Z</time>
      </trkpt>
      <trkpt lat="42.94113" lon="0.96299">
        <ele>704.79</ele>
        <time>2019-09-06T11:41:39Z</time>
      </trkpt>
      <trkpt lat="42.94122" lon="0.96298">
        <ele>705.82</ele>
        <time>2019-09-06T11:41:49Z</time>
      </trkpt>
      <trkpt lat="42.94125" lon="0.96299">
        <ele>706.06</ele>
        <time>2019-09-06T11:41:51Z</time>
      </trkpt>
      <trkpt lat="42.94127" lon="0.96298">
        <ele>706.19</ele>
        <time>2019-09-06T11:41:53Z</time>
      </trkpt>
      <trkpt lat="42.94128" lon="0.96298">
        <ele>706.26</ele>
        <time>2019-09-06T11:41:54Z</time>
      </trkpt>
      <trkpt lat="42.94146" lon="0.96294">
        <ele>709.19</ele>
        <time>2019-09-06T11:42:12Z</time>
      </trkpt>
      <trkpt lat="42.94146" lon="0.96291">
        <ele>710.42</ele>
        <time>2019-09-06T11:42:43Z</time>
      </trkpt>
      <trkpt lat="42.94144" lon="0.96292">
        <ele>710</ele>
        <time>2019-09-06T11:43:18Z</time>
      </trkpt>
      <trkpt lat="42.94144" lon="0.96291">
        <ele>706.37</ele>
        <time>2019-09-06T11:43:30Z</time>
      </trkpt>
      <trkpt lat="42.94144" lon="0.96291">
        <ele>708.21</ele>
        <time>2019-09-06T11:43:31Z</time>
      </trkpt>
      <trkpt lat="42.94144" lon="0.96292">
        <ele>709.86</ele>
        <time>2019-09-06T11:43:34Z</time>
      </trkpt>
      <trkpt lat="42.94144" lon="0.96293">
        <ele>710.11</ele>
        <time>2019-09-06T11:43:58Z</time>
      </trkpt>
      <trkpt lat="42.94144" lon="0.96293">
        <ele>710.11</ele>
        <time>2019-09-06T11:44:32Z</time>
      </trkpt>
      <trkpt lat="42.94144" lon="0.96293">
        <ele>710.11</ele>
        <time>2019-09-06T11:45:02Z</time>
      </trkpt>
      <trkpt lat="42.94143" lon="0.96294">
        <ele>710.11</ele>
        <time>2019-09-06T11:45:27Z</time>
      </trkpt>
      <trkpt lat="42.94145" lon="0.96292">
        <ele>710.11</ele>
        <time>2019-09-06T11:45:51Z</time>
      </trkpt>
      <trkpt lat="42.94145" lon="0.96292">
        <ele>710.11</ele>
        <time>2019-09-06T11:46:09Z</time>
      </trkpt>
      <trkpt lat="42.94145" lon="0.96295">
        <ele>710.11</ele>
        <time>2019-09-06T11:46:45Z</time>
      </trkpt>
      <trkpt lat="42.94145" lon="0.96298">
        <ele>710.11</ele>
        <time>2019-09-06T11:47:19Z</time>
      </trkpt>
      <trkpt lat="42.94145" lon="0.96298">
        <ele>710.11</ele>
        <time>2019-09-06T11:47:51Z</time>
      </trkpt>
      <trkpt lat="42.94145" lon="0.96298">
        <ele>710.11</ele>
        <time>2019-09-06T11:48:21Z</time>
      </trkpt>
      <trkpt lat="42.94145" lon="0.96297">
        <ele>710.11</ele>
        <time>2019-09-06T11:48:57Z</time>
      </trkpt>
      <trkpt lat="42.94144" lon="0.96297">
        <ele>710.11</ele>
        <time>2019-09-06T11:49:46Z</time>
      </trkpt>
      <trkpt lat="42.94145" lon="0.96294">
        <ele>710.11</ele>
        <time>2019-09-06T11:50:12Z</time>
      </trkpt>
      <trkpt lat="42.94145" lon="0.96293">
        <ele>710.11</ele>
        <time>2019-09-06T11:50:30Z</time>
      </trkpt>
      <trkpt lat="42.94143" lon="0.96294">
        <ele>710.11</ele>
        <time>2019-09-06T11:51:06Z</time>
      </trkpt>
      <trkpt lat="42.94146" lon="0.96292">
        <ele>710.11</ele>
        <time>2019-09-06T11:51:27Z</time>
      </trkpt>
      <trkpt lat="42.94147" lon="0.96291">
        <ele>710.11</ele>
        <time>2019-09-06T11:51:28Z</time>
      </trkpt>
      <trkpt lat="42.9416" lon="0.9629">
        <ele>712.88</ele>
        <time>2019-09-06T11:51:46Z</time>
      </trkpt>
      <trkpt lat="42.94161" lon="0.96291">
        <ele>712.59</ele>
        <time>2019-09-06T11:52:15Z</time>
      </trkpt>
      <trkpt lat="42.94161" lon="0.96291">
        <ele>712.65</ele>
        <time>2019-09-06T11:53:03Z</time>
      </trkpt>
      <trkpt lat="42.94162" lon="0.96296">
        <ele>712.85</ele>
        <time>2019-09-06T11:53:58Z</time>
      </trkpt>
      <trkpt lat="42.94162" lon="0.96298">
        <ele>712.85</ele>
        <time>2019-09-06T11:54:41Z</time>
      </trkpt>
      <trkpt lat="42.94163" lon="0.96292">
        <ele>712.85</ele>
        <time>2019-09-06T11:55:44Z</time>
      </trkpt>
      <trkpt lat="42.94163" lon="0.96299">
        <ele>712.85</ele>
        <time>2019-09-06T11:56:48Z</time>
      </trkpt>
      <trkpt lat="42.94162" lon="0.96298">
        <ele>712.85</ele>
        <time>2019-09-06T11:57:33Z</time>
      </trkpt>
      <trkpt lat="42.94163" lon="0.96304">
        <ele>712.85</ele>
        <time>2019-09-06T11:58:14Z</time>
      </trkpt>
      <trkpt lat="42.94167" lon="0.96308">
        <ele>712.85</ele>
        <time>2019-09-06T11:58:46Z</time>
      </trkpt>
      <trkpt lat="42.94165" lon="0.96303">
        <ele>712.85</ele>
        <time>2019-09-06T11:59:14Z</time>
      </trkpt>
      <trkpt lat="42.94164" lon="0.96295">
        <ele>712.85</ele>
        <time>2019-09-06T11:59:42Z</time>
      </trkpt>
      <trkpt lat="42.94164" lon="0.96296">
        <ele>712.85</ele>
        <time>2019-09-06T12:00:08Z</time>
      </trkpt>
      <trkpt lat="42.94163" lon="0.96297">
        <ele>712.85</ele>
        <time>2019-09-06T12:00:36Z</time>
      </trkpt>
      <trkpt lat="42.94162" lon="0.96294">
        <ele>712.85</ele>
        <time>2019-09-06T12:01:01Z</time>
      </trkpt>
      <trkpt lat="42.94162" lon="0.9629">
        <ele>712.85</ele>
        <time>2019-09-06T12:01:28Z</time>
      </trkpt>
      <trkpt lat="42.9416" lon="0.96315">
        <ele>712.65</ele>
        <time>2019-09-06T12:01:55Z</time>
      </trkpt>
      <trkpt lat="42.94162" lon="0.96299">
        <ele>712.78</ele>
        <time>2019-09-06T12:02:16Z</time>
      </trkpt>
      <trkpt lat="42.94161" lon="0.96285">
        <ele>712.09</ele>
        <time>2019-09-06T12:02:48Z</time>
      </trkpt>
      <trkpt lat="42.94161" lon="0.96281">
        <ele>712.59</ele>
        <time>2019-09-06T12:03:16Z</time>
      </trkpt>
      <trkpt lat="42.94159" lon="0.96272">
        <ele>712.59</ele>
        <time>2019-09-06T12:04:17Z</time>
      </trkpt>
      <trkpt lat="42.94157" lon="0.96275">
        <ele>712.59</ele>
        <time>2019-09-06T12:05:05Z</time>
      </trkpt>
      <trkpt lat="42.94157" lon="0.96273">
        <ele>712.59</ele>
        <time>2019-09-06T12:05:53Z</time>
      </trkpt>
      <trkpt lat="42.94159" lon="0.96276">
        <ele>712.59</ele>
        <time>2019-09-06T12:06:30Z</time>
      </trkpt>
      <trkpt lat="42.94159" lon="0.96277">
        <ele>712.59</ele>
        <time>2019-09-06T12:07:19Z</time>
      </trkpt>
      <trkpt lat="42.94157" lon="0.96275">
        <ele>712.59</ele>
        <time>2019-09-06T12:07:56Z</time>
      </trkpt>
      <trkpt lat="42.94156" lon="0.96282">
        <ele>712.59</ele>
        <time>2019-09-06T12:08:24Z</time>
      </trkpt>
      <trkpt lat="42.94156" lon="0.96283">
        <ele>712.59</ele>
        <time>2019-09-06T12:08:51Z</time>
      </trkpt>
      <trkpt lat="42.94157" lon="0.96285">
        <ele>712.59</ele>
        <time>2019-09-06T12:09:19Z</time>
      </trkpt>
      <trkpt lat="42.94157" lon="0.96286">
        <ele>712.59</ele>
        <time>2019-09-06T12:09:45Z</time>
      </trkpt>
      <trkpt lat="42.94157" lon="0.96288">
        <ele>712.59</ele>
        <time>2019-09-06T12:10:50Z</time>
      </trkpt>
      <trkpt lat="42.94156" lon="0.96284">
        <ele>712.59</ele>
        <time>2019-09-06T12:11:22Z</time>
      </trkpt>
      <trkpt lat="42.94156" lon="0.96285">
        <ele>712.59</ele>
        <time>2019-09-06T12:11:48Z</time>
      </trkpt>
      <trkpt lat="42.94155" lon="0.96285">
        <ele>713.58</ele>
        <time>2019-09-06T12:11:55Z</time>
      </trkpt>
      <trkpt lat="42.94156" lon="0.96286">
        <ele>715.04</ele>
        <time>2019-09-06T12:12:16Z</time>
      </trkpt>
      <trkpt lat="42.94156" lon="0.96288">
        <ele>714.97</ele>
        <time>2019-09-06T12:12:31Z</time>
      </trkpt>
      <trkpt lat="42.94156" lon="0.96289">
        <ele>714.99</ele>
        <time>2019-09-06T12:13:15Z</time>
      </trkpt>
      <trkpt lat="42.94156" lon="0.96289">
        <ele>714.99</ele>
        <time>2019-09-06T12:13:37Z</time>
      </trkpt>
      <trkpt lat="42.94157" lon="0.96289">
        <ele>714.99</ele>
        <time>2019-09-06T12:13:59Z</time>
      </trkpt>
      <trkpt lat="42.94157" lon="0.96289">
        <ele>714.99</ele>
        <time>2019-09-06T12:14:17Z</time>
      </trkpt>
      <trkpt lat="42.94157" lon="0.96289">
        <ele>714.99</ele>
        <time>2019-09-06T12:14:41Z</time>
      </trkpt>
      <trkpt lat="42.94157" lon="0.9629">
        <ele>714.99</ele>
        <time>2019-09-06T12:14:58Z</time>
      </trkpt>
      <trkpt lat="42.94166" lon="0.96285">
        <ele>714.99</ele>
        <time>2019-09-06T12:15:20Z</time>
      </trkpt>
      <trkpt lat="42.94172" lon="0.96282">
        <ele>714.99</ele>
        <time>2019-09-06T12:15:26Z</time>
      </trkpt>
      <trkpt lat="42.94176" lon="0.96279">
        <ele>715.22</ele>
        <time>2019-09-06T12:15:30Z</time>
      </trkpt>
      <trkpt lat="42.94177" lon="0.96279">
        <ele>715.86</ele>
        <time>2019-09-06T12:15:31Z</time>
      </trkpt>
      <trkpt lat="42.94188" lon="0.96274">
        <ele>719.15</ele>
        <time>2019-09-06T12:15:42Z</time>
      </trkpt>
      <trkpt lat="42.94191" lon="0.96274">
        <ele>720.03</ele>
        <time>2019-09-06T12:15:45Z</time>
      </trkpt>
      <trkpt lat="42.94195" lon="0.96273">
        <ele>720.29</ele>
        <time>2019-09-06T12:15:48Z</time>
      </trkpt>
      <trkpt lat="42.94209" lon="0.96272">
        <ele>722.46</ele>
        <time>2019-09-06T12:16:04Z</time>
      </trkpt>
      <trkpt lat="42.94228" lon="0.96273">
        <ele>724.87</ele>
        <time>2019-09-06T12:16:20Z</time>
      </trkpt>
      <trkpt lat="42.9423" lon="0.96273">
        <ele>725.18</ele>
        <time>2019-09-06T12:16:22Z</time>
      </trkpt>
      <trkpt lat="42.94245" lon="0.96274">
        <ele>727.29</ele>
        <time>2019-09-06T12:16:37Z</time>
      </trkpt>
      <trkpt lat="42.94263" lon="0.96273">
        <ele>728.97</ele>
        <time>2019-09-06T12:16:52Z</time>
      </trkpt>
      <trkpt lat="42.94284" lon="0.96275">
        <ele>729.76</ele>
        <time>2019-09-06T12:17:08Z</time>
      </trkpt>
      <trkpt lat="42.94299" lon="0.96287">
        <ele>730.91</ele>
        <time>2019-09-06T12:17:22Z</time>
      </trkpt>
      <trkpt lat="42.94317" lon="0.96297">
        <ele>732.8</ele>
        <time>2019-09-06T12:17:38Z</time>
      </trkpt>
      <trkpt lat="42.9433" lon="0.96301">
        <ele>733.55</ele>
        <time>2019-09-06T12:17:51Z</time>
      </trkpt>
      <trkpt lat="42.94331" lon="0.96302">
        <ele>733.57</ele>
        <time>2019-09-06T12:17:52Z</time>
      </trkpt>
      <trkpt lat="42.94352" lon="0.96311">
        <ele>733.95</ele>
        <time>2019-09-06T12:18:08Z</time>
      </trkpt>
      <trkpt lat="42.94373" lon="0.96316">
        <ele>734.41</ele>
        <time>2019-09-06T12:18:26Z</time>
      </trkpt>
      <trkpt lat="42.94392" lon="0.9632">
        <ele>734.9</ele>
        <time>2019-09-06T12:18:43Z</time>
      </trkpt>
      <trkpt lat="42.9441" lon="0.96323">
        <ele>735.51</ele>
        <time>2019-09-06T12:19:01Z</time>
      </trkpt>
      <trkpt lat="42.94429" lon="0.96324">
        <ele>736.07</ele>
        <time>2019-09-06T12:19:18Z</time>
      </trkpt>
      <trkpt lat="42.94446" lon="0.96322">
        <ele>736.65</ele>
        <time>2019-09-06T12:19:35Z</time>
      </trkpt>
      <trkpt lat="42.94471" lon="0.96316">
        <ele>737.64</ele>
        <time>2019-09-06T12:19:55Z</time>
      </trkpt>
      <trkpt lat="42.94496" lon="0.96308">
        <ele>737.9</ele>
        <time>2019-09-06T12:20:15Z</time>
      </trkpt>
      <trkpt lat="42.94515" lon="0.96299">
        <ele>738.68</ele>
        <time>2019-09-06T12:20:29Z</time>
      </trkpt>
      <trkpt lat="42.94531" lon="0.96294">
        <ele>739.11</ele>
        <time>2019-09-06T12:20:41Z</time>
      </trkpt>
      <trkpt lat="42.94548" lon="0.96287">
        <ele>739.55</ele>
        <time>2019-09-06T12:20:55Z</time>
      </trkpt>
      <trkpt lat="42.9456" lon="0.96283">
        <ele>739.9</ele>
        <time>2019-09-06T12:21:05Z</time>
      </trkpt>
      <trkpt lat="42.94567" lon="0.96281">
        <ele>740.02</ele>
        <time>2019-09-06T12:21:10Z</time>
      </trkpt>
      <trkpt lat="42.94568" lon="0.96281">
        <ele>740.04</ele>
        <time>2019-09-06T12:21:11Z</time>
      </trkpt>
      <trkpt lat="42.94588" lon="0.96277">
        <ele>740.27</ele>
        <time>2019-09-06T12:21:28Z</time>
      </trkpt>
      <trkpt lat="42.94609" lon="0.96277">
        <ele>740.23</ele>
        <time>2019-09-06T12:21:45Z</time>
      </trkpt>
      <trkpt lat="42.94613" lon="0.96278">
        <ele>740.23</ele>
        <time>2019-09-06T12:21:48Z</time>
      </trkpt>
      <trkpt lat="42.94631" lon="0.96284">
        <ele>740.4</ele>
        <time>2019-09-06T12:22:04Z</time>
      </trkpt>
      <trkpt lat="42.94645" lon="0.96282">
        <ele>740.81</ele>
        <time>2019-09-06T12:22:14Z</time>
      </trkpt>
      <trkpt lat="42.94646" lon="0.96281">
        <ele>740.87</ele>
        <time>2019-09-06T12:22:15Z</time>
      </trkpt>
      <trkpt lat="42.94654" lon="0.96266">
        <ele>742.15</ele>
        <time>2019-09-06T12:22:29Z</time>
      </trkpt>
      <trkpt lat="42.94655" lon="0.96259">
        <ele>742.48</ele>
        <time>2019-09-06T12:22:31Z</time>
      </trkpt>
      <trkpt lat="42.94656" lon="0.96256">
        <ele>742.56</ele>
        <time>2019-09-06T12:22:32Z</time>
      </trkpt>
      <trkpt lat="42.94651" lon="0.96236">
        <ele>743.74</ele>
        <time>2019-09-06T12:22:46Z</time>
      </trkpt>
      <trkpt lat="42.94645" lon="0.96218">
        <ele>745.68</ele>
        <time>2019-09-06T12:23:01Z</time>
      </trkpt>
      <trkpt lat="42.94635" lon="0.96201">
        <ele>748.76</ele>
        <time>2019-09-06T12:23:18Z</time>
      </trkpt>
      <trkpt lat="42.94635" lon="0.96184">
        <ele>751.95</ele>
        <time>2019-09-06T12:23:33Z</time>
      </trkpt>
      <trkpt lat="42.94636" lon="0.96167">
        <ele>755.13</ele>
        <time>2019-09-06T12:23:48Z</time>
      </trkpt>
      <trkpt lat="42.94643" lon="0.96153">
        <ele>758.19</ele>
        <time>2019-09-06T12:24:03Z</time>
      </trkpt>
      <trkpt lat="42.94655" lon="0.96143">
        <ele>760.71</ele>
        <time>2019-09-06T12:24:17Z</time>
      </trkpt>
      <trkpt lat="42.94672" lon="0.96133">
        <ele>761.92</ele>
        <time>2019-09-06T12:24:33Z</time>
      </trkpt>
      <trkpt lat="42.94675" lon="0.96131">
        <ele>762.14</ele>
        <time>2019-09-06T12:24:36Z</time>
      </trkpt>
      <trkpt lat="42.94693" lon="0.96124">
        <ele>762.86</ele>
        <time>2019-09-06T12:24:51Z</time>
      </trkpt>
      <trkpt lat="42.94709" lon="0.96119">
        <ele>764.01</ele>
        <time>2019-09-06T12:25:07Z</time>
      </trkpt>
      <trkpt lat="42.94727" lon="0.96107">
        <ele>765.76</ele>
        <time>2019-09-06T12:25:26Z</time>
      </trkpt>
      <trkpt lat="42.94728" lon="0.96084">
        <ele>767.07</ele>
        <time>2019-09-06T12:25:41Z</time>
      </trkpt>
      <trkpt lat="42.94728" lon="0.9606">
        <ele>768.86</ele>
        <time>2019-09-06T12:25:58Z</time>
      </trkpt>
      <trkpt lat="42.9473" lon="0.96036">
        <ele>770.74</ele>
        <time>2019-09-06T12:26:15Z</time>
      </trkpt>
      <trkpt lat="42.94733" lon="0.96017">
        <ele>772.95</ele>
        <time>2019-09-06T12:26:30Z</time>
      </trkpt>
      <trkpt lat="42.94728" lon="0.95996">
        <ele>774.61</ele>
        <time>2019-09-06T12:26:44Z</time>
      </trkpt>
      <trkpt lat="42.94709" lon="0.95977">
        <ele>777.65</ele>
        <time>2019-09-06T12:27:06Z</time>
      </trkpt>
      <trkpt lat="42.94694" lon="0.95967">
        <ele>780.31</ele>
        <time>2019-09-06T12:27:24Z</time>
      </trkpt>
      <trkpt lat="42.94678" lon="0.95951">
        <ele>783.17</ele>
        <time>2019-09-06T12:27:42Z</time>
      </trkpt>
      <trkpt lat="42.94671" lon="0.95931">
        <ele>785.28</ele>
        <time>2019-09-06T12:27:57Z</time>
      </trkpt>
      <trkpt lat="42.94672" lon="0.95914">
        <ele>788.11</ele>
        <time>2019-09-06T12:28:12Z</time>
      </trkpt>
      <trkpt lat="42.94673" lon="0.95895">
        <ele>791.08</ele>
        <time>2019-09-06T12:28:29Z</time>
      </trkpt>
      <trkpt lat="42.94674" lon="0.95875">
        <ele>794.2</ele>
        <time>2019-09-06T12:28:47Z</time>
      </trkpt>
      <trkpt lat="42.94672" lon="0.95859">
        <ele>797.22</ele>
        <time>2019-09-06T12:29:02Z</time>
      </trkpt>
      <trkpt lat="42.94672" lon="0.95841">
        <ele>800.3</ele>
        <time>2019-09-06T12:29:16Z</time>
      </trkpt>
      <trkpt lat="42.94673" lon="0.95822">
        <ele>803.32</ele>
        <time>2019-09-06T12:29:34Z</time>
      </trkpt>
      <trkpt lat="42.94673" lon="0.95806">
        <ele>806.19</ele>
        <time>2019-09-06T12:29:49Z</time>
      </trkpt>
      <trkpt lat="42.94673" lon="0.95784">
        <ele>809.29</ele>
        <time>2019-09-06T12:30:06Z</time>
      </trkpt>
      <trkpt lat="42.94668" lon="0.95784">
        <ele>811.13</ele>
        <time>2019-09-06T12:30:20Z</time>
      </trkpt>
      <trkpt lat="42.94667" lon="0.95784">
        <ele>811.71</ele>
        <time>2019-09-06T12:30:49Z</time>
      </trkpt>
      <trkpt lat="42.9467" lon="0.9578">
        <ele>811.29</ele>
        <time>2019-09-06T12:31:23Z</time>
      </trkpt>
      <trkpt lat="42.94669" lon="0.95771">
        <ele>811.54</ele>
        <time>2019-09-06T12:31:30Z</time>
      </trkpt>
      <trkpt lat="42.94669" lon="0.95769">
        <ele>811.63</ele>
        <time>2019-09-06T12:31:31Z</time>
      </trkpt>
      <trkpt lat="42.94669" lon="0.95767">
        <ele>811.67</ele>
        <time>2019-09-06T12:31:32Z</time>
      </trkpt>
      <trkpt lat="42.94668" lon="0.95734">
        <ele>813.16</ele>
        <time>2019-09-06T12:31:54Z</time>
      </trkpt>
      <trkpt lat="42.94675" lon="0.95701">
        <ele>812.46</ele>
        <time>2019-09-06T12:32:14Z</time>
      </trkpt>
      <trkpt lat="42.94689" lon="0.9568">
        <ele>810.41</ele>
        <time>2019-09-06T12:32:32Z</time>
      </trkpt>
      <trkpt lat="42.94701" lon="0.9566">
        <ele>809.34</ele>
        <time>2019-09-06T12:32:47Z</time>
      </trkpt>
      <trkpt lat="42.94713" lon="0.95644">
        <ele>808.31</ele>
        <time>2019-09-06T12:33:02Z</time>
      </trkpt>
      <trkpt lat="42.9473" lon="0.95628">
        <ele>806.81</ele>
        <time>2019-09-06T12:33:19Z</time>
      </trkpt>
      <trkpt lat="42.94746" lon="0.9561">
        <ele>805.64</ele>
        <time>2019-09-06T12:33:36Z</time>
      </trkpt>
      <trkpt lat="42.94766" lon="0.95592">
        <ele>804.81</ele>
        <time>2019-09-06T12:33:55Z</time>
      </trkpt>
      <trkpt lat="42.94788" lon="0.95571">
        <ele>803.51</ele>
        <time>2019-09-06T12:34:15Z</time>
      </trkpt>
      <trkpt lat="42.94807" lon="0.95547">
        <ele>802.16</ele>
        <time>2019-09-06T12:34:33Z</time>
      </trkpt>
      <trkpt lat="42.9483" lon="0.95524">
        <ele>799.99</ele>
        <time>2019-09-06T12:34:56Z</time>
      </trkpt>
      <trkpt lat="42.94846" lon="0.95509">
        <ele>798.86</ele>
        <time>2019-09-06T12:35:13Z</time>
      </trkpt>
      <trkpt lat="42.94869" lon="0.95489">
        <ele>797.03</ele>
        <time>2019-09-06T12:35:33Z</time>
      </trkpt>
      <trkpt lat="42.94892" lon="0.95467">
        <ele>795.28</ele>
        <time>2019-09-06T12:35:53Z</time>
      </trkpt>
      <trkpt lat="42.94911" lon="0.95449">
        <ele>792.56</ele>
        <time>2019-09-06T12:36:12Z</time>
      </trkpt>
      <trkpt lat="42.94935" lon="0.95425">
        <ele>790.2</ele>
        <time>2019-09-06T12:36:30Z</time>
      </trkpt>
      <trkpt lat="42.9494" lon="0.95421">
        <ele>790.16</ele>
        <time>2019-09-06T12:36:34Z</time>
      </trkpt>
      <trkpt lat="42.9496" lon="0.95409">
        <ele>789.42</ele>
        <time>2019-09-06T12:36:49Z</time>
      </trkpt>
      <trkpt lat="42.94975" lon="0.95398">
        <ele>788.12</ele>
        <time>2019-09-06T12:37:04Z</time>
      </trkpt>
      <trkpt lat="42.94996" lon="0.9538">
        <ele>786.49</ele>
        <time>2019-09-06T12:37:24Z</time>
      </trkpt>
      <trkpt lat="42.95014" lon="0.95362">
        <ele>784.34</ele>
        <time>2019-09-06T12:37:43Z</time>
      </trkpt>
      <trkpt lat="42.9503" lon="0.95351">
        <ele>782.71</ele>
        <time>2019-09-06T12:37:59Z</time>
      </trkpt>
      <trkpt lat="42.95047" lon="0.95335">
        <ele>780.86</ele>
        <time>2019-09-06T12:38:16Z</time>
      </trkpt>
      <trkpt lat="42.95063" lon="0.95323">
        <ele>778.58</ele>
        <time>2019-09-06T12:38:32Z</time>
      </trkpt>
      <trkpt lat="42.9508" lon="0.95309">
        <ele>775.88</ele>
        <time>2019-09-06T12:38:51Z</time>
      </trkpt>
      <trkpt lat="42.95102" lon="0.95301">
        <ele>773.98</ele>
        <time>2019-09-06T12:39:10Z</time>
      </trkpt>
      <trkpt lat="42.95124" lon="0.95292">
        <ele>771.81</ele>
        <time>2019-09-06T12:39:30Z</time>
      </trkpt>
      <trkpt lat="42.9516" lon="0.9528">
        <ele>770.35</ele>
        <time>2019-09-06T12:39:51Z</time>
      </trkpt>
      <trkpt lat="42.95179" lon="0.95262">
        <ele>768.64</ele>
        <time>2019-09-06T12:40:05Z</time>
      </trkpt>
      <trkpt lat="42.95192" lon="0.95245">
        <ele>765.64</ele>
        <time>2019-09-06T12:40:21Z</time>
      </trkpt>
      <trkpt lat="42.95207" lon="0.95223">
        <ele>763.37</ele>
        <time>2019-09-06T12:40:40Z</time>
      </trkpt>
      <trkpt lat="42.95221" lon="0.95196">
        <ele>762.74</ele>
        <time>2019-09-06T12:40:57Z</time>
      </trkpt>
      <trkpt lat="42.95213" lon="0.95173">
        <ele>764.15</ele>
        <time>2019-09-06T12:41:15Z</time>
      </trkpt>
      <trkpt lat="42.95197" lon="0.95162">
        <ele>765.46</ele>
        <time>2019-09-06T12:41:31Z</time>
      </trkpt>
      <trkpt lat="42.95184" lon="0.95153">
        <ele>768.02</ele>
        <time>2019-09-06T12:41:49Z</time>
      </trkpt>
      <trkpt lat="42.95177" lon="0.95149">
        <ele>768.85</ele>
        <time>2019-09-06T12:41:55Z</time>
      </trkpt>
      <trkpt lat="42.95174" lon="0.95143">
        <ele>770.09</ele>
        <time>2019-09-06T12:42:21Z</time>
      </trkpt>
      <trkpt lat="42.95164" lon="0.95126">
        <ele>772.49</ele>
        <time>2019-09-06T12:42:42Z</time>
      </trkpt>
      <trkpt lat="42.95159" lon="0.95119">
        <ele>773.87</ele>
        <time>2019-09-06T12:42:50Z</time>
      </trkpt>
      <trkpt lat="42.95152" lon="0.95112">
        <ele>776.43</ele>
        <time>2019-09-06T12:43:02Z</time>
      </trkpt>
      <trkpt lat="42.95145" lon="0.95105">
        <ele>779.56</ele>
        <time>2019-09-06T12:43:18Z</time>
      </trkpt>
      <trkpt lat="42.95136" lon="0.95094">
        <ele>782.41</ele>
        <time>2019-09-06T12:43:32Z</time>
      </trkpt>
      <trkpt lat="42.95124" lon="0.95085">
        <ele>785.52</ele>
        <time>2019-09-06T12:43:48Z</time>
      </trkpt>
      <trkpt lat="42.95112" lon="0.95082">
        <ele>788.53</ele>
        <time>2019-09-06T12:44:06Z</time>
      </trkpt>
      <trkpt lat="42.95095" lon="0.95076">
        <ele>791.58</ele>
        <time>2019-09-06T12:44:24Z</time>
      </trkpt>
      <trkpt lat="42.95078" lon="0.9507">
        <ele>794.29</ele>
        <time>2019-09-06T12:44:41Z</time>
      </trkpt>
      <trkpt lat="42.95058" lon="0.95064">
        <ele>797.36</ele>
        <time>2019-09-06T12:45:03Z</time>
      </trkpt>
      <trkpt lat="42.95048" lon="0.95057">
        <ele>800.42</ele>
        <time>2019-09-06T12:45:22Z</time>
      </trkpt>
      <trkpt lat="42.95035" lon="0.95041">
        <ele>803.32</ele>
        <time>2019-09-06T12:45:42Z</time>
      </trkpt>
      <trkpt lat="42.9502" lon="0.95027">
        <ele>806.44</ele>
        <time>2019-09-06T12:46:01Z</time>
      </trkpt>
      <trkpt lat="42.95002" lon="0.95016">
        <ele>809.56</ele>
        <time>2019-09-06T12:46:19Z</time>
      </trkpt>
      <trkpt lat="42.9499" lon="0.95004">
        <ele>812.69</ele>
        <time>2019-09-06T12:46:36Z</time>
      </trkpt>
      <trkpt lat="42.94983" lon="0.94996">
        <ele>815.7</ele>
        <time>2019-09-06T12:46:51Z</time>
      </trkpt>
      <trkpt lat="42.94968" lon="0.9499">
        <ele>818.76</ele>
        <time>2019-09-06T12:47:08Z</time>
      </trkpt>
      <trkpt lat="42.94958" lon="0.94976">
        <ele>821.94</ele>
        <time>2019-09-06T12:47:25Z</time>
      </trkpt>
      <trkpt lat="42.94951" lon="0.94963">
        <ele>824.41</ele>
        <time>2019-09-06T12:47:41Z</time>
      </trkpt>
      <trkpt lat="42.94945" lon="0.94953">
        <ele>827.61</ele>
        <time>2019-09-06T12:47:56Z</time>
      </trkpt>
      <trkpt lat="42.94939" lon="0.9494">
        <ele>830.79</ele>
        <time>2019-09-06T12:48:11Z</time>
      </trkpt>
      <trkpt lat="42.94928" lon="0.94935">
        <ele>833.84</ele>
        <time>2019-09-06T12:48:28Z</time>
      </trkpt>
      <trkpt lat="42.94914" lon="0.94926">
        <ele>836.05</ele>
        <time>2019-09-06T12:48:45Z</time>
      </trkpt>
      <trkpt lat="42.94898" lon="0.94909">
        <ele>837.83</ele>
        <time>2019-09-06T12:49:05Z</time>
      </trkpt>
      <trkpt lat="42.94879" lon="0.94891">
        <ele>839.63</ele>
        <time>2019-09-06T12:49:26Z</time>
      </trkpt>
      <trkpt lat="42.94862" lon="0.94871">
        <ele>840.92</ele>
        <time>2019-09-06T12:49:44Z</time>
      </trkpt>
      <trkpt lat="42.9485" lon="0.9485">
        <ele>842.03</ele>
        <time>2019-09-06T12:50:04Z</time>
      </trkpt>
      <trkpt lat="42.94842" lon="0.94822">
        <ele>842.75</ele>
        <time>2019-09-06T12:50:27Z</time>
      </trkpt>
      <trkpt lat="42.94834" lon="0.94801">
        <ele>843.34</ele>
        <time>2019-09-06T12:50:41Z</time>
      </trkpt>
      <trkpt lat="42.94825" lon="0.94774">
        <ele>842.7</ele>
        <time>2019-09-06T12:51:03Z</time>
      </trkpt>
      <trkpt lat="42.94822" lon="0.94767">
        <ele>842.53</ele>
        <time>2019-09-06T12:51:06Z</time>
      </trkpt>
      <trkpt lat="42.94821" lon="0.94764">
        <ele>842.46</ele>
        <time>2019-09-06T12:51:07Z</time>
      </trkpt>
      <trkpt lat="42.9482" lon="0.94761">
        <ele>842.35</ele>
        <time>2019-09-06T12:51:08Z</time>
      </trkpt>
      <trkpt lat="42.94813" lon="0.94739">
        <ele>841.77</ele>
        <time>2019-09-06T12:51:24Z</time>
      </trkpt>
      <trkpt lat="42.94804" lon="0.94712">
        <ele>841.18</ele>
        <time>2019-09-06T12:51:42Z</time>
      </trkpt>
      <trkpt lat="42.94794" lon="0.94683">
        <ele>841.63</ele>
        <time>2019-09-06T12:52:01Z</time>
      </trkpt>
      <trkpt lat="42.94794" lon="0.94655">
        <ele>844.34</ele>
        <time>2019-09-06T12:52:18Z</time>
      </trkpt>
      <trkpt lat="42.94793" lon="0.94637">
        <ele>845.79</ele>
        <time>2019-09-06T12:52:28Z</time>
      </trkpt>
      <trkpt lat="42.9479" lon="0.94625">
        <ele>846.75</ele>
        <time>2019-09-06T12:52:35Z</time>
      </trkpt>
      <trkpt lat="42.94789" lon="0.94623">
        <ele>846.82</ele>
        <time>2019-09-06T12:52:36Z</time>
      </trkpt>
      <trkpt lat="42.94775" lon="0.94602">
        <ele>847.11</ele>
        <time>2019-09-06T12:52:54Z</time>
      </trkpt>
      <trkpt lat="42.94766" lon="0.94585">
        <ele>847.41</ele>
        <time>2019-09-06T12:53:11Z</time>
      </trkpt>
      <trkpt lat="42.94749" lon="0.94567">
        <ele>847.26</ele>
        <time>2019-09-06T12:53:28Z</time>
      </trkpt>
      <trkpt lat="42.94738" lon="0.94553">
        <ele>846.7</ele>
        <time>2019-09-06T12:53:44Z</time>
      </trkpt>
      <trkpt lat="42.94727" lon="0.94545">
        <ele>846.38</ele>
        <time>2019-09-06T12:54:02Z</time>
      </trkpt>
      <trkpt lat="42.94722" lon="0.94546">
        <ele>846.46</ele>
        <time>2019-09-06T12:54:32Z</time>
      </trkpt>
      <trkpt lat="42.94718" lon="0.94558">
        <ele>845.73</ele>
        <time>2019-09-06T12:54:52Z</time>
      </trkpt>
      <trkpt lat="42.94705" lon="0.94574">
        <ele>842.67</ele>
        <time>2019-09-06T12:55:08Z</time>
      </trkpt>
      <trkpt lat="42.94699" lon="0.94585">
        <ele>839.5</ele>
        <time>2019-09-06T12:55:18Z</time>
      </trkpt>
      <trkpt lat="42.94693" lon="0.94589">
        <ele>836.43</ele>
        <time>2019-09-06T12:55:27Z</time>
      </trkpt>
      <trkpt lat="42.94685" lon="0.94594">
        <ele>833.11</ele>
        <time>2019-09-06T12:55:36Z</time>
      </trkpt>
      <trkpt lat="42.94675" lon="0.94594">
        <ele>829.76</ele>
        <time>2019-09-06T12:55:44Z</time>
      </trkpt>
      <trkpt lat="42.94664" lon="0.9459">
        <ele>826.69</ele>
        <time>2019-09-06T12:55:53Z</time>
      </trkpt>
      <trkpt lat="42.94649" lon="0.94583">
        <ele>825.34</ele>
        <time>2019-09-06T12:56:08Z</time>
      </trkpt>
      <trkpt lat="42.94633" lon="0.94583">
        <ele>824.36</ele>
        <time>2019-09-06T12:56:20Z</time>
      </trkpt>
      <trkpt lat="42.94612" lon="0.94587">
        <ele>824.74</ele>
        <time>2019-09-06T12:56:36Z</time>
      </trkpt>
      <trkpt lat="42.94589" lon="0.94598">
        <ele>824.94</ele>
        <time>2019-09-06T12:56:54Z</time>
      </trkpt>
      <trkpt lat="42.94575" lon="0.94608">
        <ele>823.45</ele>
        <time>2019-09-06T12:57:08Z</time>
      </trkpt>
      <trkpt lat="42.94563" lon="0.94614">
        <ele>822.36</ele>
        <time>2019-09-06T12:57:17Z</time>
      </trkpt>
      <trkpt lat="42.94562" lon="0.94615">
        <ele>822.24</ele>
        <time>2019-09-06T12:57:18Z</time>
      </trkpt>
      <trkpt lat="42.94545" lon="0.94613">
        <ele>820.95</ele>
        <time>2019-09-06T12:57:32Z</time>
      </trkpt>
      <trkpt lat="42.94533" lon="0.9461">
        <ele>822.77</ele>
        <time>2019-09-06T12:57:43Z</time>
      </trkpt>
      <trkpt lat="42.9452" lon="0.94597">
        <ele>823.71</ele>
        <time>2019-09-06T12:57:58Z</time>
      </trkpt>
      <trkpt lat="42.9452" lon="0.94594">
        <ele>823.79</ele>
        <time>2019-09-06T12:58:00Z</time>
      </trkpt>
      <trkpt lat="42.94512" lon="0.94573">
        <ele>826.11</ele>
        <time>2019-09-06T12:58:19Z</time>
      </trkpt>
      <trkpt lat="42.94503" lon="0.94555">
        <ele>829.13</ele>
        <time>2019-09-06T12:58:35Z</time>
      </trkpt>
      <trkpt lat="42.94498" lon="0.94531">
        <ele>832.21</ele>
        <time>2019-09-06T12:58:52Z</time>
      </trkpt>
      <trkpt lat="42.94495" lon="0.94507">
        <ele>835.31</ele>
        <time>2019-09-06T12:59:07Z</time>
      </trkpt>
      <trkpt lat="42.94501" lon="0.94484">
        <ele>837.45</ele>
        <time>2019-09-06T12:59:25Z</time>
      </trkpt>
      <trkpt lat="42.94513" lon="0.94462">
        <ele>840.47</ele>
        <time>2019-09-06T12:59:45Z</time>
      </trkpt>
      <trkpt lat="42.94517" lon="0.94441">
        <ele>842.21</ele>
        <time>2019-09-06T13:00:01Z</time>
      </trkpt>
      <trkpt lat="42.94501" lon="0.94441">
        <ele>841.35</ele>
        <time>2019-09-06T13:00:15Z</time>
      </trkpt>
      <trkpt lat="42.94483" lon="0.94443">
        <ele>839.42</ele>
        <time>2019-09-06T13:00:32Z</time>
      </trkpt>
      <trkpt lat="42.94461" lon="0.94447">
        <ele>837.56</ele>
        <time>2019-09-06T13:00:50Z</time>
      </trkpt>
      <trkpt lat="42.94435" lon="0.94448">
        <ele>835.55</ele>
        <time>2019-09-06T13:01:11Z</time>
      </trkpt>
      <trkpt lat="42.94407" lon="0.94455">
        <ele>833.74</ele>
        <time>2019-09-06T13:01:31Z</time>
      </trkpt>
      <trkpt lat="42.94384" lon="0.94456">
        <ele>832.67</ele>
        <time>2019-09-06T13:01:50Z</time>
      </trkpt>
      <trkpt lat="42.94374" lon="0.94458">
        <ele>831.79</ele>
        <time>2019-09-06T13:02:06Z</time>
      </trkpt>
      <trkpt lat="42.94377" lon="0.94457">
        <ele>831.67</ele>
        <time>2019-09-06T13:02:08Z</time>
      </trkpt>
      <trkpt lat="42.94381" lon="0.94449">
        <ele>832.07</ele>
        <time>2019-09-06T13:02:24Z</time>
      </trkpt>
      <trkpt lat="42.9438" lon="0.94444">
        <ele>832.73</ele>
        <time>2019-09-06T13:02:32Z</time>
      </trkpt>
      <trkpt lat="42.9438" lon="0.94443">
        <ele>832.6</ele>
        <time>2019-09-06T13:02:33Z</time>
      </trkpt>
      <trkpt lat="42.94379" lon="0.94442">
        <ele>832.5</ele>
        <time>2019-09-06T13:02:34Z</time>
      </trkpt>
      <trkpt lat="42.94378" lon="0.9444">
        <ele>832.43</ele>
        <time>2019-09-06T13:02:35Z</time>
      </trkpt>
      <trkpt lat="42.94377" lon="0.94439">
        <ele>832.39</ele>
        <time>2019-09-06T13:02:36Z</time>
      </trkpt>
      <trkpt lat="42.94376" lon="0.94437">
        <ele>832.33</ele>
        <time>2019-09-06T13:02:37Z</time>
      </trkpt>
      <trkpt lat="42.94358" lon="0.94399">
        <ele>829.95</ele>
        <time>2019-09-06T13:03:01Z</time>
      </trkpt>
      <trkpt lat="42.94361" lon="0.94382">
        <ele>828.64</ele>
        <time>2019-09-06T13:03:12Z</time>
      </trkpt>
      <trkpt lat="42.9437" lon="0.94352">
        <ele>826</ele>
        <time>2019-09-06T13:03:31Z</time>
      </trkpt>
      <trkpt lat="42.94372" lon="0.94322">
        <ele>823.05</ele>
        <time>2019-09-06T13:03:48Z</time>
      </trkpt>
      <trkpt lat="42.94379" lon="0.94292">
        <ele>820.61</ele>
        <time>2019-09-06T13:04:05Z</time>
      </trkpt>
      <trkpt lat="42.94386" lon="0.94267">
        <ele>817.49</ele>
        <time>2019-09-06T13:04:21Z</time>
      </trkpt>
      <trkpt lat="42.94387" lon="0.94263">
        <ele>816.95</ele>
        <time>2019-09-06T13:04:24Z</time>
      </trkpt>
      <trkpt lat="42.94389" lon="0.94242">
        <ele>814.11</ele>
        <time>2019-09-06T13:04:39Z</time>
      </trkpt>
      <trkpt lat="42.94372" lon="0.94233">
        <ele>811.07</ele>
        <time>2019-09-06T13:04:54Z</time>
      </trkpt>
      <trkpt lat="42.9435" lon="0.94233">
        <ele>808.17</ele>
        <time>2019-09-06T13:05:12Z</time>
      </trkpt>
      <trkpt lat="42.94332" lon="0.94227">
        <ele>805.16</ele>
        <time>2019-09-06T13:05:28Z</time>
      </trkpt>
      <trkpt lat="42.94324" lon="0.94214">
        <ele>801.94</ele>
        <time>2019-09-06T13:05:41Z</time>
      </trkpt>
      <trkpt lat="42.94327" lon="0.94192">
        <ele>798.88</ele>
        <time>2019-09-06T13:05:54Z</time>
      </trkpt>
      <trkpt lat="42.94336" lon="0.94164">
        <ele>795.76</ele>
        <time>2019-09-06T13:06:12Z</time>
      </trkpt>
      <trkpt lat="42.9434" lon="0.94138">
        <ele>792.69</ele>
        <time>2019-09-06T13:06:28Z</time>
      </trkpt>
      <trkpt lat="42.94324" lon="0.94136">
        <ele>789.95</ele>
        <time>2019-09-06T13:06:43Z</time>
      </trkpt>
      <trkpt lat="42.94313" lon="0.94139">
        <ele>788.55</ele>
        <time>2019-09-06T13:06:52Z</time>
      </trkpt>
      <trkpt lat="42.94296" lon="0.94144">
        <ele>786.22</ele>
        <time>2019-09-06T13:07:08Z</time>
      </trkpt>
      <trkpt lat="42.94284" lon="0.94149">
        <ele>784.42</ele>
        <time>2019-09-06T13:07:18Z</time>
      </trkpt>
      <trkpt lat="42.94281" lon="0.94145">
        <ele>783.86</ele>
        <time>2019-09-06T13:07:21Z</time>
      </trkpt>
      <trkpt lat="42.9428" lon="0.94143">
        <ele>783.62</ele>
        <time>2019-09-06T13:07:22Z</time>
      </trkpt>
      <trkpt lat="42.94279" lon="0.94141">
        <ele>783.38</ele>
        <time>2019-09-06T13:07:23Z</time>
      </trkpt>
      <trkpt lat="42.94279" lon="0.94139">
        <ele>783.14</ele>
        <time>2019-09-06T13:07:24Z</time>
      </trkpt>
      <trkpt lat="42.94285" lon="0.94121">
        <ele>780.24</ele>
        <time>2019-09-06T13:07:39Z</time>
      </trkpt>
      <trkpt lat="42.94286" lon="0.94118">
        <ele>779.93</ele>
        <time>2019-09-06T13:07:42Z</time>
      </trkpt>
      <trkpt lat="42.94286" lon="0.94107">
        <ele>779.45</ele>
        <time>2019-09-06T13:07:52Z</time>
      </trkpt>
      <trkpt lat="42.94286" lon="0.94104">
        <ele>778.53</ele>
        <time>2019-09-06T13:08:12Z</time>
      </trkpt>
      <trkpt lat="42.9429" lon="0.94101">
        <ele>778.53</ele>
        <time>2019-09-06T13:08:29Z</time>
      </trkpt>
      <trkpt lat="42.94301" lon="0.94091">
        <ele>778.03</ele>
        <time>2019-09-06T13:08:47Z</time>
      </trkpt>
      <trkpt lat="42.94309" lon="0.94082">
        <ele>776.68</ele>
        <time>2019-09-06T13:08:57Z</time>
      </trkpt>
      <trkpt lat="42.9431" lon="0.94081">
        <ele>776.49</ele>
        <time>2019-09-06T13:08:58Z</time>
      </trkpt>
      <trkpt lat="42.94313" lon="0.94079">
        <ele>774.27</ele>
        <time>2019-09-06T13:09:15Z</time>
      </trkpt>
      <trkpt lat="42.94314" lon="0.94074">
        <ele>773.82</ele>
        <time>2019-09-06T13:09:47Z</time>
      </trkpt>
      <trkpt lat="42.94312" lon="0.94068">
        <ele>774.34</ele>
        <time>2019-09-06T13:10:30Z</time>
      </trkpt>
      <trkpt lat="42.94317" lon="0.94059">
        <ele>773.2</ele>
        <time>2019-09-06T13:10:47Z</time>
      </trkpt>
      <trkpt lat="42.94326" lon="0.94048">
        <ele>770.01</ele>
        <time>2019-09-06T13:11:01Z</time>
      </trkpt>
      <trkpt lat="42.94341" lon="0.94034">
        <ele>767.55</ele>
        <time>2019-09-06T13:11:16Z</time>
      </trkpt>
      <trkpt lat="42.94348" lon="0.94024">
        <ele>764.6</ele>
        <time>2019-09-06T13:11:33Z</time>
      </trkpt>
      <trkpt lat="42.9435" lon="0.94019">
        <ele>763.44</ele>
        <time>2019-09-06T13:11:57Z</time>
      </trkpt>
      <trkpt lat="42.94355" lon="0.94011">
        <ele>762.68</ele>
        <time>2019-09-06T13:12:19Z</time>
      </trkpt>
      <trkpt lat="42.94364" lon="0.93982">
        <ele>762.16</ele>
        <time>2019-09-06T13:12:38Z</time>
      </trkpt>
      <trkpt lat="42.94368" lon="0.93964">
        <ele>761.76</ele>
        <time>2019-09-06T13:12:54Z</time>
      </trkpt>
      <trkpt lat="42.9437" lon="0.93962">
        <ele>761.71</ele>
        <time>2019-09-06T13:13:14Z</time>
      </trkpt>
      <trkpt lat="42.94371" lon="0.93962">
        <ele>761.74</ele>
        <time>2019-09-06T13:13:39Z</time>
      </trkpt>
      <trkpt lat="42.94354" lon="0.93966">
        <ele>760.53</ele>
        <time>2019-09-06T13:14:00Z</time>
      </trkpt>
      <trkpt lat="42.94333" lon="0.93968">
        <ele>758.4</ele>
        <time>2019-09-06T13:14:17Z</time>
      </trkpt>
      <trkpt lat="42.9432" lon="0.93964">
        <ele>757.34</ele>
        <time>2019-09-06T13:14:32Z</time>
      </trkpt>
      <trkpt lat="42.94301" lon="0.93957">
        <ele>756.51</ele>
        <time>2019-09-06T13:14:51Z</time>
      </trkpt>
      <trkpt lat="42.94286" lon="0.93942">
        <ele>755.9</ele>
        <time>2019-09-06T13:15:10Z</time>
      </trkpt>
      <trkpt lat="42.94263" lon="0.93928">
        <ele>754.76</ele>
        <time>2019-09-06T13:15:30Z</time>
      </trkpt>
      <trkpt lat="42.94245" lon="0.93918">
        <ele>753.66</ele>
        <time>2019-09-06T13:15:45Z</time>
      </trkpt>
      <trkpt lat="42.94218" lon="0.93911">
        <ele>752.8</ele>
        <time>2019-09-06T13:16:07Z</time>
      </trkpt>
      <trkpt lat="42.94195" lon="0.93914">
        <ele>751.67</ele>
        <time>2019-09-06T13:16:28Z</time>
      </trkpt>
      <trkpt lat="42.94172" lon="0.93912">
        <ele>750.46</ele>
        <time>2019-09-06T13:16:47Z</time>
      </trkpt>
      <trkpt lat="42.9415" lon="0.9392">
        <ele>749.73</ele>
        <time>2019-09-06T13:17:06Z</time>
      </trkpt>
      <trkpt lat="42.94128" lon="0.93921">
        <ele>749.3</ele>
        <time>2019-09-06T13:17:23Z</time>
      </trkpt>
      <trkpt lat="42.94103" lon="0.9394">
        <ele>748.03</ele>
        <time>2019-09-06T13:17:45Z</time>
      </trkpt>
      <trkpt lat="42.94083" lon="0.93951">
        <ele>746.96</ele>
        <time>2019-09-06T13:18:03Z</time>
      </trkpt>
      <trkpt lat="42.94063" lon="0.93962">
        <ele>746.69</ele>
        <time>2019-09-06T13:18:21Z</time>
      </trkpt>
      <trkpt lat="42.94048" lon="0.93973">
        <ele>746.45</ele>
        <time>2019-09-06T13:18:37Z</time>
      </trkpt>
      <trkpt lat="42.94026" lon="0.93977">
        <ele>745.89</ele>
        <time>2019-09-06T13:18:56Z</time>
      </trkpt>
      <trkpt lat="42.94005" lon="0.93974">
        <ele>745.71</ele>
        <time>2019-09-06T13:19:13Z</time>
      </trkpt>
      <trkpt lat="42.93983" lon="0.93965">
        <ele>743.34</ele>
        <time>2019-09-06T13:19:34Z</time>
      </trkpt>
      <trkpt lat="42.93959" lon="0.93959">
        <ele>740.75</ele>
        <time>2019-09-06T13:19:53Z</time>
      </trkpt>
      <trkpt lat="42.93939" lon="0.93956">
        <ele>738.41</ele>
        <time>2019-09-06T13:20:07Z</time>
      </trkpt>
      <trkpt lat="42.9392" lon="0.9395">
        <ele>736.14</ele>
        <time>2019-09-06T13:20:24Z</time>
      </trkpt>
      <trkpt lat="42.93903" lon="0.93946">
        <ele>733.08</ele>
        <time>2019-09-06T13:20:40Z</time>
      </trkpt>
      <trkpt lat="42.93897" lon="0.93944">
        <ele>732.27</ele>
        <time>2019-09-06T13:21:12Z</time>
      </trkpt>
      <trkpt lat="42.93884" lon="0.93937">
        <ele>731.77</ele>
        <time>2019-09-06T13:21:33Z</time>
      </trkpt>
      <trkpt lat="42.93868" lon="0.93935">
        <ele>728.73</ele>
        <time>2019-09-06T13:21:49Z</time>
      </trkpt>
      <trkpt lat="42.93855" lon="0.93931">
        <ele>725.65</ele>
        <time>2019-09-06T13:22:02Z</time>
      </trkpt>
      <trkpt lat="42.93838" lon="0.93931">
        <ele>722.36</ele>
        <time>2019-09-06T13:22:15Z</time>
      </trkpt>
      <trkpt lat="42.93824" lon="0.93927">
        <ele>719.27</ele>
        <time>2019-09-06T13:22:27Z</time>
      </trkpt>
      <trkpt lat="42.93808" lon="0.93934">
        <ele>716.1</ele>
        <time>2019-09-06T13:22:40Z</time>
      </trkpt>
      <trkpt lat="42.93792" lon="0.93937">
        <ele>713.01</ele>
        <time>2019-09-06T13:22:53Z</time>
      </trkpt>
      <trkpt lat="42.93781" lon="0.93939">
        <ele>709.92</ele>
        <time>2019-09-06T13:23:06Z</time>
      </trkpt>
      <trkpt lat="42.93762" lon="0.93937">
        <ele>706.79</ele>
        <time>2019-09-06T13:23:22Z</time>
      </trkpt>
      <trkpt lat="42.93747" lon="0.93944">
        <ele>703.66</ele>
        <time>2019-09-06T13:23:40Z</time>
      </trkpt>
      <trkpt lat="42.93731" lon="0.93959">
        <ele>702.11</ele>
        <time>2019-09-06T13:23:52Z</time>
      </trkpt>
      <trkpt lat="42.93711" lon="0.93965">
        <ele>700.4</ele>
        <time>2019-09-06T13:24:09Z</time>
      </trkpt>
      <trkpt lat="42.93689" lon="0.9397">
        <ele>698.45</ele>
        <time>2019-09-06T13:24:26Z</time>
      </trkpt>
      <trkpt lat="42.9367" lon="0.93969">
        <ele>697.43</ele>
        <time>2019-09-06T13:24:44Z</time>
      </trkpt>
      <trkpt lat="42.93653" lon="0.93952">
        <ele>694.69</ele>
        <time>2019-09-06T13:25:00Z</time>
      </trkpt>
      <trkpt lat="42.93647" lon="0.93943">
        <ele>693.85</ele>
        <time>2019-09-06T13:25:06Z</time>
      </trkpt>
      <trkpt lat="42.93646" lon="0.93941">
        <ele>693.59</ele>
        <time>2019-09-06T13:25:07Z</time>
      </trkpt>
      <trkpt lat="42.93645" lon="0.9394">
        <ele>693.46</ele>
        <time>2019-09-06T13:25:08Z</time>
      </trkpt>
      <trkpt lat="42.93643" lon="0.93939">
        <ele>693.34</ele>
        <time>2019-09-06T13:25:09Z</time>
      </trkpt>
      <trkpt lat="42.93632" lon="0.9392">
        <ele>691.46</ele>
        <time>2019-09-06T13:25:23Z</time>
      </trkpt>
      <trkpt lat="42.93618" lon="0.93898">
        <ele>689.4</ele>
        <time>2019-09-06T13:25:43Z</time>
      </trkpt>
      <trkpt lat="42.93617" lon="0.93898">
        <ele>688.83</ele>
        <time>2019-09-06T13:26:01Z</time>
      </trkpt>
      <trkpt lat="42.93616" lon="0.93899">
        <ele>688.64</ele>
        <time>2019-09-06T13:26:28Z</time>
      </trkpt>
      <trkpt lat="42.93618" lon="0.93897">
        <ele>688.64</ele>
        <time>2019-09-06T13:27:07Z</time>
      </trkpt>
      <trkpt lat="42.93617" lon="0.93899">
        <ele>688.64</ele>
        <time>2019-09-06T13:27:50Z</time>
      </trkpt>
      <trkpt lat="42.93618" lon="0.93899">
        <ele>688.64</ele>
        <time>2019-09-06T13:28:19Z</time>
      </trkpt>
      <trkpt lat="42.93617" lon="0.939">
        <ele>688.64</ele>
        <time>2019-09-06T13:29:20Z</time>
      </trkpt>
      <trkpt lat="42.93615" lon="0.93899">
        <ele>688.64</ele>
        <time>2019-09-06T13:30:14Z</time>
      </trkpt>
      <trkpt lat="42.93616" lon="0.93898">
        <ele>688.64</ele>
        <time>2019-09-06T13:31:12Z</time>
      </trkpt>
      <trkpt lat="42.93617" lon="0.93896">
        <ele>688.64</ele>
        <time>2019-09-06T13:31:38Z</time>
      </trkpt>
      <trkpt lat="42.93618" lon="0.93895">
        <ele>688.64</ele>
        <time>2019-09-06T13:32:18Z</time>
      </trkpt>
      <trkpt lat="42.93621" lon="0.93891">
        <ele>688.64</ele>
        <time>2019-09-06T13:32:55Z</time>
      </trkpt>
      <trkpt lat="42.9362" lon="0.93894">
        <ele>688.64</ele>
        <time>2019-09-06T13:33:25Z</time>
      </trkpt>
      <trkpt lat="42.93618" lon="0.93896">
        <ele>688.64</ele>
        <time>2019-09-06T13:33:47Z</time>
      </trkpt>
      <trkpt lat="42.93616" lon="0.93897">
        <ele>688.64</ele>
        <time>2019-09-06T13:34:23Z</time>
      </trkpt>
      <trkpt lat="42.93615" lon="0.93897">
        <ele>688.64</ele>
        <time>2019-09-06T13:35:39Z</time>
      </trkpt>
      <trkpt lat="42.93612" lon="0.93899">
        <ele>688.64</ele>
        <time>2019-09-06T13:36:55Z</time>
      </trkpt>
      <trkpt lat="42.93612" lon="0.93898">
        <ele>688.64</ele>
        <time>2019-09-06T13:38:09Z</time>
      </trkpt>
      <trkpt lat="42.93612" lon="0.93899">
        <ele>688.64</ele>
        <time>2019-09-06T13:38:49Z</time>
      </trkpt>
      <trkpt lat="42.93611" lon="0.939">
        <ele>688.64</ele>
        <time>2019-09-06T13:39:40Z</time>
      </trkpt>
      <trkpt lat="42.9361" lon="0.939">
        <ele>688.64</ele>
        <time>2019-09-06T13:39:56Z</time>
      </trkpt>
      <trkpt lat="42.93612" lon="0.93897">
        <ele>688.64</ele>
        <time>2019-09-06T13:40:24Z</time>
      </trkpt>
      <trkpt lat="42.93612" lon="0.93897">
        <ele>688.64</ele>
        <time>2019-09-06T13:41:17Z</time>
      </trkpt>
      <trkpt lat="42.9361" lon="0.93897">
        <ele>688.64</ele>
        <time>2019-09-06T13:42:11Z</time>
      </trkpt>
      <trkpt lat="42.9361" lon="0.93897">
        <ele>688.64</ele>
        <time>2019-09-06T13:43:11Z</time>
      </trkpt>
      <trkpt lat="42.93611" lon="0.93897">
        <ele>688.64</ele>
        <time>2019-09-06T13:44:10Z</time>
      </trkpt>
      <trkpt lat="42.93613" lon="0.93899">
        <ele>688.64</ele>
        <time>2019-09-06T13:44:43Z</time>
      </trkpt>
      <trkpt lat="42.93614" lon="0.93901">
        <ele>688.64</ele>
        <time>2019-09-06T13:45:32Z</time>
      </trkpt>
      <trkpt lat="42.93615" lon="0.93899">
        <ele>688.64</ele>
        <time>2019-09-06T13:46:33Z</time>
      </trkpt>
      <trkpt lat="42.93612" lon="0.9389">
        <ele>688.64</ele>
        <time>2019-09-06T13:46:44Z</time>
      </trkpt>
      <trkpt lat="42.93611" lon="0.93889">
        <ele>688.64</ele>
        <time>2019-09-06T13:46:45Z</time>
      </trkpt>
      <trkpt lat="42.93603" lon="0.93862">
        <ele>686.97</ele>
        <time>2019-09-06T13:47:03Z</time>
      </trkpt>
      <trkpt lat="42.93596" lon="0.93836">
        <ele>687</ele>
        <time>2019-09-06T13:47:19Z</time>
      </trkpt>
      <trkpt lat="42.9359" lon="0.93817">
        <ele>686.85</ele>
        <time>2019-09-06T13:47:34Z</time>
      </trkpt>
      <trkpt lat="42.93583" lon="0.93786">
        <ele>685.8</ele>
        <time>2019-09-06T13:47:54Z</time>
      </trkpt>
      <trkpt lat="42.93574" lon="0.9376">
        <ele>685.44</ele>
        <time>2019-09-06T13:48:11Z</time>
      </trkpt>
      <trkpt lat="42.93573" lon="0.93757">
        <ele>685.48</ele>
        <time>2019-09-06T13:48:19Z</time>
      </trkpt>
      <trkpt lat="42.9357" lon="0.93744">
        <ele>685.46</ele>
        <time>2019-09-06T13:48:27Z</time>
      </trkpt>
      <trkpt lat="42.93564" lon="0.93713">
        <ele>685.47</ele>
        <time>2019-09-06T13:48:46Z</time>
      </trkpt>
      <trkpt lat="42.93558" lon="0.93695">
        <ele>684.9</ele>
        <time>2019-09-06T13:49:02Z</time>
      </trkpt>
      <trkpt lat="42.93558" lon="0.93691">
        <ele>684.88</ele>
        <time>2019-09-06T13:49:05Z</time>
      </trkpt>
      <trkpt lat="42.93555" lon="0.93673">
        <ele>684.74</ele>
        <time>2019-09-06T13:49:19Z</time>
      </trkpt>
      <trkpt lat="42.93549" lon="0.93636">
        <ele>684.69</ele>
        <time>2019-09-06T13:49:39Z</time>
      </trkpt>
      <trkpt lat="42.93549" lon="0.93616">
        <ele>684.77</ele>
        <time>2019-09-06T13:49:52Z</time>
      </trkpt>
      <trkpt lat="42.9354" lon="0.93577">
        <ele>683.28</ele>
        <time>2019-09-06T13:50:12Z</time>
      </trkpt>
      <trkpt lat="42.93544" lon="0.93547">
        <ele>683.6</ele>
        <time>2019-09-06T13:50:30Z</time>
      </trkpt>
      <trkpt lat="42.93544" lon="0.93515">
        <ele>684.22</ele>
        <time>2019-09-06T13:50:47Z</time>
      </trkpt>
      <trkpt lat="42.93549" lon="0.9348">
        <ele>685.12</ele>
        <time>2019-09-06T13:51:06Z</time>
      </trkpt>
      <trkpt lat="42.93559" lon="0.93456">
        <ele>686.76</ele>
        <time>2019-09-06T13:51:24Z</time>
      </trkpt>
      <trkpt lat="42.93568" lon="0.93434">
        <ele>688.53</ele>
        <time>2019-09-06T13:51:41Z</time>
      </trkpt>
      <trkpt lat="42.93571" lon="0.93412">
        <ele>690.65</ele>
        <time>2019-09-06T13:51:58Z</time>
      </trkpt>
      <trkpt lat="42.93561" lon="0.9338">
        <ele>692.81</ele>
        <time>2019-09-06T13:52:17Z</time>
      </trkpt>
      <trkpt lat="42.93547" lon="0.93351">
        <ele>695.44</ele>
        <time>2019-09-06T13:52:39Z</time>
      </trkpt>
      <trkpt lat="42.93536" lon="0.93336">
        <ele>697.17</ele>
        <time>2019-09-06T13:52:56Z</time>
      </trkpt>
      <trkpt lat="42.93525" lon="0.93322">
        <ele>699.23</ele>
        <time>2019-09-06T13:53:13Z</time>
      </trkpt>
      <trkpt lat="42.93518" lon="0.93302">
        <ele>701.08</ele>
        <time>2019-09-06T13:53:29Z</time>
      </trkpt>
      <trkpt lat="42.93518" lon="0.93282">
        <ele>702.74</ele>
        <time>2019-09-06T13:53:43Z</time>
      </trkpt>
      <trkpt lat="42.93518" lon="0.9328">
        <ele>702.81</ele>
        <time>2019-09-06T13:53:44Z</time>
      </trkpt>
      <trkpt lat="42.93521" lon="0.9326">
        <ele>703.97</ele>
        <time>2019-09-06T13:53:59Z</time>
      </trkpt>
      <trkpt lat="42.93525" lon="0.93254">
        <ele>704.63</ele>
        <time>2019-09-06T13:54:04Z</time>
      </trkpt>
      <trkpt lat="42.93526" lon="0.93252">
        <ele>704.76</ele>
        <time>2019-09-06T13:54:05Z</time>
      </trkpt>
      <trkpt lat="42.93526" lon="0.9325">
        <ele>704.86</ele>
        <time>2019-09-06T13:54:06Z</time>
      </trkpt>
      <trkpt lat="42.9353" lon="0.93245">
        <ele>705.06</ele>
        <time>2019-09-06T13:54:10Z</time>
      </trkpt>
      <trkpt lat="42.9353" lon="0.93244">
        <ele>705.06</ele>
        <time>2019-09-06T13:54:11Z</time>
      </trkpt>
      <trkpt lat="42.93531" lon="0.93242">
        <ele>705.06</ele>
        <time>2019-09-06T13:54:12Z</time>
      </trkpt>
      <trkpt lat="42.93531" lon="0.9324">
        <ele>705.05</ele>
        <time>2019-09-06T13:54:13Z</time>
      </trkpt>
      <trkpt lat="42.93532" lon="0.93238">
        <ele>705.03</ele>
        <time>2019-09-06T13:54:14Z</time>
      </trkpt>
      <trkpt lat="42.93532" lon="0.93236">
        <ele>705</ele>
        <time>2019-09-06T13:54:15Z</time>
      </trkpt>
      <trkpt lat="42.93532" lon="0.93234">
        <ele>704.98</ele>
        <time>2019-09-06T13:54:16Z</time>
      </trkpt>
      <trkpt lat="42.93533" lon="0.93233">
        <ele>704.95</ele>
        <time>2019-09-06T13:54:17Z</time>
      </trkpt>
      <trkpt lat="42.93536" lon="0.93221">
        <ele>704.73</ele>
        <time>2019-09-06T13:54:25Z</time>
      </trkpt>
      <trkpt lat="42.93537" lon="0.9322">
        <ele>704.71</ele>
        <time>2019-09-06T13:54:26Z</time>
      </trkpt>
      <trkpt lat="42.93538" lon="0.93218">
        <ele>704.69</ele>
        <time>2019-09-06T13:54:27Z</time>
      </trkpt>
      <trkpt lat="42.93543" lon="0.93191">
        <ele>704.09</ele>
        <time>2019-09-06T13:54:44Z</time>
      </trkpt>
      <trkpt lat="42.93548" lon="0.93161">
        <ele>704.62</ele>
        <time>2019-09-06T13:55:01Z</time>
      </trkpt>
      <trkpt lat="42.93551" lon="0.93136">
        <ele>705.4</ele>
        <time>2019-09-06T13:55:18Z</time>
      </trkpt>
      <trkpt lat="42.93551" lon="0.93114">
        <ele>706.12</ele>
        <time>2019-09-06T13:55:34Z</time>
      </trkpt>
      <trkpt lat="42.9355" lon="0.9311">
        <ele>706.1</ele>
        <time>2019-09-06T13:55:36Z</time>
      </trkpt>
      <trkpt lat="42.93541" lon="0.93078">
        <ele>705.99</ele>
        <time>2019-09-06T13:55:52Z</time>
      </trkpt>
      <trkpt lat="42.93537" lon="0.93058">
        <ele>706.42</ele>
        <time>2019-09-06T13:56:04Z</time>
      </trkpt>
      <trkpt lat="42.93528" lon="0.9303">
        <ele>707.71</ele>
        <time>2019-09-06T13:56:22Z</time>
      </trkpt>
      <trkpt lat="42.93512" lon="0.9301">
        <ele>708.25</ele>
        <time>2019-09-06T13:56:40Z</time>
      </trkpt>
      <trkpt lat="42.93499" lon="0.92997">
        <ele>709.75</ele>
        <time>2019-09-06T13:56:53Z</time>
      </trkpt>
      <trkpt lat="42.93498" lon="0.92996">
        <ele>709.76</ele>
        <time>2019-09-06T13:56:54Z</time>
      </trkpt>
      <trkpt lat="42.93497" lon="0.92995">
        <ele>709.76</ele>
        <time>2019-09-06T13:56:55Z</time>
      </trkpt>
      <trkpt lat="42.93496" lon="0.92994">
        <ele>709.76</ele>
        <time>2019-09-06T13:56:56Z</time>
      </trkpt>
      <trkpt lat="42.93486" lon="0.92975">
        <ele>711.45</ele>
        <time>2019-09-06T13:57:13Z</time>
      </trkpt>
      <trkpt lat="42.93487" lon="0.92946">
        <ele>713.73</ele>
        <time>2019-09-06T13:57:30Z</time>
      </trkpt>
      <trkpt lat="42.93494" lon="0.92925">
        <ele>714.44</ele>
        <time>2019-09-06T13:57:44Z</time>
      </trkpt>
      <trkpt lat="42.93503" lon="0.92903">
        <ele>715.77</ele>
        <time>2019-09-06T13:58:00Z</time>
      </trkpt>
      <trkpt lat="42.93519" lon="0.92877">
        <ele>717.72</ele>
        <time>2019-09-06T13:58:20Z</time>
      </trkpt>
      <trkpt lat="42.9353" lon="0.92857">
        <ele>720.29</ele>
        <time>2019-09-06T13:58:39Z</time>
      </trkpt>
      <trkpt lat="42.93533" lon="0.92852">
        <ele>721.02</ele>
        <time>2019-09-06T13:58:44Z</time>
      </trkpt>
      <trkpt lat="42.93534" lon="0.9285">
        <ele>721.12</ele>
        <time>2019-09-06T13:58:45Z</time>
      </trkpt>
      <trkpt lat="42.93534" lon="0.92849">
        <ele>721.22</ele>
        <time>2019-09-06T13:58:46Z</time>
      </trkpt>
      <trkpt lat="42.93535" lon="0.92847">
        <ele>721.32</ele>
        <time>2019-09-06T13:58:47Z</time>
      </trkpt>
      <trkpt lat="42.93536" lon="0.92846">
        <ele>721.37</ele>
        <time>2019-09-06T13:58:48Z</time>
      </trkpt>
      <trkpt lat="42.93546" lon="0.9282">
        <ele>721.16</ele>
        <time>2019-09-06T13:59:06Z</time>
      </trkpt>
      <trkpt lat="42.93547" lon="0.92813">
        <ele>720.6</ele>
        <time>2019-09-06T13:59:10Z</time>
      </trkpt>
      <trkpt lat="42.93548" lon="0.92811">
        <ele>720.49</ele>
        <time>2019-09-06T13:59:11Z</time>
      </trkpt>
      <trkpt lat="42.93548" lon="0.92809">
        <ele>720.39</ele>
        <time>2019-09-06T13:59:12Z</time>
      </trkpt>
      <trkpt lat="42.93548" lon="0.92807">
        <ele>720.29</ele>
        <time>2019-09-06T13:59:13Z</time>
      </trkpt>
      <trkpt lat="42.93552" lon="0.92774">
        <ele>718.67</ele>
        <time>2019-09-06T13:59:31Z</time>
      </trkpt>
      <trkpt lat="42.93559" lon="0.92745">
        <ele>715.64</ele>
        <time>2019-09-06T13:59:49Z</time>
      </trkpt>
      <trkpt lat="42.93559" lon="0.92735">
        <ele>714.86</ele>
        <time>2019-09-06T13:59:56Z</time>
      </trkpt>
      <trkpt lat="42.93557" lon="0.92731">
        <ele>714.49</ele>
        <time>2019-09-06T13:59:59Z</time>
      </trkpt>
      <trkpt lat="42.93558" lon="0.92729">
        <ele>714.37</ele>
        <time>2019-09-06T14:00:00Z</time>
      </trkpt>
      <trkpt lat="42.93565" lon="0.92712">
        <ele>713.49</ele>
        <time>2019-09-06T14:00:15Z</time>
      </trkpt>
      <trkpt lat="42.93563" lon="0.92717">
        <ele>713.1</ele>
        <time>2019-09-06T14:00:32Z</time>
      </trkpt>
      <trkpt lat="42.93566" lon="0.92702">
        <ele>712.51</ele>
        <time>2019-09-06T14:00:42Z</time>
      </trkpt>
      <trkpt lat="42.93567" lon="0.92701">
        <ele>712.46</ele>
        <time>2019-09-06T14:00:43Z</time>
      </trkpt>
      <trkpt lat="42.93568" lon="0.92699">
        <ele>712.34</ele>
        <time>2019-09-06T14:00:44Z</time>
      </trkpt>
      <trkpt lat="42.93573" lon="0.92687">
        <ele>713.06</ele>
        <time>2019-09-06T14:00:53Z</time>
      </trkpt>
      <trkpt lat="42.93573" lon="0.92682">
        <ele>712.93</ele>
        <time>2019-09-06T14:00:57Z</time>
      </trkpt>
      <trkpt lat="42.93572" lon="0.92681">
        <ele>712.85</ele>
        <time>2019-09-06T14:00:58Z</time>
      </trkpt>
      <trkpt lat="42.9357" lon="0.9268">
        <ele>712.68</ele>
        <time>2019-09-06T14:01:00Z</time>
      </trkpt>
      <trkpt lat="42.93569" lon="0.92681">
        <ele>712.65</ele>
        <time>2019-09-06T14:01:01Z</time>
      </trkpt>
      <trkpt lat="42.9355" lon="0.92701">
        <ele>711.41</ele>
        <time>2019-09-06T14:01:18Z</time>
      </trkpt>
      <trkpt lat="42.93545" lon="0.92708">
        <ele>711</ele>
        <time>2019-09-06T14:01:23Z</time>
      </trkpt>
      <trkpt lat="42.93541" lon="0.92706">
        <ele>710.7</ele>
        <time>2019-09-06T14:01:26Z</time>
      </trkpt>
      <trkpt lat="42.93541" lon="0.92702">
        <ele>710.45</ele>
        <time>2019-09-06T14:01:28Z</time>
      </trkpt>
      <trkpt lat="42.93541" lon="0.927">
        <ele>710.29</ele>
        <time>2019-09-06T14:01:29Z</time>
      </trkpt>
      <trkpt lat="42.93546" lon="0.92674">
        <ele>707.1</ele>
        <time>2019-09-06T14:01:42Z</time>
      </trkpt>
      <trkpt lat="42.93549" lon="0.92659">
        <ele>703.98</ele>
        <time>2019-09-06T14:01:52Z</time>
      </trkpt>
      <trkpt lat="42.9355" lon="0.9265">
        <ele>702.67</ele>
        <time>2019-09-06T14:01:57Z</time>
      </trkpt>
      <trkpt lat="42.9355" lon="0.92648">
        <ele>702.42</ele>
        <time>2019-09-06T14:01:58Z</time>
      </trkpt>
      <trkpt lat="42.93551" lon="0.92646">
        <ele>702.19</ele>
        <time>2019-09-06T14:01:59Z</time>
      </trkpt>
      <trkpt lat="42.93552" lon="0.92642">
        <ele>701.72</ele>
        <time>2019-09-06T14:02:01Z</time>
      </trkpt>
      <trkpt lat="42.93554" lon="0.92636">
        <ele>701</ele>
        <time>2019-09-06T14:02:05Z</time>
      </trkpt>
      <trkpt lat="42.93565" lon="0.92611">
        <ele>699.07</ele>
        <time>2019-09-06T14:02:19Z</time>
      </trkpt>
      <trkpt lat="42.9357" lon="0.92598">
        <ele>697.93</ele>
        <time>2019-09-06T14:02:27Z</time>
      </trkpt>
      <trkpt lat="42.93574" lon="0.92575">
        <ele>694.91</ele>
        <time>2019-09-06T14:02:40Z</time>
      </trkpt>
      <trkpt lat="42.93577" lon="0.92558">
        <ele>691.7</ele>
        <time>2019-09-06T14:02:51Z</time>
      </trkpt>
      <trkpt lat="42.93576" lon="0.92551">
        <ele>690.67</ele>
        <time>2019-09-06T14:02:55Z</time>
      </trkpt>
      <trkpt lat="42.93572" lon="0.92532">
        <ele>687.61</ele>
        <time>2019-09-06T14:03:06Z</time>
      </trkpt>
      <trkpt lat="42.93566" lon="0.92517">
        <ele>685.97</ele>
        <time>2019-09-06T14:03:18Z</time>
      </trkpt>
      <trkpt lat="42.93558" lon="0.92513">
        <ele>684.61</ele>
        <time>2019-09-06T14:03:24Z</time>
      </trkpt>
      <trkpt lat="42.93557" lon="0.92513">
        <ele>684.46</ele>
        <time>2019-09-06T14:03:25Z</time>
      </trkpt>
      <trkpt lat="42.93555" lon="0.92513">
        <ele>684.31</ele>
        <time>2019-09-06T14:03:26Z</time>
      </trkpt>
      <trkpt lat="42.93554" lon="0.92513">
        <ele>684.16</ele>
        <time>2019-09-06T14:03:27Z</time>
      </trkpt>
      <trkpt lat="42.93532" lon="0.92514">
        <ele>683.37</ele>
        <time>2019-09-06T14:03:44Z</time>
      </trkpt>
      <trkpt lat="42.93518" lon="0.92515">
        <ele>684.16</ele>
        <time>2019-09-06T14:03:56Z</time>
      </trkpt>
      <trkpt lat="42.93505" lon="0.92513">
        <ele>685.75</ele>
        <time>2019-09-06T14:04:08Z</time>
      </trkpt>
      <trkpt lat="42.93493" lon="0.92502">
        <ele>688.55</ele>
        <time>2019-09-06T14:04:24Z</time>
      </trkpt>
      <trkpt lat="42.93486" lon="0.92474">
        <ele>688.4</ele>
        <time>2019-09-06T14:04:40Z</time>
      </trkpt>
      <trkpt lat="42.93464" lon="0.92457">
        <ele>687.46</ele>
        <time>2019-09-06T14:04:57Z</time>
      </trkpt>
      <trkpt lat="42.93462" lon="0.92456">
        <ele>687.46</ele>
        <time>2019-09-06T14:04:58Z</time>
      </trkpt>
      <trkpt lat="42.93451" lon="0.92445">
        <ele>687.77</ele>
        <time>2019-09-06T14:05:13Z</time>
      </trkpt>
      <trkpt lat="42.93446" lon="0.92424">
        <ele>690.75</ele>
        <time>2019-09-06T14:05:29Z</time>
      </trkpt>
      <trkpt lat="42.93444" lon="0.92401">
        <ele>693.14</ele>
        <time>2019-09-06T14:05:45Z</time>
      </trkpt>
      <trkpt lat="42.93443" lon="0.92378">
        <ele>696.06</ele>
        <time>2019-09-06T14:06:03Z</time>
      </trkpt>
      <trkpt lat="42.93438" lon="0.92374">
        <ele>697.68</ele>
        <time>2019-09-06T14:06:18Z</time>
      </trkpt>
      <trkpt lat="42.93435" lon="0.92375">
        <ele>697.66</ele>
        <time>2019-09-06T14:06:21Z</time>
      </trkpt>
      <trkpt lat="42.93427" lon="0.92384">
        <ele>698.45</ele>
        <time>2019-09-06T14:06:31Z</time>
      </trkpt>
      <trkpt lat="42.93419" lon="0.92386">
        <ele>697.88</ele>
        <time>2019-09-06T14:06:40Z</time>
      </trkpt>
      <trkpt lat="42.93412" lon="0.9238">
        <ele>697.14</ele>
        <time>2019-09-06T14:06:55Z</time>
      </trkpt>
      <trkpt lat="42.93409" lon="0.92373">
        <ele>693.94</ele>
        <time>2019-09-06T14:07:07Z</time>
      </trkpt>
      <trkpt lat="42.93405" lon="0.92364">
        <ele>690.68</ele>
        <time>2019-09-06T14:07:17Z</time>
      </trkpt>
      <trkpt lat="42.93407" lon="0.92351">
        <ele>687.54</ele>
        <time>2019-09-06T14:07:27Z</time>
      </trkpt>
      <trkpt lat="42.93407" lon="0.92332">
        <ele>684.4</ele>
        <time>2019-09-06T14:07:38Z</time>
      </trkpt>
      <trkpt lat="42.93408" lon="0.92319">
        <ele>682.26</ele>
        <time>2019-09-06T14:07:46Z</time>
      </trkpt>
      <trkpt lat="42.93405" lon="0.923">
        <ele>679.24</ele>
        <time>2019-09-06T14:07:59Z</time>
      </trkpt>
      <trkpt lat="42.93402" lon="0.92281">
        <ele>675.98</ele>
        <time>2019-09-06T14:08:12Z</time>
      </trkpt>
      <trkpt lat="42.93397" lon="0.9227">
        <ele>672.75</ele>
        <time>2019-09-06T14:08:24Z</time>
      </trkpt>
      <trkpt lat="42.93387" lon="0.9226">
        <ele>669.62</ele>
        <time>2019-09-06T14:08:35Z</time>
      </trkpt>
      <trkpt lat="42.93379" lon="0.92246">
        <ele>666.46</ele>
        <time>2019-09-06T14:08:46Z</time>
      </trkpt>
      <trkpt lat="42.9337" lon="0.92234">
        <ele>663.17</ele>
        <time>2019-09-06T14:08:56Z</time>
      </trkpt>
      <trkpt lat="42.93362" lon="0.92217">
        <ele>659.99</ele>
        <time>2019-09-06T14:09:08Z</time>
      </trkpt>
      <trkpt lat="42.93356" lon="0.92193">
        <ele>656.93</ele>
        <time>2019-09-06T14:09:24Z</time>
      </trkpt>
      <trkpt lat="42.93346" lon="0.92172">
        <ele>653.78</ele>
        <time>2019-09-06T14:09:38Z</time>
      </trkpt>
      <trkpt lat="42.93331" lon="0.92147">
        <ele>650.76</ele>
        <time>2019-09-06T14:09:54Z</time>
      </trkpt>
      <trkpt lat="42.93308" lon="0.9213">
        <ele>647.88</ele>
        <time>2019-09-06T14:10:12Z</time>
      </trkpt>
      <trkpt lat="42.93299" lon="0.92109">
        <ele>645.9</ele>
        <time>2019-09-06T14:10:28Z</time>
      </trkpt>
      <trkpt lat="42.93293" lon="0.92091">
        <ele>644.54</ele>
        <time>2019-09-06T14:10:39Z</time>
      </trkpt>
      <trkpt lat="42.93286" lon="0.9207">
        <ele>643.02</ele>
        <time>2019-09-06T14:10:53Z</time>
      </trkpt>
      <trkpt lat="42.93278" lon="0.92048">
        <ele>641.08</ele>
        <time>2019-09-06T14:11:08Z</time>
      </trkpt>
      <trkpt lat="42.93268" lon="0.9202">
        <ele>638.57</ele>
        <time>2019-09-06T14:11:26Z</time>
      </trkpt>
      <trkpt lat="42.93264" lon="0.92018">
        <ele>637.6</ele>
        <time>2019-09-06T14:11:33Z</time>
      </trkpt>
      <trkpt lat="42.9326" lon="0.92017">
        <ele>637.42</ele>
        <time>2019-09-06T14:11:35Z</time>
      </trkpt>
      <trkpt lat="42.93258" lon="0.92016">
        <ele>637.36</ele>
        <time>2019-09-06T14:11:36Z</time>
      </trkpt>
      <trkpt lat="42.9325" lon="0.91983">
        <ele>636.08</ele>
        <time>2019-09-06T14:11:54Z</time>
      </trkpt>
      <trkpt lat="42.93243" lon="0.91953">
        <ele>634.81</ele>
        <time>2019-09-06T14:12:13Z</time>
      </trkpt>
      <trkpt lat="42.9324" lon="0.91945">
        <ele>637.49</ele>
        <time>2019-09-06T14:12:19Z</time>
      </trkpt>
      <trkpt lat="42.93232" lon="0.91937">
        <ele>634.67</ele>
        <time>2019-09-06T14:12:34Z</time>
      </trkpt>
      <trkpt lat="42.93231" lon="0.91937">
        <ele>634.67</ele>
        <time>2019-09-06T14:12:35Z</time>
      </trkpt>
      <trkpt lat="42.93211" lon="0.91931">
        <ele>633.4</ele>
        <time>2019-09-06T14:12:51Z</time>
      </trkpt>
      <trkpt lat="42.93188" lon="0.91928">
        <ele>633.59</ele>
        <time>2019-09-06T14:13:09Z</time>
      </trkpt>
      <trkpt lat="42.9316" lon="0.91922">
        <ele>633.82</ele>
        <time>2019-09-06T14:13:30Z</time>
      </trkpt>
      <trkpt lat="42.93151" lon="0.919">
        <ele>633.67</ele>
        <time>2019-09-06T14:13:46Z</time>
      </trkpt>
      <trkpt lat="42.93153" lon="0.91877">
        <ele>633.45</ele>
        <time>2019-09-06T14:13:59Z</time>
      </trkpt>
      <trkpt lat="42.9316" lon="0.91855">
        <ele>633.62</ele>
        <time>2019-09-06T14:14:13Z</time>
      </trkpt>
      <trkpt lat="42.9317" lon="0.91826">
        <ele>633.89</ele>
        <time>2019-09-06T14:14:31Z</time>
      </trkpt>
      <trkpt lat="42.9317" lon="0.91802">
        <ele>634.13</ele>
        <time>2019-09-06T14:14:47Z</time>
      </trkpt>
      <trkpt lat="42.93171" lon="0.91793">
        <ele>634.25</ele>
        <time>2019-09-06T14:14:54Z</time>
      </trkpt>
      <trkpt lat="42.93166" lon="0.91776">
        <ele>634.45</ele>
        <time>2019-09-06T14:15:07Z</time>
      </trkpt>
      <trkpt lat="42.93159" lon="0.91766">
        <ele>634.64</ele>
        <time>2019-09-06T14:15:15Z</time>
      </trkpt>
      <trkpt lat="42.9315" lon="0.91752">
        <ele>634.84</ele>
        <time>2019-09-06T14:15:24Z</time>
      </trkpt>
      <trkpt lat="42.93149" lon="0.9175">
        <ele>634.86</ele>
        <time>2019-09-06T14:15:25Z</time>
      </trkpt>
      <trkpt lat="42.93146" lon="0.91746">
        <ele>635.43</ele>
        <time>2019-09-06T14:15:31Z</time>
      </trkpt>
      <trkpt lat="42.93144" lon="0.91741">
        <ele>635.41</ele>
        <time>2019-09-06T14:15:34Z</time>
      </trkpt>
      <trkpt lat="42.93143" lon="0.9174">
        <ele>635.55</ele>
        <time>2019-09-06T14:15:35Z</time>
      </trkpt>
      <trkpt lat="42.93128" lon="0.91718">
        <ele>636.04</ele>
        <time>2019-09-06T14:15:55Z</time>
      </trkpt>
      <trkpt lat="42.93111" lon="0.91694">
        <ele>636.47</ele>
        <time>2019-09-06T14:16:14Z</time>
      </trkpt>
      <trkpt lat="42.93096" lon="0.91679">
        <ele>637.11</ele>
        <time>2019-09-06T14:16:29Z</time>
      </trkpt>
      <trkpt lat="42.93086" lon="0.91681">
        <ele>637.19</ele>
        <time>2019-09-06T14:16:37Z</time>
      </trkpt>
      <trkpt lat="42.93067" lon="0.91686">
        <ele>639.1</ele>
        <time>2019-09-06T14:16:54Z</time>
      </trkpt>
      <trkpt lat="42.93059" lon="0.91674">
        <ele>641.06</ele>
        <time>2019-09-06T14:17:09Z</time>
      </trkpt>
      <trkpt lat="42.93058" lon="0.91657">
        <ele>642.6</ele>
        <time>2019-09-06T14:17:21Z</time>
      </trkpt>
      <trkpt lat="42.93056" lon="0.91649">
        <ele>642.74</ele>
        <time>2019-09-06T14:17:25Z</time>
      </trkpt>
      <trkpt lat="42.93054" lon="0.91635">
        <ele>643.62</ele>
        <time>2019-09-06T14:17:38Z</time>
      </trkpt>
      <trkpt lat="42.93044" lon="0.91624">
        <ele>645.09</ele>
        <time>2019-09-06T14:17:53Z</time>
      </trkpt>
      <trkpt lat="42.93037" lon="0.91621">
        <ele>645.7</ele>
        <time>2019-09-06T14:18:04Z</time>
      </trkpt>
      <trkpt lat="42.93019" lon="0.91624">
        <ele>647.4</ele>
        <time>2019-09-06T14:18:21Z</time>
      </trkpt>
      <trkpt lat="42.93016" lon="0.91626">
        <ele>647.64</ele>
        <time>2019-09-06T14:18:24Z</time>
      </trkpt>
      <trkpt lat="42.93004" lon="0.91631">
        <ele>649.08</ele>
        <time>2019-09-06T14:18:37Z</time>
      </trkpt>
      <trkpt lat="42.92983" lon="0.9164">
        <ele>651.72</ele>
        <time>2019-09-06T14:18:57Z</time>
      </trkpt>
      <trkpt lat="42.9296" lon="0.91636">
        <ele>654.75</ele>
        <time>2019-09-06T14:19:18Z</time>
      </trkpt>
      <trkpt lat="42.92941" lon="0.91625">
        <ele>657.84</ele>
        <time>2019-09-06T14:19:39Z</time>
      </trkpt>
      <trkpt lat="42.92928" lon="0.91619">
        <ele>660.43</ele>
        <time>2019-09-06T14:19:58Z</time>
      </trkpt>
      <trkpt lat="42.92923" lon="0.91619">
        <ele>662.36</ele>
        <time>2019-09-06T14:20:21Z</time>
      </trkpt>
      <trkpt lat="42.92912" lon="0.91615">
        <ele>663.46</ele>
        <time>2019-09-06T14:20:42Z</time>
      </trkpt>
      <trkpt lat="42.92895" lon="0.91608">
        <ele>665.88</ele>
        <time>2019-09-06T14:21:00Z</time>
      </trkpt>
      <trkpt lat="42.9288" lon="0.91602">
        <ele>668.97</ele>
        <time>2019-09-06T14:21:18Z</time>
      </trkpt>
      <trkpt lat="42.92868" lon="0.91597">
        <ele>672.02</ele>
        <time>2019-09-06T14:21:36Z</time>
      </trkpt>
      <trkpt lat="42.92856" lon="0.91587">
        <ele>675.02</ele>
        <time>2019-09-06T14:21:52Z</time>
      </trkpt>
      <trkpt lat="42.92838" lon="0.91557">
        <ele>674.91</ele>
        <time>2019-09-06T14:22:13Z</time>
      </trkpt>
      <trkpt lat="42.92828" lon="0.91535">
        <ele>675.89</ele>
        <time>2019-09-06T14:22:30Z</time>
      </trkpt>
      <trkpt lat="42.9282" lon="0.91516">
        <ele>677.52</ele>
        <time>2019-09-06T14:22:50Z</time>
      </trkpt>
      <trkpt lat="42.92806" lon="0.91486">
        <ele>679.08</ele>
        <time>2019-09-06T14:23:09Z</time>
      </trkpt>
      <trkpt lat="42.92803" lon="0.91468">
        <ele>680.1</ele>
        <time>2019-09-06T14:23:28Z</time>
      </trkpt>
      <trkpt lat="42.92795" lon="0.91443">
        <ele>682.26</ele>
        <time>2019-09-06T14:23:46Z</time>
      </trkpt>
      <trkpt lat="42.92791" lon="0.91409">
        <ele>684.11</ele>
        <time>2019-09-06T14:24:08Z</time>
      </trkpt>
      <trkpt lat="42.92783" lon="0.91375">
        <ele>686.08</ele>
        <time>2019-09-06T14:24:27Z</time>
      </trkpt>
      <trkpt lat="42.92778" lon="0.91358">
        <ele>688.59</ele>
        <time>2019-09-06T14:24:46Z</time>
      </trkpt>
      <trkpt lat="42.92765" lon="0.91331">
        <ele>691.21</ele>
        <time>2019-09-06T14:25:06Z</time>
      </trkpt>
      <trkpt lat="42.92755" lon="0.91309">
        <ele>694.04</ele>
        <time>2019-09-06T14:25:25Z</time>
      </trkpt>
      <trkpt lat="42.92748" lon="0.91288">
        <ele>697.13</ele>
        <time>2019-09-06T14:25:47Z</time>
      </trkpt>
      <trkpt lat="42.92739" lon="0.91268">
        <ele>699.96</ele>
        <time>2019-09-06T14:26:06Z</time>
      </trkpt>
      <trkpt lat="42.92732" lon="0.91238">
        <ele>702.65</ele>
        <time>2019-09-06T14:26:28Z</time>
      </trkpt>
      <trkpt lat="42.92723" lon="0.9121">
        <ele>703.63</ele>
        <time>2019-09-06T14:26:49Z</time>
      </trkpt>
      <trkpt lat="42.92716" lon="0.91181">
        <ele>704.89</ele>
        <time>2019-09-06T14:27:09Z</time>
      </trkpt>
      <trkpt lat="42.92715" lon="0.91166">
        <ele>705.88</ele>
        <time>2019-09-06T14:27:27Z</time>
      </trkpt>
      <trkpt lat="42.92706" lon="0.91133">
        <ele>707.68</ele>
        <time>2019-09-06T14:27:48Z</time>
      </trkpt>
      <trkpt lat="42.92695" lon="0.91107">
        <ele>710.85</ele>
        <time>2019-09-06T14:28:08Z</time>
      </trkpt>
      <trkpt lat="42.92691" lon="0.91092">
        <ele>713.9</ele>
        <time>2019-09-06T14:28:25Z</time>
      </trkpt>
      <trkpt lat="42.92683" lon="0.91053">
        <ele>714.45</ele>
        <time>2019-09-06T14:28:46Z</time>
      </trkpt>
      <trkpt lat="42.92679" lon="0.91029">
        <ele>715.31</ele>
        <time>2019-09-06T14:29:04Z</time>
      </trkpt>
      <trkpt lat="42.92672" lon="0.91008">
        <ele>716.65</ele>
        <time>2019-09-06T14:29:21Z</time>
      </trkpt>
      <trkpt lat="42.9266" lon="0.90991">
        <ele>718.97</ele>
        <time>2019-09-06T14:29:40Z</time>
      </trkpt>
      <trkpt lat="42.92644" lon="0.90966">
        <ele>721.12</ele>
        <time>2019-09-06T14:30:01Z</time>
      </trkpt>
      <trkpt lat="42.92632" lon="0.90949">
        <ele>722.93</ele>
        <time>2019-09-06T14:30:20Z</time>
      </trkpt>
      <trkpt lat="42.92616" lon="0.90928">
        <ele>724.43</ele>
        <time>2019-09-06T14:30:39Z</time>
      </trkpt>
      <trkpt lat="42.92603" lon="0.90908">
        <ele>725.39</ele>
        <time>2019-09-06T14:30:57Z</time>
      </trkpt>
      <trkpt lat="42.92596" lon="0.90891">
        <ele>725.78</ele>
        <time>2019-09-06T14:31:16Z</time>
      </trkpt>
      <trkpt lat="42.92591" lon="0.90864">
        <ele>722.78</ele>
        <time>2019-09-06T14:31:29Z</time>
      </trkpt>
      <trkpt lat="42.92604" lon="0.90857">
        <ele>720.53</ele>
        <time>2019-09-06T14:31:49Z</time>
      </trkpt>
      <trkpt lat="42.92617" lon="0.9085">
        <ele>718.61</ele>
        <time>2019-09-06T14:32:11Z</time>
      </trkpt>
      <trkpt lat="42.92623" lon="0.90845">
        <ele>718.65</ele>
        <time>2019-09-06T14:32:23Z</time>
      </trkpt>
      <trkpt lat="42.92633" lon="0.90839">
        <ele>719.48</ele>
        <time>2019-09-06T14:32:34Z</time>
      </trkpt>
      <trkpt lat="42.9265" lon="0.90835">
        <ele>721.31</ele>
        <time>2019-09-06T14:32:55Z</time>
      </trkpt>
      <trkpt lat="42.92662" lon="0.90832">
        <ele>716.85</ele>
        <time>2019-09-06T14:33:01Z</time>
      </trkpt>
      <trkpt lat="42.92663" lon="0.90833">
        <ele>718.57</ele>
        <time>2019-09-06T14:33:02Z</time>
      </trkpt>
      <trkpt lat="42.92665" lon="0.90833">
        <ele>720.1</ele>
        <time>2019-09-06T14:33:05Z</time>
      </trkpt>
      <trkpt lat="42.9267" lon="0.90831">
        <ele>720.27</ele>
        <time>2019-09-06T14:33:10Z</time>
      </trkpt>
      <trkpt lat="42.92693" lon="0.90826">
        <ele>719.43</ele>
        <time>2019-09-06T14:33:31Z</time>
      </trkpt>
      <trkpt lat="42.92696" lon="0.90826">
        <ele>719.48</ele>
        <time>2019-09-06T14:33:34Z</time>
      </trkpt>
      <trkpt lat="42.9273" lon="0.90817">
        <ele>717.6</ele>
        <time>2019-09-06T14:33:56Z</time>
      </trkpt>
      <trkpt lat="42.92745" lon="0.9081">
        <ele>716.27</ele>
        <time>2019-09-06T14:34:11Z</time>
      </trkpt>
      <trkpt lat="42.92748" lon="0.90787">
        <ele>719.42</ele>
        <time>2019-09-06T14:34:30Z</time>
      </trkpt>
      <trkpt lat="42.92748" lon="0.9077">
        <ele>722.45</ele>
        <time>2019-09-06T14:34:44Z</time>
      </trkpt>
      <trkpt lat="42.92748" lon="0.90769">
        <ele>722.61</ele>
        <time>2019-09-06T14:34:45Z</time>
      </trkpt>
      <trkpt lat="42.92752" lon="0.90745">
        <ele>722.63</ele>
        <time>2019-09-06T14:35:04Z</time>
      </trkpt>
      <trkpt lat="42.92752" lon="0.90717">
        <ele>722.26</ele>
        <time>2019-09-06T14:35:25Z</time>
      </trkpt>
      <trkpt lat="42.92754" lon="0.90684">
        <ele>721.01</ele>
        <time>2019-09-06T14:35:45Z</time>
      </trkpt>
      <trkpt lat="42.92758" lon="0.90654">
        <ele>718</ele>
        <time>2019-09-06T14:36:03Z</time>
      </trkpt>
      <trkpt lat="42.92767" lon="0.90624">
        <ele>715.34</ele>
        <time>2019-09-06T14:36:23Z</time>
      </trkpt>
      <trkpt lat="42.92772" lon="0.906">
        <ele>715.8</ele>
        <time>2019-09-06T14:36:40Z</time>
      </trkpt>
      <trkpt lat="42.92784" lon="0.90579">
        <ele>713.77</ele>
        <time>2019-09-06T14:36:58Z</time>
      </trkpt>
      <trkpt lat="42.9279" lon="0.90565">
        <ele>711.33</ele>
        <time>2019-09-06T14:37:11Z</time>
      </trkpt>
      <trkpt lat="42.92799" lon="0.90552">
        <ele>708.05</ele>
        <time>2019-09-06T14:37:21Z</time>
      </trkpt>
      <trkpt lat="42.92802" lon="0.90549">
        <ele>705</ele>
        <time>2019-09-06T14:37:30Z</time>
      </trkpt>
      <trkpt lat="42.92813" lon="0.90527">
        <ele>701.91</ele>
        <time>2019-09-06T14:37:47Z</time>
      </trkpt>
      <trkpt lat="42.9282" lon="0.90499">
        <ele>700.07</ele>
        <time>2019-09-06T14:38:10Z</time>
      </trkpt>
      <trkpt lat="42.92823" lon="0.9046">
        <ele>697.5</ele>
        <time>2019-09-06T14:38:30Z</time>
      </trkpt>
      <trkpt lat="42.92824" lon="0.90444">
        <ele>694.4</ele>
        <time>2019-09-06T14:38:48Z</time>
      </trkpt>
      <trkpt lat="42.92828" lon="0.90435">
        <ele>691.32</ele>
        <time>2019-09-06T14:38:59Z</time>
      </trkpt>
      <trkpt lat="42.92834" lon="0.90422">
        <ele>688.22</ele>
        <time>2019-09-06T14:39:10Z</time>
      </trkpt>
      <trkpt lat="42.9283" lon="0.90397">
        <ele>685.07</ele>
        <time>2019-09-06T14:39:26Z</time>
      </trkpt>
      <trkpt lat="42.92828" lon="0.90373">
        <ele>682.07</ele>
        <time>2019-09-06T14:39:42Z</time>
      </trkpt>
      <trkpt lat="42.92831" lon="0.90357">
        <ele>679.03</ele>
        <time>2019-09-06T14:39:55Z</time>
      </trkpt>
      <trkpt lat="42.92834" lon="0.90327">
        <ele>676.02</ele>
        <time>2019-09-06T14:40:13Z</time>
      </trkpt>
      <trkpt lat="42.92837" lon="0.90314">
        <ele>672.99</ele>
        <time>2019-09-06T14:40:26Z</time>
      </trkpt>
      <trkpt lat="42.92839" lon="0.9028">
        <ele>671.83</ele>
        <time>2019-09-06T14:40:48Z</time>
      </trkpt>
      <trkpt lat="42.92835" lon="0.90281">
        <ele>672.53</ele>
        <time>2019-09-06T14:41:14Z</time>
      </trkpt>
      <trkpt lat="42.92832" lon="0.90268">
        <ele>672.49</ele>
        <time>2019-09-06T14:41:32Z</time>
      </trkpt>
      <trkpt lat="42.92827" lon="0.90259">
        <ele>669.99</ele>
        <time>2019-09-06T14:41:55Z</time>
      </trkpt>
      <trkpt lat="42.92831" lon="0.90256">
        <ele>669.24</ele>
        <time>2019-09-06T14:42:23Z</time>
      </trkpt>
      <trkpt lat="42.9285" lon="0.90228">
        <ele>668.55</ele>
        <time>2019-09-06T14:42:45Z</time>
      </trkpt>
      <trkpt lat="42.92855" lon="0.90209">
        <ele>667.89</ele>
        <time>2019-09-06T14:42:58Z</time>
      </trkpt>
      <trkpt lat="42.92863" lon="0.90187">
        <ele>665.67</ele>
        <time>2019-09-06T14:43:14Z</time>
      </trkpt>
      <trkpt lat="42.92867" lon="0.90151">
        <ele>665.04</ele>
        <time>2019-09-06T14:43:35Z</time>
      </trkpt>
      <trkpt lat="42.92867" lon="0.90131">
        <ele>667.68</ele>
        <time>2019-09-06T14:43:57Z</time>
      </trkpt>
      <trkpt lat="42.92871" lon="0.90091">
        <ele>668.96</ele>
        <time>2019-09-06T14:44:16Z</time>
      </trkpt>
      <trkpt lat="42.92875" lon="0.90055">
        <ele>668.99</ele>
        <time>2019-09-06T14:44:41Z</time>
      </trkpt>
      <trkpt lat="42.92883" lon="0.90025">
        <ele>668.77</ele>
        <time>2019-09-06T14:45:00Z</time>
      </trkpt>
      <trkpt lat="42.92892" lon="0.89992">
        <ele>668.72</ele>
        <time>2019-09-06T14:45:22Z</time>
      </trkpt>
      <trkpt lat="42.92896" lon="0.89962">
        <ele>668.72</ele>
        <time>2019-09-06T14:45:44Z</time>
      </trkpt>
      <trkpt lat="42.929" lon="0.89935">
        <ele>668.72</ele>
        <time>2019-09-06T14:46:03Z</time>
      </trkpt>
      <trkpt lat="42.92897" lon="0.89907">
        <ele>668.72</ele>
        <time>2019-09-06T14:46:20Z</time>
      </trkpt>
      <trkpt lat="42.92894" lon="0.89885">
        <ele>668.72</ele>
        <time>2019-09-06T14:46:34Z</time>
      </trkpt>
      <trkpt lat="42.92892" lon="0.89856">
        <ele>668.71</ele>
        <time>2019-09-06T14:46:53Z</time>
      </trkpt>
      <trkpt lat="42.92893" lon="0.89828">
        <ele>668.71</ele>
        <time>2019-09-06T14:47:14Z</time>
      </trkpt>
      <trkpt lat="42.92889" lon="0.89821">
        <ele>671.83</ele>
        <time>2019-09-06T14:47:20Z</time>
      </trkpt>
      <trkpt lat="42.92878" lon="0.8979">
        <ele>674.1</ele>
        <time>2019-09-06T14:47:42Z</time>
      </trkpt>
      <trkpt lat="42.92868" lon="0.89766">
        <ele>675.01</ele>
        <time>2019-09-06T14:48:00Z</time>
      </trkpt>
      <trkpt lat="42.92855" lon="0.89735">
        <ele>675.98</ele>
        <time>2019-09-06T14:48:21Z</time>
      </trkpt>
      <trkpt lat="42.92842" lon="0.89709">
        <ele>676.8</ele>
        <time>2019-09-06T14:48:42Z</time>
      </trkpt>
      <trkpt lat="42.92836" lon="0.89691">
        <ele>676.78</ele>
        <time>2019-09-06T14:49:00Z</time>
      </trkpt>
      <trkpt lat="42.9283" lon="0.89652">
        <ele>675.97</ele>
        <time>2019-09-06T14:49:23Z</time>
      </trkpt>
      <trkpt lat="42.9283" lon="0.89636">
        <ele>676.01</ele>
        <time>2019-09-06T14:49:31Z</time>
      </trkpt>
      <trkpt lat="42.92834" lon="0.89606">
        <ele>675.79</ele>
        <time>2019-09-06T14:49:48Z</time>
      </trkpt>
      <trkpt lat="42.92837" lon="0.89599">
        <ele>675.85</ele>
        <time>2019-09-06T14:50:05Z</time>
      </trkpt>
      <trkpt lat="42.92836" lon="0.89597">
        <ele>675.74</ele>
        <time>2019-09-06T14:50:27Z</time>
      </trkpt>
      <trkpt lat="42.92832" lon="0.89605">
        <ele>675.55</ele>
        <time>2019-09-06T14:50:47Z</time>
      </trkpt>
      <trkpt lat="42.92827" lon="0.89607">
        <ele>675.91</ele>
        <time>2019-09-06T14:51:02Z</time>
      </trkpt>
      <trkpt lat="42.92843" lon="0.89595">
        <ele>675.38</ele>
        <time>2019-09-06T14:54:51Z</time>
      </trkpt>
      <trkpt lat="42.9284" lon="0.89596">
        <ele>675.03</ele>
        <time>2019-09-06T14:55:10Z</time>
      </trkpt>
      <trkpt lat="42.92838" lon="0.89595">
        <ele>674.72</ele>
        <time>2019-09-06T14:55:36Z</time>
      </trkpt>
      <trkpt lat="42.92845" lon="0.89595">
        <ele>674.82</ele>
        <time>2019-09-06T14:55:56Z</time>
      </trkpt>
      <trkpt lat="42.92845" lon="0.89594">
        <ele>674.76</ele>
        <time>2019-09-06T14:56:22Z</time>
      </trkpt>
      <trkpt lat="42.92845" lon="0.89594">
        <ele>674.59</ele>
        <time>2019-09-06T14:56:44Z</time>
      </trkpt>
      <trkpt lat="42.92845" lon="0.89591">
        <ele>674.59</ele>
        <time>2019-09-06T14:57:20Z</time>
      </trkpt>
      <trkpt lat="42.92865" lon="0.89597">
        <ele>673.41</ele>
        <time>2019-09-06T14:57:35Z</time>
      </trkpt>
      <trkpt lat="42.92867" lon="0.89595">
        <ele>673.39</ele>
        <time>2019-09-06T14:57:36Z</time>
      </trkpt>
      <trkpt lat="42.92869" lon="0.89591">
        <ele>673.02</ele>
        <time>2019-09-06T14:57:39Z</time>
      </trkpt>
      <trkpt lat="42.9287" lon="0.89589">
        <ele>672.84</ele>
        <time>2019-09-06T14:57:40Z</time>
      </trkpt>
      <trkpt lat="42.9287" lon="0.89587">
        <ele>672.84</ele>
        <time>2019-09-06T14:57:41Z</time>
      </trkpt>
      <trkpt lat="42.92878" lon="0.89554">
        <ele>672.42</ele>
        <time>2019-09-06T14:58:01Z</time>
      </trkpt>
      <trkpt lat="42.92883" lon="0.89535">
        <ele>673.2</ele>
        <time>2019-09-06T14:58:15Z</time>
      </trkpt>
      <trkpt lat="42.92889" lon="0.89516">
        <ele>673.87</ele>
        <time>2019-09-06T14:58:31Z</time>
      </trkpt>
      <trkpt lat="42.92889" lon="0.89514">
        <ele>673.84</ele>
        <time>2019-09-06T14:58:32Z</time>
      </trkpt>
      <trkpt lat="42.9289" lon="0.89511">
        <ele>673.67</ele>
        <time>2019-09-06T14:58:34Z</time>
      </trkpt>
      <trkpt lat="42.9289" lon="0.8951">
        <ele>673.61</ele>
        <time>2019-09-06T14:58:35Z</time>
      </trkpt>
      <trkpt lat="42.92891" lon="0.89509">
        <ele>673.59</ele>
        <time>2019-09-06T14:58:36Z</time>
      </trkpt>
      <trkpt lat="42.92892" lon="0.89509">
        <ele>673.58</ele>
        <time>2019-09-06T14:58:37Z</time>
      </trkpt>
      <trkpt lat="42.92909" lon="0.89492">
        <ele>675.82</ele>
        <time>2019-09-06T14:58:55Z</time>
      </trkpt>
      <trkpt lat="42.92916" lon="0.89481">
        <ele>676.02</ele>
        <time>2019-09-06T14:59:04Z</time>
      </trkpt>
      <trkpt lat="42.92917" lon="0.8948">
        <ele>676.1</ele>
        <time>2019-09-06T14:59:05Z</time>
      </trkpt>
      <trkpt lat="42.92918" lon="0.89479">
        <ele>676.16</ele>
        <time>2019-09-06T14:59:06Z</time>
      </trkpt>
      <trkpt lat="42.92937" lon="0.89469">
        <ele>676.9</ele>
        <time>2019-09-06T14:59:24Z</time>
      </trkpt>
      <trkpt lat="42.92956" lon="0.89461">
        <ele>677.73</ele>
        <time>2019-09-06T14:59:42Z</time>
      </trkpt>
      <trkpt lat="42.92974" lon="0.89452">
        <ele>678.91</ele>
        <time>2019-09-06T14:59:56Z</time>
      </trkpt>
      <trkpt lat="42.92975" lon="0.8945">
        <ele>679.4</ele>
        <time>2019-09-06T14:59:57Z</time>
      </trkpt>
      <trkpt lat="42.92976" lon="0.89449">
        <ele>679.48</ele>
        <time>2019-09-06T14:59:58Z</time>
      </trkpt>
      <trkpt lat="42.92994" lon="0.89435">
        <ele>679.75</ele>
        <time>2019-09-06T15:00:13Z</time>
      </trkpt>
      <trkpt lat="42.93014" lon="0.89426">
        <ele>681.01</ele>
        <time>2019-09-06T15:00:32Z</time>
      </trkpt>
      <trkpt lat="42.93017" lon="0.89423">
        <ele>681.15</ele>
        <time>2019-09-06T15:00:34Z</time>
      </trkpt>
      <trkpt lat="42.93032" lon="0.89407">
        <ele>682.96</ele>
        <time>2019-09-06T15:00:51Z</time>
      </trkpt>
      <trkpt lat="42.93033" lon="0.89406">
        <ele>683.11</ele>
        <time>2019-09-06T15:00:52Z</time>
      </trkpt>
      <trkpt lat="42.93044" lon="0.8938">
        <ele>683.19</ele>
        <time>2019-09-06T15:01:07Z</time>
      </trkpt>
      <trkpt lat="42.93047" lon="0.89368">
        <ele>683.39</ele>
        <time>2019-09-06T15:01:12Z</time>
      </trkpt>
      <trkpt lat="42.93048" lon="0.89364">
        <ele>683.46</ele>
        <time>2019-09-06T15:01:13Z</time>
      </trkpt>
      <trkpt lat="42.93048" lon="0.89363">
        <ele>683.51</ele>
        <time>2019-09-06T15:01:14Z</time>
      </trkpt>
      <trkpt lat="42.93049" lon="0.89362">
        <ele>683.56</ele>
        <time>2019-09-06T15:01:15Z</time>
      </trkpt>
      <trkpt lat="42.9305" lon="0.8936">
        <ele>683.61</ele>
        <time>2019-09-06T15:01:16Z</time>
      </trkpt>
      <trkpt lat="42.9305" lon="0.89359">
        <ele>683.66</ele>
        <time>2019-09-06T15:01:17Z</time>
      </trkpt>
      <trkpt lat="42.93065" lon="0.89342">
        <ele>684.86</ele>
        <time>2019-09-06T15:01:39Z</time>
      </trkpt>
      <trkpt lat="42.93074" lon="0.89324">
        <ele>686.3</ele>
        <time>2019-09-06T15:01:57Z</time>
      </trkpt>
      <trkpt lat="42.93081" lon="0.89312">
        <ele>687.03</ele>
        <time>2019-09-06T15:02:12Z</time>
      </trkpt>
      <trkpt lat="42.93074" lon="0.89332">
        <ele>687.08</ele>
        <time>2019-09-06T15:02:28Z</time>
      </trkpt>
      <trkpt lat="42.93065" lon="0.89363">
        <ele>685.88</ele>
        <time>2019-09-06T15:02:47Z</time>
      </trkpt>
      <trkpt lat="42.93052" lon="0.8938">
        <ele>685.03</ele>
        <time>2019-09-06T15:03:07Z</time>
      </trkpt>
      <trkpt lat="42.93055" lon="0.89374">
        <ele>685.48</ele>
        <time>2019-09-06T15:04:09Z</time>
      </trkpt>
      <trkpt lat="42.93044" lon="0.89399">
        <ele>685.1</ele>
        <time>2019-09-06T15:04:30Z</time>
      </trkpt>
      <trkpt lat="42.93031" lon="0.89413">
        <ele>684.39</ele>
        <time>2019-09-06T15:04:48Z</time>
      </trkpt>
      <trkpt lat="42.9301" lon="0.8943">
        <ele>683.3</ele>
        <time>2019-09-06T15:05:05Z</time>
      </trkpt>
      <trkpt lat="42.93009" lon="0.89431">
        <ele>683.27</ele>
        <time>2019-09-06T15:05:06Z</time>
      </trkpt>
      <trkpt lat="42.93007" lon="0.89432">
        <ele>683.24</ele>
        <time>2019-09-06T15:05:07Z</time>
      </trkpt>
      <trkpt lat="42.93006" lon="0.89433">
        <ele>683.2</ele>
        <time>2019-09-06T15:05:08Z</time>
      </trkpt>
      <trkpt lat="42.93005" lon="0.89434">
        <ele>683.13</ele>
        <time>2019-09-06T15:05:09Z</time>
      </trkpt>
      <trkpt lat="42.93003" lon="0.89435">
        <ele>683.06</ele>
        <time>2019-09-06T15:05:10Z</time>
      </trkpt>
      <trkpt lat="42.93002" lon="0.89436">
        <ele>682.98</ele>
        <time>2019-09-06T15:05:11Z</time>
      </trkpt>
      <trkpt lat="42.93001" lon="0.89437">
        <ele>682.91</ele>
        <time>2019-09-06T15:05:12Z</time>
      </trkpt>
      <trkpt lat="42.92999" lon="0.89438">
        <ele>682.83</ele>
        <time>2019-09-06T15:05:13Z</time>
      </trkpt>
      <trkpt lat="42.92974" lon="0.89453">
        <ele>681.64</ele>
        <time>2019-09-06T15:05:32Z</time>
      </trkpt>
      <trkpt lat="42.92959" lon="0.89462">
        <ele>680.87</ele>
        <time>2019-09-06T15:05:47Z</time>
      </trkpt>
      <trkpt lat="42.92947" lon="0.89465">
        <ele>680.29</ele>
        <time>2019-09-06T15:05:57Z</time>
      </trkpt>
      <trkpt lat="42.92942" lon="0.89465">
        <ele>680.17</ele>
        <time>2019-09-06T15:06:00Z</time>
      </trkpt>
      <trkpt lat="42.92926" lon="0.89471">
        <ele>679.5</ele>
        <time>2019-09-06T15:06:12Z</time>
      </trkpt>
      <trkpt lat="42.92925" lon="0.89471">
        <ele>679.48</ele>
        <time>2019-09-06T15:06:13Z</time>
      </trkpt>
      <trkpt lat="42.92924" lon="0.89471">
        <ele>679.47</ele>
        <time>2019-09-06T15:06:14Z</time>
      </trkpt>
      <trkpt lat="42.92915" lon="0.89484">
        <ele>679.12</ele>
        <time>2019-09-06T15:06:26Z</time>
      </trkpt>
      <trkpt lat="42.92914" lon="0.89489">
        <ele>679.09</ele>
        <time>2019-09-06T15:06:28Z</time>
      </trkpt>
      <trkpt lat="42.92913" lon="0.89491">
        <ele>679.08</ele>
        <time>2019-09-06T15:06:29Z</time>
      </trkpt>
      <trkpt lat="42.92901" lon="0.89516">
        <ele>678.06</ele>
        <time>2019-09-06T15:06:43Z</time>
      </trkpt>
      <trkpt lat="42.92888" lon="0.89514">
        <ele>676.92</ele>
        <time>2019-09-06T15:06:53Z</time>
      </trkpt>
      <trkpt lat="42.92887" lon="0.89512">
        <ele>676.85</ele>
        <time>2019-09-06T15:06:54Z</time>
      </trkpt>
      <trkpt lat="42.92886" lon="0.89509">
        <ele>676.81</ele>
        <time>2019-09-06T15:06:55Z</time>
      </trkpt>
      <trkpt lat="42.92878" lon="0.89486">
        <ele>676.49</ele>
        <time>2019-09-06T15:07:06Z</time>
      </trkpt>
      <trkpt lat="42.92876" lon="0.89474">
        <ele>676.28</ele>
        <time>2019-09-06T15:07:14Z</time>
      </trkpt>
      <trkpt lat="42.92875" lon="0.89472">
        <ele>676.28</ele>
        <time>2019-09-06T15:07:15Z</time>
      </trkpt>
      <trkpt lat="42.92866" lon="0.89448">
        <ele>676.45</ele>
        <time>2019-09-06T15:07:31Z</time>
      </trkpt>
      <trkpt lat="42.92861" lon="0.89428">
        <ele>676.8</ele>
        <time>2019-09-06T15:07:45Z</time>
      </trkpt>
      <trkpt lat="42.92852" lon="0.89406">
        <ele>677.42</ele>
        <time>2019-09-06T15:08:00Z</time>
      </trkpt>
      <trkpt lat="42.92851" lon="0.89404">
        <ele>677.47</ele>
        <time>2019-09-06T15:08:01Z</time>
      </trkpt>
      <trkpt lat="42.92841" lon="0.8937">
        <ele>678.49</ele>
        <time>2019-09-06T15:08:17Z</time>
      </trkpt>
      <trkpt lat="42.92829" lon="0.89355">
        <ele>679.63</ele>
        <time>2019-09-06T15:08:34Z</time>
      </trkpt>
      <trkpt lat="42.92825" lon="0.89357">
        <ele>679.82</ele>
        <time>2019-09-06T15:08:37Z</time>
      </trkpt>
      <trkpt lat="42.9282" lon="0.89358">
        <ele>680.04</ele>
        <time>2019-09-06T15:08:40Z</time>
      </trkpt>
      <trkpt lat="42.92819" lon="0.89358">
        <ele>680.13</ele>
        <time>2019-09-06T15:08:41Z</time>
      </trkpt>
      <trkpt lat="42.92817" lon="0.89359">
        <ele>680.2</ele>
        <time>2019-09-06T15:08:42Z</time>
      </trkpt>
      <trkpt lat="42.9281" lon="0.89356">
        <ele>680.66</ele>
        <time>2019-09-06T15:08:55Z</time>
      </trkpt>
      <trkpt lat="42.92817" lon="0.89365">
        <ele>680.71</ele>
        <time>2019-09-06T15:09:15Z</time>
      </trkpt>
      <trkpt lat="42.92816" lon="0.89364">
        <ele>680.72</ele>
        <time>2019-09-06T15:09:18Z</time>
      </trkpt>
      <trkpt lat="42.92814" lon="0.89362">
        <ele>680.72</ele>
        <time>2019-09-06T15:09:20Z</time>
      </trkpt>
      <trkpt lat="42.92798" lon="0.89348">
        <ele>680.96</ele>
        <time>2019-09-06T15:09:37Z</time>
      </trkpt>
      <trkpt lat="42.92773" lon="0.8933">
        <ele>681.48</ele>
        <time>2019-09-06T15:10:00Z</time>
      </trkpt>
      <trkpt lat="42.92756" lon="0.89327">
        <ele>681.96</ele>
        <time>2019-09-06T15:10:16Z</time>
      </trkpt>
      <trkpt lat="42.92749" lon="0.89324">
        <ele>682.29</ele>
        <time>2019-09-06T15:10:34Z</time>
      </trkpt>
      <trkpt lat="42.9276" lon="0.89322">
        <ele>681.99</ele>
        <time>2019-09-06T15:10:53Z</time>
      </trkpt>
      <trkpt lat="42.92758" lon="0.89321">
        <ele>682.15</ele>
        <time>2019-09-06T15:11:11Z</time>
      </trkpt>
      <trkpt lat="42.92754" lon="0.89336">
        <ele>681.93</ele>
        <time>2019-09-06T15:11:31Z</time>
      </trkpt>
      <trkpt lat="42.9276" lon="0.89354">
        <ele>689.79</ele>
        <time>2019-09-06T15:25:48Z</time>
      </trkpt>
      <trkpt lat="42.92761" lon="0.89354">
        <ele>689.79</ele>
        <time>2019-09-06T15:25:50Z</time>
      </trkpt>
      <trkpt lat="42.92742" lon="0.89381">
        <ele>689.79</ele>
        <time>2019-09-06T15:26:12Z</time>
      </trkpt>
      <trkpt lat="42.92745" lon="0.89384">
        <ele>543.25</ele>
        <time>2019-09-06T15:26:17Z</time>
      </trkpt>
    </trkseg>
  </trk>
</gpx>